Wetterdaten: Donnerstag, 26.04.2018
Datum Zeit Temp. A. Feuchte A. Luftdruck Regen Wind Richtung Richtung Sonnenschein ET UV Solar Taupunkt Windchill Windböen
26.04.2018 00:00 13,4 °C 82 % 1011,9 hPa 0,0 mm 3,1 km/h (1 Bft) W-SW 240 ° 0 min 0,000 mm 0,0 UV-I 0 W/m² 10,4 °C 13,4 °C 8,0 km/h (2 Bft)
26.04.2018 00:01 13,4 °C 82 % 1011,9 hPa 0,0 mm 2,0 km/h (1 Bft) W-SW 238 ° 0 min 0,000 mm 0,0 UV-I 0 W/m² 10,4 °C 13,4 °C 4,8 km/h (1 Bft)
26.04.2018 00:02 13,4 °C 82 % 1011,9 hPa 0,0 mm 0,2 km/h (0 Bft) W-SW 238 ° 0 min 0,000 mm 0,0 UV-I 0 W/m² 10,4 °C 13,4 °C 3,2 km/h (1 Bft)
26.04.2018 00:03 13,4 °C 82 % 1011,9 hPa 0,0 mm 4,2 km/h (1 Bft) SW 214 ° 0 min 0,000 mm 0,0 UV-I 0 W/m² 10,4 °C 13,4 °C 9,7 km/h (2 Bft)
26.04.2018 00:04 13,3 °C 83 % 1011,9 hPa 0,0 mm 3,1 km/h (1 Bft) SW 217 ° 0 min 0,000 mm 0,0 UV-I 0 W/m² 10,5 °C 13,3 °C 4,8 km/h (1 Bft)
26.04.2018 00:05 13,3 °C 83 % 1011,9 hPa 0,0 mm 3,1 km/h (1 Bft) SW 217 ° 0 min 0,000 mm 0,0 UV-I 0 W/m² 10,5 °C 13,3 °C 4,8 km/h (1 Bft)
26.04.2018 00:06 13,3 °C 83 % 1012,0 hPa 0,0 mm 1,5 km/h (1 Bft) SW 218 ° 0 min 0,000 mm 0,0 UV-I 0 W/m² 10,5 °C 13,3 °C 3,2 km/h (1 Bft)
26.04.2018 00:07 13,2 °C 84 % 1012,0 hPa 0,0 mm 5,2 km/h (1 Bft) W 260 ° 0 min 0,000 mm 0,0 UV-I 0 W/m² 10,6 °C 13,2 °C 9,7 km/h (2 Bft)
26.04.2018 00:08 13,2 °C 84 % 1012,1 hPa 0,0 mm 2,7 km/h (1 Bft) W 278 ° 0 min 0,000 mm 0,0 UV-I 0 W/m² 10,6 °C 13,2 °C 4,8 km/h (1 Bft)
26.04.2018 00:09 13,1 °C 84 % 1012,0 hPa 0,0 mm 2,7 km/h (1 Bft) W 278 ° 0 min 0,000 mm 0,0 UV-I 0 W/m² 10,5 °C 13,1 °C 4,8 km/h (1 Bft)
26.04.2018 00:10 13,1 °C 85 % 1012,1 hPa 0,0 mm 0,5 km/h (0 Bft) W 278 ° 0 min 0,000 mm 0,0 UV-I 0 W/m² 10,6 °C 13,1 °C 1,6 km/h (1 Bft)
26.04.2018 00:11 12,9 °C 85 % 1012,1 hPa 0,0 mm 0,0 km/h (0 Bft) W 278 ° 0 min 0,000 mm 0,0 UV-I 0 W/m² 10,4 °C 12,9 °C 0,0 km/h (0 Bft)
26.04.2018 00:12 12,9 °C 86 % 1012,1 hPa 0,0 mm 1,5 km/h (1 Bft) W 278 ° 0 min 0,000 mm 0,0 UV-I 0 W/m² 10,6 °C 12,9 °C 3,2 km/h (1 Bft)
26.04.2018 00:13 12,8 °C 86 % 1012,1 hPa 0,0 mm 0,3 km/h (0 Bft) W 278 ° 0 min 0,000 mm 0,0 UV-I 0 W/m² 10,5 °C 12,8 °C 1,6 km/h (1 Bft)
26.04.2018 00:14 12,8 °C 86 % 1012,1 hPa 0,0 mm 0,1 km/h (0 Bft) W 278 ° 0 min 0,000 mm 0,0 UV-I 0 W/m² 10,5 °C 12,8 °C 1,6 km/h (1 Bft)
26.04.2018 00:15 12,8 °C 86 % 1012,1 hPa 0,0 mm 1,2 km/h (1 Bft) W 278 ° 0 min 0,000 mm 0,0 UV-I 0 W/m² 10,5 °C 12,8 °C 3,2 km/h (1 Bft)
26.04.2018 00:16 12,7 °C 86 % 1012,1 hPa 0,0 mm 1,0 km/h (0 Bft) W 278 ° 0 min 0,000 mm 0,0 UV-I 0 W/m² 10,4 °C 12,7 °C 3,2 km/h (1 Bft)
26.04.2018 00:17 12,7 °C 86 % 1012,1 hPa 0,0 mm 0,0 km/h (0 Bft) W 278 ° 0 min 0,000 mm 0,0 UV-I 0 W/m² 10,4 °C 12,7 °C 0,0 km/h (0 Bft)
26.04.2018 00:18 12,7 °C 87 % 1012,1 hPa 0,0 mm 0,0 km/h (0 Bft) W 278 ° 0 min 0,000 mm 0,0 UV-I 0 W/m² 10,6 °C 12,7 °C 0,0 km/h (0 Bft)
26.04.2018 00:19 12,6 °C 87 % 1012,0 hPa 0,0 mm 0,0 km/h (0 Bft) W 278 ° 0 min 0,000 mm 0,0 UV-I 0 W/m² 10,5 °C 12,6 °C 0,0 km/h (0 Bft)
26.04.2018 00:20 12,6 °C 87 % 1012,0 hPa 0,0 mm 0,0 km/h (0 Bft) W 278 ° 0 min 0,000 mm 0,0 UV-I 0 W/m² 10,5 °C 12,6 °C 0,0 km/h (0 Bft)
26.04.2018 00:21 12,6 °C 87 % 1012,0 hPa 0,0 mm 0,0 km/h (0 Bft) W 278 ° 0 min 0,000 mm 0,0 UV-I 0 W/m² 10,5 °C 12,6 °C 0,0 km/h (0 Bft)
26.04.2018 00:22 12,6 °C 87 % 1012,0 hPa 0,0 mm 0,0 km/h (0 Bft) W 278 ° 0 min 0,000 mm 0,0 UV-I 0 W/m² 10,5 °C 12,6 °C 0,0 km/h (0 Bft)
26.04.2018 00:23 12,6 °C 87 % 1012,1 hPa 0,0 mm 0,3 km/h (0 Bft) W-SW 256 ° 0 min 0,000 mm 0,0 UV-I 0 W/m² 10,5 °C 12,6 °C 3,2 km/h (1 Bft)
26.04.2018 00:24 12,6 °C 86 % 1012,0 hPa 0,0 mm 1,5 km/h (1 Bft) W-SW 254 ° 0 min 0,000 mm 0,0 UV-I 0 W/m² 10,3 °C 12,6 °C 4,8 km/h (1 Bft)
26.04.2018 00:25 12,7 °C 86 % 1012,1 hPa 0,0 mm 2,5 km/h (1 Bft) W 261 ° 0 min 0,000 mm 0,0 UV-I 0 W/m² 10,4 °C 12,7 °C 9,7 km/h (2 Bft)
26.04.2018 00:26 12,8 °C 86 % 1012,1 hPa 0,0 mm 3,3 km/h (1 Bft) W 262 ° 0 min 0,000 mm 0,0 UV-I 0 W/m² 10,5 °C 12,8 °C 6,4 km/h (2 Bft)
26.04.2018 00:27 12,8 °C 86 % 1012,1 hPa 0,0 mm 1,3 km/h (1 Bft) W 262 ° 0 min 0,000 mm 0,0 UV-I 0 W/m² 10,5 °C 12,8 °C 3,2 km/h (1 Bft)
26.04.2018 00:28 12,8 °C 86 % 1012,1 hPa 0,0 mm 2,2 km/h (1 Bft) W 262 ° 0 min 0,000 mm 0,0 UV-I 0 W/m² 10,5 °C 12,8 °C 4,8 km/h (1 Bft)
26.04.2018 00:29 12,8 °C 86 % 1012,1 hPa 0,0 mm 2,6 km/h (1 Bft) W 263 ° 0 min 0,000 mm 0,0 UV-I 0 W/m² 10,5 °C 12,8 °C 4,8 km/h (1 Bft)
26.04.2018 00:30 12,8 °C 86 % 1012,1 hPa 0,0 mm 4,1 km/h (1 Bft) W 263 ° 0 min 0,000 mm 0,0 UV-I 0 W/m² 10,5 °C 12,8 °C 6,4 km/h (2 Bft)
26.04.2018 00:31 12,8 °C 86 % 1012,2 hPa 0,0 mm 4,2 km/h (1 Bft) W 265 ° 0 min 0,000 mm 0,0 UV-I 0 W/m² 10,5 °C 12,8 °C 6,4 km/h (2 Bft)
26.04.2018 00:32 12,8 °C 86 % 1012,3 hPa 0,0 mm 5,4 km/h (1 Bft) W 274 ° 0 min 0,000 mm 0,0 UV-I 0 W/m² 10,5 °C 12,8 °C 6,4 km/h (2 Bft)
26.04.2018 00:33 12,8 °C 86 % 1012,3 hPa 0,0 mm 4,5 km/h (1 Bft) W-SW 255 ° 0 min 0,000 mm 0,0 UV-I 0 W/m² 10,5 °C 12,8 °C 6,4 km/h (2 Bft)
26.04.2018 00:34 12,8 °C 86 % 1012,3 hPa 0,0 mm 4,0 km/h (1 Bft) W-SW 255 ° 0 min 0,000 mm 0,0 UV-I 0 W/m² 10,5 °C 12,8 °C 6,4 km/h (2 Bft)
26.04.2018 00:35 12,7 °C 86 % 1012,3 hPa 0,0 mm 4,0 km/h (1 Bft) W 259 ° 0 min 0,000 mm 0,0 UV-I 0 W/m² 10,4 °C 12,7 °C 6,4 km/h (2 Bft)
26.04.2018 00:36 12,7 °C 87 % 1012,4 hPa 0,0 mm 2,0 km/h (1 Bft) W 259 ° 0 min 0,000 mm 0,0 UV-I 0 W/m² 10,6 °C 12,7 °C 3,2 km/h (1 Bft)
26.04.2018 00:37 12,7 °C 87 % 1012,3 hPa 0,0 mm 1,7 km/h (1 Bft) W 259 ° 0 min 0,000 mm 0,0 UV-I 0 W/m² 10,6 °C 12,7 °C 3,2 km/h (1 Bft)
26.04.2018 00:38 12,7 °C 87 % 1012,3 hPa 0,0 mm 1,5 km/h (1 Bft) W 259 ° 0 min 0,000 mm 0,0 UV-I 0 W/m² 10,6 °C 12,7 °C 3,2 km/h (1 Bft)
26.04.2018 00:39 12,8 °C 87 % 1012,3 hPa 0,0 mm 1,8 km/h (1 Bft) W 259 ° 0 min 0,000 mm 0,0 UV-I 0 W/m² 10,7 °C 12,8 °C 3,2 km/h (1 Bft)
26.04.2018 00:40 12,7 °C 87 % 1012,4 hPa 0,0 mm 1,3 km/h (1 Bft) W 259 ° 0 min 0,000 mm 0,0 UV-I 0 W/m² 10,6 °C 12,7 °C 3,2 km/h (1 Bft)
26.04.2018 00:41 12,7 °C 87 % 1012,4 hPa 0,0 mm 1,8 km/h (1 Bft) W 259 ° 0 min 0,000 mm 0,0 UV-I 0 W/m² 10,6 °C 12,7 °C 3,2 km/h (1 Bft)
26.04.2018 00:42 12,7 °C 87 % 1012,3 hPa 0,0 mm 1,1 km/h (1 Bft) W 259 ° 0 min 0,000 mm 0,0 UV-I 0 W/m² 10,6 °C 12,7 °C 3,2 km/h (1 Bft)
26.04.2018 00:43 12,7 °C 87 % 1012,3 hPa 0,0 mm 1,6 km/h (1 Bft) W 259 ° 0 min 0,000 mm 0,0 UV-I 0 W/m² 10,6 °C 12,7 °C 3,2 km/h (1 Bft)
26.04.2018 00:44 12,6 °C 87 % 1012,3 hPa 0,0 mm 0,7 km/h (0 Bft) W 277 ° 0 min 0,000 mm 0,0 UV-I 0 W/m² 10,5 °C 12,6 °C 4,8 km/h (1 Bft)
26.04.2018 00:45 12,6 °C 87 % 1012,3 hPa 0,0 mm 1,3 km/h (1 Bft) W 281 ° 0 min 0,000 mm 0,0 UV-I 0 W/m² 10,5 °C 12,6 °C 4,8 km/h (1 Bft)
26.04.2018 00:46 12,6 °C 87 % 1012,4 hPa 0,0 mm 1,5 km/h (1 Bft) W-SW 247 ° 0 min 0,000 mm 0,0 UV-I 0 W/m² 10,5 °C 12,6 °C 3,2 km/h (1 Bft)
26.04.2018 00:47 12,6 °C 87 % 1012,4 hPa 0,0 mm 2,4 km/h (1 Bft) W-SW 248 ° 0 min 0,000 mm 0,0 UV-I 0 W/m² 10,5 °C 12,6 °C 4,8 km/h (1 Bft)
26.04.2018 00:48 12,6 °C 87 % 1012,4 hPa 0,0 mm 2,7 km/h (1 Bft) W-SW 248 ° 0 min 0,000 mm 0,0 UV-I 0 W/m² 10,5 °C 12,6 °C 4,8 km/h (1 Bft)
26.04.2018 00:49 12,6 °C 87 % 1012,4 hPa 0,0 mm 7,2 km/h (2 Bft) W 267 ° 0 min 0,000 mm 0,0 UV-I 0 W/m² 10,5 °C 12,6 °C 11,3 km/h (2 Bft)
26.04.2018 00:50 12,5 °C 87 % 1012,5 hPa 0,2 mm 6,7 km/h (2 Bft) W 272 ° 0 min 0,000 mm 0,0 UV-I 0 W/m² 10,4 °C 12,5 °C 11,3 km/h (2 Bft)
26.04.2018 00:51 12,5 °C 87 % 1012,5 hPa 0,0 mm 3,5 km/h (1 Bft) W 272 ° 0 min 0,000 mm 0,0 UV-I 0 W/m² 10,4 °C 12,5 °C 6,4 km/h (2 Bft)
26.04.2018 00:52 12,4 °C 87 % 1012,5 hPa 0,0 mm 3,6 km/h (1 Bft) W 280 ° 0 min 0,000 mm 0,0 UV-I 0 W/m² 10,3 °C 12,4 °C 9,7 km/h (2 Bft)
26.04.2018 00:53 12,4 °C 87 % 1012,5 hPa 0,0 mm 4,4 km/h (1 Bft) W 262 ° 0 min 0,000 mm 0,0 UV-I 0 W/m² 10,3 °C 12,4 °C 9,7 km/h (2 Bft)
26.04.2018 00:54 12,4 °C 87 % 1012,5 hPa 0,0 mm 2,6 km/h (1 Bft) W-SW 251 ° 0 min 0,000 mm 0,0 UV-I 0 W/m² 10,3 °C 12,4 °C 9,7 km/h (2 Bft)
26.04.2018 00:55 12,4 °C 87 % 1012,5 hPa 0,0 mm 2,3 km/h (1 Bft) S-SW 212 ° 0 min 0,000 mm 0,0 UV-I 0 W/m² 10,3 °C 12,4 °C 4,8 km/h (1 Bft)
26.04.2018 00:56 12,3 °C 87 % 1012,5 hPa 0,0 mm 6,4 km/h (2 Bft) W-SW 258 ° 0 min 0,000 mm 0,0 UV-I 0 W/m² 10,2 °C 12,3 °C 11,3 km/h (2 Bft)
26.04.2018 00:57 12,3 °C 87 % 1012,4 hPa 0,0 mm 3,2 km/h (1 Bft) W-SW 249 ° 0 min 0,000 mm 0,0 UV-I 0 W/m² 10,2 °C 12,3 °C 6,4 km/h (2 Bft)
26.04.2018 00:58 12,3 °C 87 % 1012,5 hPa 0,2 mm 3,7 km/h (1 Bft) W-SW 250 ° 0 min 0,000 mm 0,0 UV-I 0 W/m² 10,2 °C 12,3 °C 8,0 km/h (2 Bft)
26.04.2018 00:59 12,3 °C 88 % 1012,5 hPa 0,0 mm 4,3 km/h (1 Bft) SW 222 ° 0 min 0,000 mm 0,0 UV-I 0 W/m² 10,4 °C 12,3 °C 8,0 km/h (2 Bft)
26.04.2018 01:00 12,3 °C 88 % 1012,5 hPa 0,0 mm 7,9 km/h (2 Bft) W-SW 242 ° 0 min 0,025 mm 0,0 UV-I 0 W/m² 10,4 °C 12,3 °C 16,1 km/h (3 Bft)
26.04.2018 01:01 12,3 °C 87 % 1012,5 hPa 0,0 mm 2,5 km/h (1 Bft) W-SW 242 ° 0 min 0,000 mm 0,0 UV-I 0 W/m² 10,2 °C 12,3 °C 4,8 km/h (1 Bft)
26.04.2018 01:02 12,3 °C 87 % 1012,5 hPa 0,0 mm 4,6 km/h (1 Bft) W-SW 243 ° 0 min 0,000 mm 0,0 UV-I 0 W/m² 10,2 °C 12,3 °C 9,7 km/h (2 Bft)
26.04.2018 01:03 12,3 °C 88 % 1012,4 hPa 0,0 mm 5,5 km/h (1 Bft) W-SW 246 ° 0 min 0,000 mm 0,0 UV-I 0 W/m² 10,4 °C 12,3 °C 9,7 km/h (2 Bft)
26.04.2018 01:04 12,2 °C 87 % 1012,3 hPa 0,0 mm 4,1 km/h (1 Bft) S-SW 208 ° 0 min 0,000 mm 0,0 UV-I 0 W/m² 10,1 °C 12,2 °C 6,4 km/h (2 Bft)
26.04.2018 01:05 12,3 °C 87 % 1012,3 hPa 0,0 mm 1,0 km/h (0 Bft) S-SW 208 ° 0 min 0,000 mm 0,0 UV-I 0 W/m² 10,2 °C 12,3 °C 3,2 km/h (1 Bft)
26.04.2018 01:06 12,3 °C 87 % 1012,3 hPa 0,0 mm 1,9 km/h (1 Bft) W-SW 238 ° 0 min 0,000 mm 0,0 UV-I 0 W/m² 10,2 °C 12,3 °C 4,8 km/h (1 Bft)
26.04.2018 01:07 12,3 °C 87 % 1012,3 hPa 0,0 mm 2,2 km/h (1 Bft) W-SW 241 ° 0 min 0,000 mm 0,0 UV-I 0 W/m² 10,2 °C 12,3 °C 4,8 km/h (1 Bft)
26.04.2018 01:08 12,3 °C 87 % 1012,3 hPa 0,0 mm 5,2 km/h (1 Bft) S-SW 196 ° 0 min 0,000 mm 0,0 UV-I 0 W/m² 10,2 °C 12,3 °C 9,7 km/h (2 Bft)
26.04.2018 01:09 12,3 °C 87 % 1012,3 hPa 0,0 mm 0,6 km/h (0 Bft) S-SW 196 ° 0 min 0,000 mm 0,0 UV-I 0 W/m² 10,2 °C 12,3 °C 1,6 km/h (1 Bft)
26.04.2018 01:10 12,3 °C 87 % 1012,3 hPa 0,0 mm 3,0 km/h (1 Bft) W-SW 249 ° 0 min 0,000 mm 0,0 UV-I 0 W/m² 10,2 °C 12,3 °C 6,4 km/h (2 Bft)
26.04.2018 01:11 12,3 °C 87 % 1012,3 hPa 0,0 mm 3,9 km/h (1 Bft) S-SW 205 ° 0 min 0,000 mm 0,0 UV-I 0 W/m² 10,2 °C 12,3 °C 9,7 km/h (2 Bft)
26.04.2018 01:12 12,3 °C 86 % 1012,3 hPa 0,0 mm 4,8 km/h (1 Bft) W-SW 238 ° 0 min 0,000 mm 0,0 UV-I 0 W/m² 10,0 °C 12,3 °C 6,4 km/h (2 Bft)
26.04.2018 01:13 12,4 °C 86 % 1012,3 hPa 0,0 mm 1,3 km/h (1 Bft) W-SW 238 ° 0 min 0,000 mm 0,0 UV-I 0 W/m² 10,1 °C 12,4 °C 3,2 km/h (1 Bft)
26.04.2018 01:14 12,3 °C 86 % 1012,3 hPa 0,0 mm 1,8 km/h (1 Bft) SW 214 ° 0 min 0,000 mm 0,0 UV-I 0 W/m² 10,0 °C 12,3 °C 3,2 km/h (1 Bft)
26.04.2018 01:15 12,3 °C 86 % 1012,3 hPa 0,0 mm 1,1 km/h (1 Bft) W-SW 247 ° 0 min 0,000 mm 0,0 UV-I 0 W/m² 10,0 °C 12,3 °C 3,2 km/h (1 Bft)
26.04.2018 01:16 12,3 °C 86 % 1012,3 hPa 0,0 mm 7,2 km/h (2 Bft) S-SW 210 ° 0 min 0,000 mm 0,0 UV-I 0 W/m² 10,0 °C 12,3 °C 14,5 km/h (3 Bft)
26.04.2018 01:17 12,3 °C 86 % 1012,3 hPa 0,0 mm 4,2 km/h (1 Bft) W-SW 258 ° 0 min 0,000 mm 0,0 UV-I 0 W/m² 10,0 °C 12,3 °C 6,4 km/h (2 Bft)
26.04.2018 01:18 12,3 °C 85 % 1012,3 hPa 0,0 mm 3,2 km/h (1 Bft) W 263 ° 0 min 0,000 mm 0,0 UV-I 0 W/m² 9,9 °C 12,3 °C 4,8 km/h (1 Bft)
26.04.2018 01:19 12,3 °C 85 % 1012,3 hPa 0,0 mm 1,1 km/h (1 Bft) W 263 ° 0 min 0,000 mm 0,0 UV-I 0 W/m² 9,9 °C 12,3 °C 3,2 km/h (1 Bft)
26.04.2018 01:20 12,3 °C 85 % 1012,3 hPa 0,0 mm 3,6 km/h (1 Bft) W-SW 258 ° 0 min 0,000 mm 0,0 UV-I 0 W/m² 9,9 °C 12,3 °C 6,4 km/h (2 Bft)
26.04.2018 01:21 12,3 °C 85 % 1012,3 hPa 0,0 mm 3,6 km/h (1 Bft) S-SW 192 ° 0 min 0,000 mm 0,0 UV-I 0 W/m² 9,9 °C 12,3 °C 8,0 km/h (2 Bft)
26.04.2018 01:22 12,3 °C 85 % 1012,3 hPa 0,0 mm 4,6 km/h (1 Bft) W-SW 244 ° 0 min 0,000 mm 0,0 UV-I 0 W/m² 9,9 °C 12,3 °C 11,3 km/h (2 Bft)
26.04.2018 01:23 12,3 °C 85 % 1012,3 hPa 0,0 mm 2,5 km/h (1 Bft) SW 236 ° 0 min 0,000 mm 0,0 UV-I 0 W/m² 9,9 °C 12,3 °C 6,4 km/h (2 Bft)
26.04.2018 01:24 12,4 °C 85 % 1012,3 hPa 0,0 mm 7,1 km/h (2 Bft) W-SW 249 ° 0 min 0,000 mm 0,0 UV-I 0 W/m² 9,9 °C 12,4 °C 11,3 km/h (2 Bft)
26.04.2018 01:25 12,3 °C 85 % 1012,3 hPa 0,0 mm 2,9 km/h (1 Bft) S-SW 194 ° 0 min 0,000 mm 0,0 UV-I 0 W/m² 9,9 °C 12,3 °C 4,8 km/h (1 Bft)
26.04.2018 01:26 12,4 °C 84 % 1012,3 hPa 0,0 mm 1,8 km/h (1 Bft) S-SW 194 ° 0 min 0,000 mm 0,0 UV-I 0 W/m² 9,8 °C 12,4 °C 3,2 km/h (1 Bft)
26.04.2018 01:27 12,3 °C 84 % 1012,3 hPa 0,0 mm 1,9 km/h (1 Bft) SW 234 ° 0 min 0,000 mm 0,0 UV-I 0 W/m² 9,7 °C 12,3 °C 6,4 km/h (2 Bft)
26.04.2018 01:28 12,3 °C 84 % 1012,4 hPa 0,0 mm 3,9 km/h (1 Bft) S-SW 201 ° 0 min 0,000 mm 0,0 UV-I 0 W/m² 9,7 °C 12,3 °C 8,0 km/h (2 Bft)
26.04.2018 01:29 12,3 °C 84 % 1012,4 hPa 0,0 mm 4,9 km/h (1 Bft) W 266 ° 0 min 0,000 mm 0,0 UV-I 0 W/m² 9,7 °C 12,3 °C 8,0 km/h (2 Bft)
26.04.2018 01:30 12,3 °C 84 % 1012,4 hPa 0,0 mm 3,1 km/h (1 Bft) SW 233 ° 0 min 0,000 mm 0,0 UV-I 0 W/m² 9,7 °C 12,3 °C 4,8 km/h (1 Bft)
26.04.2018 01:31 12,3 °C 84 % 1012,4 hPa 0,0 mm 3,6 km/h (1 Bft) W-SW 247 ° 0 min 0,000 mm 0,0 UV-I 0 W/m² 9,7 °C 12,3 °C 8,0 km/h (2 Bft)
26.04.2018 01:32 12,3 °C 85 % 1012,4 hPa 0,0 mm 0,3 km/h (0 Bft) W-SW 247 ° 0 min 0,000 mm 0,0 UV-I 0 W/m² 9,9 °C 12,3 °C 3,2 km/h (1 Bft)
26.04.2018 01:33 12,3 °C 84 % 1012,5 hPa 0,0 mm 0,8 km/h (0 Bft) S-SW 213 ° 0 min 0,000 mm 0,0 UV-I 0 W/m² 9,7 °C 12,3 °C 6,4 km/h (2 Bft)
26.04.2018 01:34 12,3 °C 84 % 1012,4 hPa 0,0 mm 2,3 km/h (1 Bft) W-SW 242 ° 0 min 0,000 mm 0,0 UV-I 0 W/m² 9,7 °C 12,3 °C 6,4 km/h (2 Bft)
26.04.2018 01:35 12,2 °C 85 % 1012,4 hPa 0,0 mm 4,1 km/h (1 Bft) W-SW 240 ° 0 min 0,000 mm 0,0 UV-I 0 W/m² 9,8 °C 12,2 °C 4,8 km/h (1 Bft)
26.04.2018 01:36 12,2 °C 85 % 1012,4 hPa 0,0 mm 3,2 km/h (1 Bft) W 273 ° 0 min 0,000 mm 0,0 UV-I 0 W/m² 9,8 °C 12,2 °C 4,8 km/h (1 Bft)
26.04.2018 01:37 12,2 °C 85 % 1012,4 hPa 0,0 mm 0,1 km/h (0 Bft) W 273 ° 0 min 0,000 mm 0,0 UV-I 0 W/m² 9,8 °C 12,2 °C 1,6 km/h (1 Bft)
26.04.2018 01:38 12,2 °C 84 % 1012,4 hPa 0,0 mm 0,0 km/h (0 Bft) W 273 ° 0 min 0,000 mm 0,0 UV-I 0 W/m² 9,6 °C 12,2 °C 0,0 km/h (0 Bft)
26.04.2018 01:39 12,2 °C 84 % 1012,4 hPa 0,0 mm 0,0 km/h (0 Bft) W 273 ° 0 min 0,000 mm 0,0 UV-I 0 W/m² 9,6 °C 12,2 °C 0,0 km/h (0 Bft)
26.04.2018 01:40 12,2 °C 84 % 1012,4 hPa 0,0 mm 0,0 km/h (0 Bft) W 263 ° 0 min 0,000 mm 0,0 UV-I 0 W/m² 9,6 °C 12,2 °C 0,0 km/h (0 Bft)
26.04.2018 01:41 12,2 °C 84 % 1012,4 hPa 0,0 mm 1,3 km/h (1 Bft) S-SW 209 ° 0 min 0,000 mm 0,0 UV-I 0 W/m² 9,6 °C 12,2 °C 3,2 km/h (1 Bft)
26.04.2018 01:42 12,2 °C 84 % 1012,4 hPa 0,0 mm 4,1 km/h (1 Bft) W 265 ° 0 min 0,000 mm 0,0 UV-I 0 W/m² 9,6 °C 12,2 °C 11,3 km/h (2 Bft)
26.04.2018 01:43 12,2 °C 84 % 1012,4 hPa 0,0 mm 5,1 km/h (1 Bft) W-SW 238 ° 0 min 0,000 mm 0,0 UV-I 0 W/m² 9,6 °C 12,2 °C 9,7 km/h (2 Bft)
26.04.2018 01:44 12,2 °C 84 % 1012,4 hPa 0,0 mm 2,2 km/h (1 Bft) W-SW 238 ° 0 min 0,000 mm 0,0 UV-I 0 W/m² 9,6 °C 12,2 °C 4,8 km/h (1 Bft)
26.04.2018 01:45 12,3 °C 84 % 1012,4 hPa 0,0 mm 0,4 km/h (0 Bft) W-SW 237 ° 0 min 0,000 mm 0,0 UV-I 0 W/m² 9,7 °C 12,3 °C 1,6 km/h (1 Bft)
26.04.2018 01:46 12,3 °C 84 % 1012,4 hPa 0,0 mm 2,7 km/h (1 Bft) W-SW 247 ° 0 min 0,000 mm 0,0 UV-I 0 W/m² 9,7 °C 12,3 °C 4,8 km/h (1 Bft)
26.04.2018 01:47 12,3 °C 83 % 1012,3 hPa 0,0 mm 2,5 km/h (1 Bft) S-SW 210 ° 0 min 0,000 mm 0,0 UV-I 0 W/m² 9,5 °C 12,3 °C 4,8 km/h (1 Bft)
26.04.2018 01:48 12,3 °C 84 % 1012,4 hPa 0,0 mm 1,9 km/h (1 Bft) W-SW 240 ° 0 min 0,000 mm 0,0 UV-I 0 W/m² 9,7 °C 12,3 °C 4,8 km/h (1 Bft)
26.04.2018 01:49 12,3 °C 83 % 1012,3 hPa 0,0 mm 0,3 km/h (0 Bft) W-SW 240 ° 0 min 0,000 mm 0,0 UV-I 0 W/m² 9,5 °C 12,3 °C 1,6 km/h (1 Bft)
26.04.2018 01:50 12,3 °C 83 % 1012,3 hPa 0,0 mm 0,5 km/h (0 Bft) W-SW 240 ° 0 min 0,000 mm 0,0 UV-I 0 W/m² 9,5 °C 12,3 °C 1,6 km/h (1 Bft)
26.04.2018 01:51 12,3 °C 83 % 1012,4 hPa 0,0 mm 2,7 km/h (1 Bft) W-SW 241 ° 0 min 0,000 mm 0,0 UV-I 0 W/m² 9,5 °C 12,3 °C 4,8 km/h (1 Bft)
26.04.2018 01:52 12,3 °C 83 % 1012,3 hPa 0,0 mm 3,6 km/h (1 Bft) W 262 ° 0 min 0,000 mm 0,0 UV-I 0 W/m² 9,5 °C 12,3 °C 6,4 km/h (2 Bft)
26.04.2018 01:53 12,3 °C 84 % 1012,3 hPa 0,0 mm 4,0 km/h (1 Bft) W-SW 252 ° 0 min 0,000 mm 0,0 UV-I 0 W/m² 9,7 °C 12,3 °C 6,4 km/h (2 Bft)
26.04.2018 01:54 12,2 °C 83 % 1012,3 hPa 0,0 mm 2,5 km/h (1 Bft) W-SW 252 ° 0 min 0,000 mm 0,0 UV-I 0 W/m² 9,4 °C 12,2 °C 3,2 km/h (1 Bft)
26.04.2018 01:55 12,2 °C 83 % 1012,3 hPa 0,0 mm 2,5 km/h (1 Bft) SW 232 ° 0 min 0,000 mm 0,0 UV-I 0 W/m² 9,4 °C 12,2 °C 6,4 km/h (2 Bft)
26.04.2018 01:56 12,2 °C 83 % 1012,3 hPa 0,0 mm 3,1 km/h (1 Bft) SW 232 ° 0 min 0,000 mm 0,0 UV-I 0 W/m² 9,4 °C 12,2 °C 4,8 km/h (1 Bft)
26.04.2018 01:57 12,2 °C 83 % 1012,4 hPa 0,0 mm 2,4 km/h (1 Bft) SW 233 ° 0 min 0,000 mm 0,0 UV-I 0 W/m² 9,4 °C 12,2 °C 4,8 km/h (1 Bft)
26.04.2018 01:58 12,2 °C 84 % 1012,4 hPa 0,0 mm 3,6 km/h (1 Bft) W 264 ° 0 min 0,000 mm 0,0 UV-I 0 W/m² 9,6 °C 12,2 °C 6,4 km/h (2 Bft)
26.04.2018 01:59 12,2 °C 84 % 1012,3 hPa 0,0 mm 3,4 km/h (1 Bft) S-SW 200 ° 0 min 0,000 mm 0,0 UV-I 0 W/m² 9,6 °C 12,2 °C 9,7 km/h (2 Bft)
26.04.2018 02:00 12,1 °C 83 % 1012,4 hPa 0,0 mm 3,4 km/h (1 Bft) W-SW 253 ° 0 min 0,000 mm 0,0 UV-I 0 W/m² 9,3 °C 12,1 °C 8,0 km/h (2 Bft)
26.04.2018 02:01 12,1 °C 83 % 1012,3 hPa 0,0 mm 4,8 km/h (1 Bft) W-SW 248 ° 0 min 0,026 mm 0,0 UV-I 0 W/m² 9,3 °C 12,1 °C 11,3 km/h (2 Bft)
26.04.2018 02:02 12,1 °C 83 % 1012,3 hPa 0,0 mm 4,4 km/h (1 Bft) W-SW 242 ° 0 min 0,000 mm 0,0 UV-I 0 W/m² 9,3 °C 12,1 °C 11,3 km/h (2 Bft)
26.04.2018 02:03 12,1 °C 82 % 1012,3 hPa 0,0 mm 6,0 km/h (2 Bft) SW 230 ° 0 min 0,000 mm 0,0 UV-I 0 W/m² 9,1 °C 12,1 °C 12,9 km/h (3 Bft)
26.04.2018 02:04 12,2 °C 82 % 1012,3 hPa 0,0 mm 3,2 km/h (1 Bft) S-SW 205 ° 0 min 0,000 mm 0,0 UV-I 0 W/m² 9,2 °C 12,2 °C 6,4 km/h (2 Bft)
26.04.2018 02:05 12,2 °C 82 % 1012,2 hPa 0,0 mm 4,6 km/h (1 Bft) SW 216 ° 0 min 0,000 mm 0,0 UV-I 0 W/m² 9,2 °C 12,2 °C 9,7 km/h (2 Bft)
26.04.2018 02:06 12,2 °C 82 % 1012,3 hPa 0,0 mm 4,9 km/h (1 Bft) W-NW 288 ° 0 min 0,000 mm 0,0 UV-I 0 W/m² 9,2 °C 12,2 °C 11,3 km/h (2 Bft)
26.04.2018 02:07 12,2 °C 81 % 1012,3 hPa 0,0 mm 5,4 km/h (1 Bft) W 275 ° 0 min 0,000 mm 0,0 UV-I 0 W/m² 9,0 °C 12,2 °C 9,7 km/h (2 Bft)
26.04.2018 02:08 12,2 °C 82 % 1012,2 hPa 0,0 mm 5,3 km/h (1 Bft) W 275 ° 0 min 0,000 mm 0,0 UV-I 0 W/m² 9,2 °C 12,2 °C 9,7 km/h (2 Bft)
26.04.2018 02:09 12,2 °C 82 % 1012,2 hPa 0,0 mm 2,1 km/h (1 Bft) W 270 ° 0 min 0,000 mm 0,0 UV-I 0 W/m² 9,2 °C 12,2 °C 6,4 km/h (2 Bft)
26.04.2018 02:10 12,2 °C 82 % 1012,2 hPa 0,0 mm 4,9 km/h (1 Bft) SW 230 ° 0 min 0,000 mm 0,0 UV-I 0 W/m² 9,2 °C 12,2 °C 9,7 km/h (2 Bft)
26.04.2018 02:11 12,1 °C 82 % 1012,2 hPa 0,0 mm 5,9 km/h (2 Bft) W 270 ° 0 min 0,000 mm 0,0 UV-I 0 W/m² 9,1 °C 12,1 °C 16,1 km/h (3 Bft)
26.04.2018 02:12 12,1 °C 82 % 1012,1 hPa 0,0 mm 8,5 km/h (2 Bft) W 259 ° 0 min 0,000 mm 0,0 UV-I 0 W/m² 9,1 °C 12,1 °C 17,7 km/h (3 Bft)
26.04.2018 02:13 12,1 °C 82 % 1012,2 hPa 0,0 mm 5,0 km/h (1 Bft) SW 225 ° 0 min 0,000 mm 0,0 UV-I 0 W/m² 9,1 °C 12,1 °C 8,0 km/h (2 Bft)
26.04.2018 02:14 12,1 °C 81 % 1012,2 hPa 0,0 mm 3,8 km/h (1 Bft) W-SW 242 ° 0 min 0,000 mm 0,0 UV-I 0 W/m² 8,9 °C 12,1 °C 11,3 km/h (2 Bft)
26.04.2018 02:15 12,1 °C 81 % 1012,2 hPa 0,0 mm 4,9 km/h (1 Bft) W 263 ° 0 min 0,000 mm 0,0 UV-I 0 W/m² 8,9 °C 12,1 °C 6,4 km/h (2 Bft)
26.04.2018 02:16 12,2 °C 81 % 1012,3 hPa 0,0 mm 3,6 km/h (1 Bft) W-SW 237 ° 0 min 0,000 mm 0,0 UV-I 0 W/m² 9,0 °C 12,2 °C 6,4 km/h (2 Bft)
26.04.2018 02:17 12,1 °C 82 % 1012,3 hPa 0,0 mm 3,3 km/h (1 Bft) SW 223 ° 0 min 0,000 mm 0,0 UV-I 0 W/m² 9,1 °C 12,1 °C 6,4 km/h (2 Bft)
26.04.2018 02:18 12,1 °C 81 % 1012,3 hPa 0,0 mm 7,4 km/h (2 Bft) W 266 ° 0 min 0,000 mm 0,0 UV-I 0 W/m² 8,9 °C 12,1 °C 19,3 km/h (3 Bft)
26.04.2018 02:19 12,1 °C 81 % 1012,3 hPa 0,0 mm 8,9 km/h (2 Bft) W-SW 248 ° 0 min 0,000 mm 0,0 UV-I 0 W/m² 8,9 °C 12,1 °C 14,5 km/h (3 Bft)
26.04.2018 02:20 12,1 °C 82 % 1012,3 hPa 0,0 mm 3,4 km/h (1 Bft) W 261 ° 0 min 0,000 mm 0,0 UV-I 0 W/m² 9,1 °C 12,1 °C 8,0 km/h (2 Bft)
26.04.2018 02:21 12,0 °C 82 % 1012,4 hPa 0,0 mm 5,6 km/h (1 Bft) W 267 ° 0 min 0,000 mm 0,0 UV-I 0 W/m² 9,0 °C 12,0 °C 11,3 km/h (2 Bft)
26.04.2018 02:22 11,9 °C 82 % 1012,4 hPa 0,0 mm 8,8 km/h (2 Bft) SW 232 ° 0 min 0,000 mm 0,0 UV-I 0 W/m² 8,9 °C 11,9 °C 12,9 km/h (3 Bft)
26.04.2018 02:23 11,9 °C 82 % 1012,4 hPa 0,0 mm 9,2 km/h (2 Bft) W-SW 249 ° 0 min 0,000 mm 0,0 UV-I 0 W/m² 8,9 °C 11,9 °C 12,9 km/h (3 Bft)
26.04.2018 02:24 11,9 °C 81 % 1012,4 hPa 0,0 mm 7,0 km/h (2 Bft) W 263 ° 0 min 0,000 mm 0,0 UV-I 0 W/m² 8,7 °C 11,9 °C 17,7 km/h (3 Bft)
26.04.2018 02:25 11,8 °C 82 % 1012,4 hPa 0,0 mm 8,0 km/h (2 Bft) SW 215 ° 0 min 0,000 mm 0,0 UV-I 0 W/m² 8,8 °C 11,8 °C 17,7 km/h (3 Bft)
26.04.2018 02:26 11,8 °C 82 % 1012,3 hPa 0,0 mm 6,3 km/h (2 Bft) W 270 ° 0 min 0,000 mm 0,0 UV-I 0 W/m² 8,8 °C 11,8 °C 11,3 km/h (2 Bft)
26.04.2018 02:27 11,8 °C 82 % 1012,4 hPa 0,0 mm 6,0 km/h (2 Bft) W-SW 239 ° 0 min 0,000 mm 0,0 UV-I 0 W/m² 8,8 °C 11,8 °C 11,3 km/h (2 Bft)
26.04.2018 02:28 11,7 °C 82 % 1012,4 hPa 0,0 mm 10,4 km/h (2 Bft) W-SW 240 ° 0 min 0,000 mm 0,0 UV-I 0 W/m² 8,7 °C 11,7 °C 16,1 km/h (3 Bft)
26.04.2018 02:29 11,7 °C 82 % 1012,4 hPa 0,0 mm 8,2 km/h (2 Bft) W-SW 248 ° 0 min 0,000 mm 0,0 UV-I 0 W/m² 8,7 °C 11,7 °C 19,3 km/h (3 Bft)
26.04.2018 02:30 11,6 °C 82 % 1012,4 hPa 0,0 mm 6,4 km/h (2 Bft) W-SW 254 ° 0 min 0,000 mm 0,0 UV-I 0 W/m² 8,6 °C 11,6 °C 11,3 km/h (2 Bft)
26.04.2018 02:31 11,6 °C 82 % 1012,3 hPa 0,0 mm 6,6 km/h (2 Bft) W-SW 250 ° 0 min 0,000 mm 0,0 UV-I 0 W/m² 8,6 °C 11,6 °C 11,3 km/h (2 Bft)
26.04.2018 02:32 11,5 °C 83 % 1012,3 hPa 0,0 mm 3,9 km/h (1 Bft) SW 221 ° 0 min 0,000 mm 0,0 UV-I 0 W/m² 8,7 °C 11,5 °C 8,0 km/h (2 Bft)
26.04.2018 02:33 11,5 °C 83 % 1012,4 hPa 0,2 mm 8,0 km/h (2 Bft) SW 236 ° 0 min 0,000 mm 0,0 UV-I 0 W/m² 8,7 °C 11,5 °C 12,9 km/h (3 Bft)
26.04.2018 02:34 11,4 °C 83 % 1012,4 hPa 0,0 mm 5,4 km/h (1 Bft) W-NW 284 ° 0 min 0,000 mm 0,0 UV-I 0 W/m² 8,6 °C 11,4 °C 9,7 km/h (2 Bft)
26.04.2018 02:35 11,4 °C 83 % 1012,3 hPa 0,0 mm 10,6 km/h (2 Bft) W 269 ° 0 min 0,000 mm 0,0 UV-I 0 W/m² 8,6 °C 11,4 °C 17,7 km/h (3 Bft)
26.04.2018 02:36 11,3 °C 83 % 1012,3 hPa 0,0 mm 3,6 km/h (1 Bft) W-NW 292 ° 0 min 0,000 mm 0,0 UV-I 0 W/m² 8,5 °C 11,3 °C 6,4 km/h (2 Bft)
26.04.2018 02:37 11,3 °C 83 % 1012,3 hPa 0,0 mm 10,2 km/h (2 Bft) W-SW 252 ° 0 min 0,000 mm 0,0 UV-I 0 W/m² 8,5 °C 11,3 °C 17,7 km/h (3 Bft)
26.04.2018 02:38 11,2 °C 83 % 1012,3 hPa 0,0 mm 8,7 km/h (2 Bft) SW 226 ° 0 min 0,000 mm 0,0 UV-I 0 W/m² 8,4 °C 11,2 °C 16,1 km/h (3 Bft)
26.04.2018 02:39 11,2 °C 83 % 1012,3 hPa 0,0 mm 5,8 km/h (2 Bft) W-SW 251 ° 0 min 0,000 mm 0,0 UV-I 0 W/m² 8,4 °C 11,2 °C 11,3 km/h (2 Bft)
26.04.2018 02:40 11,1 °C 84 % 1012,4 hPa 0,0 mm 5,6 km/h (1 Bft) SW 234 ° 0 min 0,000 mm 0,0 UV-I 0 W/m² 8,5 °C 11,1 °C 9,7 km/h (2 Bft)
26.04.2018 02:41 11,1 °C 84 % 1012,4 hPa 0,0 mm 10,1 km/h (2 Bft) S-SW 200 ° 0 min 0,000 mm 0,0 UV-I 0 W/m² 8,5 °C 11,1 °C 16,1 km/h (3 Bft)
26.04.2018 02:42 11,0 °C 85 % 1012,4 hPa 0,0 mm 8,1 km/h (2 Bft) SW 221 ° 0 min 0,000 mm 0,0 UV-I 0 W/m² 8,6 °C 11,0 °C 14,5 km/h (3 Bft)
26.04.2018 02:43 10,9 °C 85 % 1012,4 hPa 0,0 mm 4,5 km/h (1 Bft) W 261 ° 0 min 0,000 mm 0,0 UV-I 0 W/m² 8,5 °C 10,9 °C 12,9 km/h (3 Bft)
26.04.2018 02:44 10,9 °C 85 % 1012,4 hPa 0,0 mm 4,3 km/h (1 Bft) W 268 ° 0 min 0,000 mm 0,0 UV-I 0 W/m² 8,5 °C 10,9 °C 6,4 km/h (2 Bft)
26.04.2018 02:45 10,8 °C 86 % 1012,4 hPa 0,0 mm 6,7 km/h (2 Bft) W 274 ° 0 min 0,000 mm 0,0 UV-I 0 W/m² 8,6 °C 10,8 °C 9,7 km/h (2 Bft)
26.04.2018 02:46 10,8 °C 86 % 1012,4 hPa 0,2 mm 6,0 km/h (2 Bft) W-SW 239 ° 0 min 0,000 mm 0,0 UV-I 0 W/m² 8,6 °C 10,8 °C 9,7 km/h (2 Bft)
26.04.2018 02:47 10,8 °C 86 % 1012,3 hPa 0,0 mm 3,9 km/h (1 Bft) W-SW 242 ° 0 min 0,000 mm 0,0 UV-I 0 W/m² 8,6 °C 10,8 °C 4,8 km/h (1 Bft)
26.04.2018 02:48 10,7 °C 85 % 1012,3 hPa 0,0 mm 0,9 km/h (0 Bft) W-SW 242 ° 0 min 0,000 mm 0,0 UV-I 0 W/m² 8,3 °C 10,7 °C 3,2 km/h (1 Bft)
26.04.2018 02:49 10,7 °C 86 % 1012,4 hPa 0,0 mm 6,8 km/h (2 Bft) W-SW 238 ° 0 min 0,000 mm 0,0 UV-I 0 W/m² 8,5 °C 10,7 °C 12,9 km/h (3 Bft)
26.04.2018 02:50 10,7 °C 86 % 1012,4 hPa 0,0 mm 6,8 km/h (2 Bft) W-SW 250 ° 0 min 0,000 mm 0,0 UV-I 0 W/m² 8,5 °C 10,7 °C 14,5 km/h (3 Bft)
26.04.2018 02:51 10,7 °C 86 % 1012,5 hPa 0,0 mm 3,8 km/h (1 Bft) W-SW 255 ° 0 min 0,000 mm 0,0 UV-I 0 W/m² 8,5 °C 10,7 °C 9,7 km/h (2 Bft)
26.04.2018 02:52 10,7 °C 86 % 1012,5 hPa 0,0 mm 4,2 km/h (1 Bft) W 272 ° 0 min 0,000 mm 0,0 UV-I 0 W/m² 8,5 °C 10,7 °C 9,7 km/h (2 Bft)
26.04.2018 02:53 10,7 °C 86 % 1012,5 hPa 0,0 mm 1,9 km/h (1 Bft) W 270 ° 0 min 0,000 mm 0,0 UV-I 0 W/m² 8,5 °C 10,7 °C 4,8 km/h (1 Bft)
26.04.2018 02:54 10,6 °C 86 % 1012,5 hPa 0,0 mm 4,6 km/h (1 Bft) W 261 ° 0 min 0,000 mm 0,0 UV-I 0 W/m² 8,4 °C 10,6 °C 9,7 km/h (2 Bft)
26.04.2018 02:55 10,7 °C 86 % 1012,5 hPa 0,0 mm 4,2 km/h (1 Bft) W 267 ° 0 min 0,000 mm 0,0 UV-I 0 W/m² 8,5 °C 10,7 °C 6,4 km/h (2 Bft)
26.04.2018 02:56 10,6 °C 86 % 1012,4 hPa 0,0 mm 1,4 km/h (1 Bft) W-SW 257 ° 0 min 0,000 mm 0,0 UV-I 0 W/m² 8,4 °C 10,6 °C 3,2 km/h (1 Bft)
26.04.2018 02:57 10,6 °C 86 % 1012,4 hPa 0,0 mm 2,0 km/h (1 Bft) W-SW 254 ° 0 min 0,000 mm 0,0 UV-I 0 W/m² 8,4 °C 10,6 °C 3,2 km/h (1 Bft)
26.04.2018 02:58 10,6 °C 87 % 1012,4 hPa 0,0 mm 3,7 km/h (1 Bft) W 260 ° 0 min 0,000 mm 0,0 UV-I 0 W/m² 8,5 °C 10,6 °C 6,4 km/h (2 Bft)
26.04.2018 02:59 10,6 °C 86 % 1012,4 hPa 0,0 mm 1,7 km/h (1 Bft) W 260 ° 0 min 0,000 mm 0,0 UV-I 0 W/m² 8,4 °C 10,6 °C 6,4 km/h (2 Bft)
26.04.2018 03:00 10,6 °C 87 % 1012,4 hPa 0,0 mm 1,7 km/h (1 Bft) W 261 ° 0 min 0,025 mm 0,0 UV-I 0 W/m² 8,5 °C 10,6 °C 4,8 km/h (1 Bft)
26.04.2018 03:01 10,6 °C 86 % 1012,4 hPa 0,0 mm 0,9 km/h (0 Bft) W 261 ° 0 min 0,000 mm 0,0 UV-I 0 W/m² 8,4 °C 10,6 °C 4,8 km/h (1 Bft)
26.04.2018 03:02 10,5 °C 86 % 1012,4 hPa 0,0 mm 2,8 km/h (1 Bft) W-SW 244 ° 0 min 0,000 mm 0,0 UV-I 0 W/m² 8,3 °C 10,5 °C 4,8 km/h (1 Bft)
26.04.2018 03:03 10,6 °C 86 % 1012,3 hPa 0,0 mm 0,9 km/h (0 Bft) W-SW 244 ° 0 min 0,000 mm 0,0 UV-I 0 W/m² 8,4 °C 10,6 °C 3,2 km/h (1 Bft)
26.04.2018 03:04 10,6 °C 86 % 1012,3 hPa 0,0 mm 0,0 km/h (0 Bft) W-SW 244 ° 0 min 0,000 mm 0,0 UV-I 0 W/m² 8,4 °C 10,6 °C 0,0 km/h (0 Bft)
26.04.2018 03:05 10,5 °C 86 % 1012,4 hPa 0,0 mm 0,0 km/h (0 Bft) W-SW 244 ° 0 min 0,000 mm 0,0 UV-I 0 W/m² 8,3 °C 10,5 °C 0,0 km/h (0 Bft)
26.04.2018 03:06 10,5 °C 87 % 1012,4 hPa 0,0 mm 0,0 km/h (0 Bft) W-SW 244 ° 0 min 0,000 mm 0,0 UV-I 0 W/m² 8,4 °C 10,5 °C 0,0 km/h (0 Bft)
26.04.2018 03:07 10,5 °C 87 % 1012,4 hPa 0,0 mm 0,3 km/h (0 Bft) W-SW 244 ° 0 min 0,000 mm 0,0 UV-I 0 W/m² 8,4 °C 10,5 °C 1,6 km/h (1 Bft)
26.04.2018 03:08 10,5 °C 87 % 1012,4 hPa 0,0 mm 0,9 km/h (0 Bft) W-SW 244 ° 0 min 0,000 mm 0,0 UV-I 0 W/m² 8,4 °C 10,5 °C 1,6 km/h (1 Bft)
26.04.2018 03:09 10,5 °C 87 % 1012,5 hPa 0,0 mm 0,6 km/h (0 Bft) W-SW 247 ° 0 min 0,000 mm 0,0 UV-I 0 W/m² 8,4 °C 10,5 °C 3,2 km/h (1 Bft)
26.04.2018 03:10 10,5 °C 87 % 1012,5 hPa 0,0 mm 0,0 km/h (0 Bft) W-SW 247 ° 0 min 0,000 mm 0,0 UV-I 0 W/m² 8,4 °C 10,5 °C 0,0 km/h (0 Bft)
26.04.2018 03:11 10,6 °C 86 % 1012,5 hPa 0,0 mm 0,0 km/h (0 Bft) W-SW 247 ° 0 min 0,000 mm 0,0 UV-I 0 W/m² 8,4 °C 10,6 °C 0,0 km/h (0 Bft)
26.04.2018 03:12 10,5 °C 86 % 1012,5 hPa 0,0 mm 0,0 km/h (0 Bft) W-SW 247 ° 0 min 0,000 mm 0,0 UV-I 0 W/m² 8,3 °C 10,5 °C 0,0 km/h (0 Bft)
26.04.2018 03:13 10,6 °C 86 % 1012,5 hPa 0,0 mm 2,2 km/h (1 Bft) SW 230 ° 0 min 0,000 mm 0,0 UV-I 0 W/m² 8,4 °C 10,6 °C 6,4 km/h (2 Bft)
26.04.2018 03:14 10,6 °C 86 % 1012,5 hPa 0,0 mm 0,5 km/h (0 Bft) SW 230 ° 0 min 0,000 mm 0,0 UV-I 0 W/m² 8,4 °C 10,6 °C 3,2 km/h (1 Bft)
26.04.2018 03:15 10,6 °C 86 % 1012,5 hPa 0,0 mm 2,4 km/h (1 Bft) W-SW 240 ° 0 min 0,000 mm 0,0 UV-I 0 W/m² 8,4 °C 10,6 °C 4,8 km/h (1 Bft)
26.04.2018 03:16 10,6 °C 86 % 1012,5 hPa 0,0 mm 2,3 km/h (1 Bft) W-SW 243 ° 0 min 0,000 mm 0,0 UV-I 0 W/m² 8,4 °C 10,6 °C 3,2 km/h (1 Bft)
26.04.2018 03:17 10,6 °C 86 % 1012,5 hPa 0,0 mm 0,9 km/h (0 Bft) W-SW 243 ° 0 min 0,000 mm 0,0 UV-I 0 W/m² 8,4 °C 10,6 °C 3,2 km/h (1 Bft)
26.04.2018 03:18 10,6 °C 85 % 1012,5 hPa 0,0 mm 1,8 km/h (1 Bft) W-SW 243 ° 0 min 0,000 mm 0,0 UV-I 0 W/m² 8,2 °C 10,6 °C 4,8 km/h (1 Bft)
26.04.2018 03:19 10,6 °C 85 % 1012,5 hPa 0,0 mm 0,9 km/h (0 Bft) W-SW 243 ° 0 min 0,000 mm 0,0 UV-I 0 W/m² 8,2 °C 10,6 °C 3,2 km/h (1 Bft)
26.04.2018 03:20 10,6 °C 85 % 1012,5 hPa 0,0 mm 6,0 km/h (2 Bft) W 265 ° 0 min 0,000 mm 0,0 UV-I 0 W/m² 8,2 °C 10,6 °C 9,7 km/h (2 Bft)
26.04.2018 03:21 10,6 °C 85 % 1012,5 hPa 0,0 mm 2,8 km/h (1 Bft) W 265 ° 0 min 0,000 mm 0,0 UV-I 0 W/m² 8,2 °C 10,6 °C 4,8 km/h (1 Bft)
26.04.2018 03:22 10,6 °C 85 % 1012,6 hPa 0,0 mm 3,7 km/h (1 Bft) W-SW 250 ° 0 min 0,000 mm 0,0 UV-I 0 W/m² 8,2 °C 10,6 °C 6,4 km/h (2 Bft)
26.04.2018 03:23 10,6 °C 85 % 1012,6 hPa 0,0 mm 4,1 km/h (1 Bft) W-SW 257 ° 0 min 0,000 mm 0,0 UV-I 0 W/m² 8,2 °C 10,6 °C 6,4 km/h (2 Bft)
26.04.2018 03:24 10,6 °C 85 % 1012,6 hPa 0,0 mm 4,6 km/h (1 Bft) W-SW 257 ° 0 min 0,000 mm 0,0 UV-I 0 W/m² 8,2 °C 10,6 °C 6,4 km/h (2 Bft)
26.04.2018 03:25 10,6 °C 85 % 1012,6 hPa 0,0 mm 3,3 km/h (1 Bft) W-SW 257 ° 0 min 0,000 mm 0,0 UV-I 0 W/m² 8,2 °C 10,6 °C 6,4 km/h (2 Bft)
26.04.2018 03:26 10,6 °C 85 % 1012,6 hPa 0,0 mm 3,6 km/h (1 Bft) W 262 ° 0 min 0,000 mm 0,0 UV-I 0 W/m² 8,2 °C 10,6 °C 6,4 km/h (2 Bft)
26.04.2018 03:27 10,6 °C 85 % 1012,6 hPa 0,0 mm 3,9 km/h (1 Bft) W 271 ° 0 min 0,000 mm 0,0 UV-I 0 W/m² 8,2 °C 10,6 °C 6,4 km/h (2 Bft)
26.04.2018 03:28 10,6 °C 85 % 1012,6 hPa 0,0 mm 5,8 km/h (2 Bft) W 267 ° 0 min 0,000 mm 0,0 UV-I 0 W/m² 8,2 °C 10,6 °C 9,7 km/h (2 Bft)
26.04.2018 03:29 10,6 °C 85 % 1012,6 hPa 0,0 mm 4,6 km/h (1 Bft) SW 236 ° 0 min 0,000 mm 0,0 UV-I 0 W/m² 8,2 °C 10,6 °C 9,7 km/h (2 Bft)
26.04.2018 03:30 10,5 °C 86 % 1012,7 hPa 0,0 mm 3,3 km/h (1 Bft) W-SW 250 ° 0 min 0,000 mm 0,0 UV-I 0 W/m² 8,3 °C 10,5 °C 6,4 km/h (2 Bft)
26.04.2018 03:31 10,5 °C 86 % 1012,7 hPa 0,0 mm 4,8 km/h (1 Bft) W 263 ° 0 min 0,000 mm 0,0 UV-I 0 W/m² 8,3 °C 10,5 °C 8,0 km/h (2 Bft)
26.04.2018 03:32 10,5 °C 86 % 1012,7 hPa 0,0 mm 5,7 km/h (1 Bft) W-SW 246 ° 0 min 0,000 mm 0,0 UV-I 0 W/m² 8,3 °C 10,5 °C 16,1 km/h (3 Bft)
26.04.2018 03:33 10,5 °C 86 % 1012,7 hPa 0,0 mm 4,4 km/h (1 Bft) W-SW 242 ° 0 min 0,000 mm 0,0 UV-I 0 W/m² 8,3 °C 10,5 °C 12,9 km/h (3 Bft)
26.04.2018 03:34 10,4 °C 86 % 1012,7 hPa 0,0 mm 3,0 km/h (1 Bft) S-SW 204 ° 0 min 0,000 mm 0,0 UV-I 0 W/m² 8,2 °C 10,4 °C 4,8 km/h (1 Bft)
26.04.2018 03:35 10,4 °C 86 % 1012,7 hPa 0,0 mm 3,4 km/h (1 Bft) W 272 ° 0 min 0,000 mm 0,0 UV-I 0 W/m² 8,2 °C 10,4 °C 6,4 km/h (2 Bft)
26.04.2018 03:36 10,4 °C 86 % 1012,7 hPa 0,0 mm 5,0 km/h (1 Bft) W-SW 244 ° 0 min 0,000 mm 0,0 UV-I 0 W/m² 8,2 °C 10,4 °C 9,7 km/h (2 Bft)
26.04.2018 03:37 10,4 °C 86 % 1012,8 hPa 0,0 mm 7,9 km/h (2 Bft) W 270 ° 0 min 0,000 mm 0,0 UV-I 0 W/m² 8,2 °C 10,4 °C 14,5 km/h (3 Bft)
26.04.2018 03:38 10,4 °C 86 % 1012,7 hPa 0,0 mm 4,0 km/h (1 Bft) W 259 ° 0 min 0,000 mm 0,0 UV-I 0 W/m² 8,2 °C 10,4 °C 9,7 km/h (2 Bft)
26.04.2018 03:39 10,4 °C 86 % 1012,7 hPa 0,0 mm 6,2 km/h (2 Bft) W-SW 252 ° 0 min 0,000 mm 0,0 UV-I 0 W/m² 8,2 °C 10,4 °C 11,3 km/h (2 Bft)
26.04.2018 03:40 10,4 °C 86 % 1012,7 hPa 0,0 mm 9,1 km/h (2 Bft) W-SW 244 ° 0 min 0,000 mm 0,0 UV-I 0 W/m² 8,2 °C 10,4 °C 16,1 km/h (3 Bft)
26.04.2018 03:41 10,4 °C 86 % 1012,7 hPa 0,0 mm 7,2 km/h (2 Bft) W-SW 248 ° 0 min 0,000 mm 0,0 UV-I 0 W/m² 8,2 °C 10,4 °C 16,1 km/h (3 Bft)
26.04.2018 03:42 10,4 °C 85 % 1012,7 hPa 0,0 mm 7,7 km/h (2 Bft) W 275 ° 0 min 0,000 mm 0,0 UV-I 0 W/m² 8,0 °C 10,4 °C 11,3 km/h (2 Bft)
26.04.2018 03:43 10,4 °C 86 % 1012,7 hPa 0,0 mm 5,4 km/h (1 Bft) W-SW 258 ° 0 min 0,000 mm 0,0 UV-I 0 W/m² 8,2 °C 10,4 °C 9,7 km/h (2 Bft)
26.04.2018 03:44 10,3 °C 86 % 1012,7 hPa 0,0 mm 7,6 km/h (2 Bft) S 186 ° 0 min 0,000 mm 0,0 UV-I 0 W/m² 8,1 °C 10,3 °C 12,9 km/h (3 Bft)
26.04.2018 03:45 10,3 °C 85 % 1012,6 hPa 0,0 mm 6,2 km/h (2 Bft) S-SO 152 ° 0 min 0,000 mm 0,0 UV-I 0 W/m² 7,9 °C 10,3 °C 19,3 km/h (3 Bft)
26.04.2018 03:46 10,3 °C 85 % 1012,6 hPa 0,0 mm 7,3 km/h (2 Bft) W 259 ° 0 min 0,000 mm 0,0 UV-I 0 W/m² 7,9 °C 10,3 °C 12,9 km/h (3 Bft)
26.04.2018 03:47 10,3 °C 85 % 1012,6 hPa 0,0 mm 9,8 km/h (2 Bft) W 266 ° 0 min 0,000 mm 0,0 UV-I 0 W/m² 7,9 °C 10,3 °C 16,1 km/h (3 Bft)
26.04.2018 03:48 10,3 °C 85 % 1012,6 hPa 0,0 mm 7,9 km/h (2 Bft) W-SW 251 ° 0 min 0,000 mm 0,0 UV-I 0 W/m² 7,9 °C 10,3 °C 12,9 km/h (3 Bft)
26.04.2018 03:49 10,3 °C 85 % 1012,6 hPa 0,0 mm 12,1 km/h (2 Bft) W 275 ° 0 min 0,000 mm 0,0 UV-I 0 W/m² 7,9 °C 10,3 °C 19,3 km/h (3 Bft)
26.04.2018 03:50 10,3 °C 85 % 1012,6 hPa 0,0 mm 5,0 km/h (1 Bft) W 259 ° 0 min 0,000 mm 0,0 UV-I 0 W/m² 7,9 °C 10,3 °C 11,3 km/h (2 Bft)
26.04.2018 03:51 10,3 °C 85 % 1012,6 hPa 0,0 mm 9,5 km/h (2 Bft) SW 223 ° 0 min 0,000 mm 0,0 UV-I 0 W/m² 7,9 °C 10,3 °C 16,1 km/h (3 Bft)
26.04.2018 03:52 10,3 °C 85 % 1012,6 hPa 0,0 mm 5,7 km/h (1 Bft) W-SW 250 ° 0 min 0,000 mm 0,0 UV-I 0 W/m² 7,9 °C 10,3 °C 9,7 km/h (2 Bft)
26.04.2018 03:53 10,3 °C 85 % 1012,6 hPa 0,0 mm 3,3 km/h (1 Bft) NW 307 ° 0 min 0,000 mm 0,0 UV-I 0 W/m² 7,9 °C 10,3 °C 6,4 km/h (2 Bft)
26.04.2018 03:54 10,3 °C 85 % 1012,6 hPa 0,0 mm 7,0 km/h (2 Bft) SW 234 ° 0 min 0,000 mm 0,0 UV-I 0 W/m² 7,9 °C 10,3 °C 11,3 km/h (2 Bft)
26.04.2018 03:55 10,3 °C 84 % 1012,6 hPa 0,0 mm 9,5 km/h (2 Bft) W-NW 282 ° 0 min 0,000 mm 0,0 UV-I 0 W/m² 7,7 °C 10,3 °C 16,1 km/h (3 Bft)
26.04.2018 03:56 10,3 °C 85 % 1012,6 hPa 0,2 mm 8,0 km/h (2 Bft) W 281 ° 0 min 0,000 mm 0,0 UV-I 0 W/m² 7,9 °C 10,3 °C 12,9 km/h (3 Bft)
26.04.2018 03:57 10,3 °C 85 % 1012,6 hPa 0,0 mm 7,7 km/h (2 Bft) W-NW 298 ° 0 min 0,000 mm 0,0 UV-I 0 W/m² 7,9 °C 10,3 °C 11,3 km/h (2 Bft)
26.04.2018 03:58 10,3 °C 85 % 1012,6 hPa 0,0 mm 8,6 km/h (2 Bft) W 261 ° 0 min 0,000 mm 0,0 UV-I 0 W/m² 7,9 °C 10,3 °C 12,9 km/h (3 Bft)
26.04.2018 03:59 10,2 °C 85 % 1012,6 hPa 0,0 mm 10,6 km/h (2 Bft) W 275 ° 0 min 0,000 mm 0,0 UV-I 0 W/m² 7,8 °C 10,2 °C 14,5 km/h (3 Bft)
26.04.2018 04:00 10,2 °C 86 % 1012,6 hPa 0,0 mm 9,4 km/h (2 Bft) W 271 ° 0 min 0,026 mm 0,0 UV-I 0 W/m² 8,0 °C 10,2 °C 14,5 km/h (3 Bft)
26.04.2018 04:01 10,1 °C 86 % 1012,6 hPa 0,0 mm 9,3 km/h (2 Bft) W 263 ° 0 min 0,000 mm 0,0 UV-I 0 W/m² 7,9 °C 10,1 °C 14,5 km/h (3 Bft)
26.04.2018 04:02 10,1 °C 86 % 1012,6 hPa 0,0 mm 8,7 km/h (2 Bft) W-SW 256 ° 0 min 0,000 mm 0,0 UV-I 0 W/m² 7,9 °C 10,1 °C 16,1 km/h (3 Bft)
26.04.2018 04:03 10,1 °C 86 % 1012,6 hPa 0,0 mm 7,6 km/h (2 Bft) W 277 ° 0 min 0,000 mm 0,0 UV-I 0 W/m² 7,9 °C 10,1 °C 11,3 km/h (2 Bft)
26.04.2018 04:04 10,0 °C 86 % 1012,6 hPa 0,0 mm 12,1 km/h (2 Bft) W-SW 257 ° 0 min 0,000 mm 0,0 UV-I 0 W/m² 7,8 °C 8,3 °C 17,7 km/h (3 Bft)
26.04.2018 04:05 10,0 °C 86 % 1012,6 hPa 0,0 mm 6,8 km/h (2 Bft) W-SW 258 ° 0 min 0,000 mm 0,0 UV-I 0 W/m² 7,8 °C 9,3 °C 9,7 km/h (2 Bft)
26.04.2018 04:06 10,0 °C 86 % 1012,6 hPa 0,0 mm 10,5 km/h (2 Bft) W 268 ° 0 min 0,000 mm 0,0 UV-I 0 W/m² 7,8 °C 8,5 °C 16,1 km/h (3 Bft)
26.04.2018 04:07 10,0 °C 86 % 1012,6 hPa 0,0 mm 10,8 km/h (2 Bft) W 264 ° 0 min 0,000 mm 0,0 UV-I 0 W/m² 7,8 °C 8,5 °C 19,3 km/h (3 Bft)
26.04.2018 04:08 9,9 °C 86 % 1012,6 hPa 0,0 mm 8,8 km/h (2 Bft) W 261 ° 0 min 0,000 mm 0,0 UV-I 0 W/m² 7,7 °C 8,7 °C 14,5 km/h (3 Bft)
26.04.2018 04:09 9,9 °C 86 % 1012,6 hPa 0,0 mm 11,0 km/h (2 Bft) W 268 ° 0 min 0,000 mm 0,0 UV-I 0 W/m² 7,7 °C 8,3 °C 17,7 km/h (3 Bft)
26.04.2018 04:10 9,9 °C 86 % 1012,6 hPa 0,0 mm 14,6 km/h (3 Bft) W-SW 243 ° 0 min 0,000 mm 0,0 UV-I 0 W/m² 7,7 °C 7,8 °C 20,9 km/h (4 Bft)
26.04.2018 04:11 9,9 °C 85 % 1012,7 hPa 0,0 mm 8,5 km/h (2 Bft) W 278 ° 0 min 0,000 mm 0,0 UV-I 0 W/m² 7,5 °C 8,8 °C 14,5 km/h (3 Bft)
26.04.2018 04:12 9,9 °C 86 % 1012,7 hPa 0,0 mm 13,7 km/h (3 Bft) W 267 ° 0 min 0,000 mm 0,0 UV-I 0 W/m² 7,7 °C 8,0 °C 19,3 km/h (3 Bft)
26.04.2018 04:13 9,9 °C 85 % 1012,7 hPa 0,0 mm 9,8 km/h (2 Bft) W 279 ° 0 min 0,000 mm 0,0 UV-I 0 W/m² 7,5 °C 8,5 °C 12,9 km/h (3 Bft)
26.04.2018 04:14 10,0 °C 86 % 1012,7 hPa 0,0 mm 14,6 km/h (3 Bft) W 275 ° 0 min 0,000 mm 0,0 UV-I 0 W/m² 7,8 °C 8,0 °C 20,9 km/h (4 Bft)
26.04.2018 04:15 10,0 °C 85 % 1012,7 hPa 0,0 mm 6,9 km/h (2 Bft) W 273 ° 0 min 0,000 mm 0,0 UV-I 0 W/m² 7,6 °C 9,2 °C 11,3 km/h (2 Bft)
26.04.2018 04:16 10,1 °C 85 % 1012,7 hPa 0,0 mm 13,0 km/h (3 Bft) W 277 ° 0 min 0,000 mm 0,0 UV-I 0 W/m² 7,7 °C 10,1 °C 19,3 km/h (3 Bft)
26.04.2018 04:17 10,1 °C 84 % 1012,8 hPa 0,0 mm 11,3 km/h (2 Bft) W 263 ° 0 min 0,000 mm 0,0 UV-I 0 W/m² 7,5 °C 10,1 °C 14,5 km/h (3 Bft)
26.04.2018 04:18 10,1 °C 85 % 1012,7 hPa 0,0 mm 6,4 km/h (2 Bft) W 273 ° 0 min 0,000 mm 0,0 UV-I 0 W/m² 7,7 °C 10,1 °C 11,3 km/h (2 Bft)
26.04.2018 04:19 10,1 °C 85 % 1012,7 hPa 0,0 mm 9,8 km/h (2 Bft) W 275 ° 0 min 0,000 mm 0,0 UV-I 0 W/m² 7,7 °C 10,1 °C 14,5 km/h (3 Bft)
26.04.2018 04:20 10,0 °C 85 % 1012,7 hPa 0,0 mm 6,2 km/h (2 Bft) W-SW 245 ° 0 min 0,000 mm 0,0 UV-I 0 W/m² 7,6 °C 9,4 °C 8,0 km/h (2 Bft)
26.04.2018 04:21 10,0 °C 85 % 1012,7 hPa 0,0 mm 7,3 km/h (2 Bft) W-SW 255 ° 0 min 0,000 mm 0,0 UV-I 0 W/m² 7,6 °C 9,2 °C 14,5 km/h (3 Bft)
26.04.2018 04:22 9,9 °C 85 % 1012,7 hPa 0,0 mm 7,2 km/h (2 Bft) W-SW 257 ° 0 min 0,000 mm 0,0 UV-I 0 W/m² 7,5 °C 9,1 °C 11,3 km/h (2 Bft)
26.04.2018 04:23 9,9 °C 86 % 1012,7 hPa 0,0 mm 9,2 km/h (2 Bft) W-SW 250 ° 0 min 0,000 mm 0,0 UV-I 0 W/m² 7,7 °C 8,7 °C 11,3 km/h (2 Bft)
26.04.2018 04:24 9,9 °C 86 % 1012,6 hPa 0,0 mm 8,2 km/h (2 Bft) W-SW 251 ° 0 min 0,000 mm 0,0 UV-I 0 W/m² 7,7 °C 8,8 °C 12,9 km/h (3 Bft)
26.04.2018 04:25 9,8 °C 86 % 1012,7 hPa 0,0 mm 12,3 km/h (3 Bft) W 269 ° 0 min 0,000 mm 0,0 UV-I 0 W/m² 7,6 °C 8,0 °C 16,1 km/h (3 Bft)
26.04.2018 04:26 9,8 °C 86 % 1012,7 hPa 0,2 mm 5,8 km/h (2 Bft) W 265 ° 0 min 0,000 mm 0,0 UV-I 0 W/m² 7,6 °C 9,3 °C 11,3 km/h (2 Bft)
26.04.2018 04:27 9,7 °C 87 % 1012,7 hPa 0,0 mm 8,4 km/h (2 Bft) W 259 ° 0 min 0,000 mm 0,0 UV-I 0 W/m² 7,6 °C 8,6 °C 14,5 km/h (3 Bft)
26.04.2018 04:28 9,7 °C 87 % 1012,8 hPa 0,0 mm 8,5 km/h (2 Bft) W 271 ° 0 min 0,000 mm 0,0 UV-I 0 W/m² 7,6 °C 8,6 °C 14,5 km/h (3 Bft)
26.04.2018 04:29 9,7 °C 87 % 1012,7 hPa 0,0 mm 7,4 km/h (2 Bft) W 263 ° 0 min 0,000 mm 0,0 UV-I 0 W/m² 7,6 °C 8,8 °C 9,7 km/h (2 Bft)
26.04.2018 04:30 9,6 °C 87 % 1012,7 hPa 0,0 mm 9,5 km/h (2 Bft) W 261 ° 0 min 0,000 mm 0,0 UV-I 0 W/m² 7,5 °C 8,2 °C 12,9 km/h (3 Bft)
26.04.2018 04:31 9,6 °C 87 % 1012,8 hPa 0,0 mm 6,0 km/h (2 Bft) W 279 ° 0 min 0,000 mm 0,0 UV-I 0 W/m² 7,5 °C 9,0 °C 11,3 km/h (2 Bft)
26.04.2018 04:32 9,6 °C 87 % 1012,8 hPa 0,0 mm 6,1 km/h (2 Bft) W-SW 254 ° 0 min 0,000 mm 0,0 UV-I 0 W/m² 7,5 °C 9,0 °C 11,3 km/h (2 Bft)
26.04.2018 04:33 9,5 °C 88 % 1012,8 hPa 0,0 mm 12,8 km/h (3 Bft) W 259 ° 0 min 0,000 mm 0,0 UV-I 0 W/m² 7,6 °C 7,6 °C 17,7 km/h (3 Bft)
26.04.2018 04:34 9,4 °C 88 % 1012,7 hPa 0,0 mm 7,8 km/h (2 Bft) W 261 ° 0 min 0,000 mm 0,0 UV-I 0 W/m² 7,5 °C 8,3 °C 11,3 km/h (2 Bft)
26.04.2018 04:35 9,4 °C 88 % 1012,7 hPa 0,0 mm 7,5 km/h (2 Bft) SW 233 ° 0 min 0,000 mm 0,0 UV-I 0 W/m² 7,5 °C 8,4 °C 12,9 km/h (3 Bft)
26.04.2018 04:36 9,4 °C 88 % 1012,7 hPa 0,0 mm 6,4 km/h (2 Bft) W-SW 258 ° 0 min 0,000 mm 0,0 UV-I 0 W/m² 7,5 °C 8,7 °C 14,5 km/h (3 Bft)
26.04.2018 04:37 9,3 °C 88 % 1012,7 hPa 0,0 mm 13,7 km/h (3 Bft) W-SW 256 ° 0 min 0,000 mm 0,0 UV-I 0 W/m² 7,4 °C 7,2 °C 19,3 km/h (3 Bft)
26.04.2018 04:38 9,3 °C 88 % 1012,7 hPa 0,2 mm 6,1 km/h (2 Bft) W 271 ° 0 min 0,000 mm 0,0 UV-I 0 W/m² 7,4 °C 8,6 °C 9,7 km/h (2 Bft)
26.04.2018 04:39 9,3 °C 88 % 1012,7 hPa 0,0 mm 6,4 km/h (2 Bft) W 265 ° 0 min 0,000 mm 0,0 UV-I 0 W/m² 7,4 °C 8,6 °C 12,9 km/h (3 Bft)
26.04.2018 04:40 9,3 °C 88 % 1012,7 hPa 0,0 mm 11,5 km/h (2 Bft) W 274 ° 0 min 0,000 mm 0,0 UV-I 0 W/m² 7,4 °C 7,5 °C 17,7 km/h (3 Bft)
26.04.2018 04:41 9,2 °C 89 % 1012,7 hPa 0,0 mm 5,2 km/h (1 Bft) W-SW 241 ° 0 min 0,000 mm 0,0 UV-I 0 W/m² 7,5 °C 8,8 °C 8,0 km/h (2 Bft)
26.04.2018 04:42 9,2 °C 89 % 1012,7 hPa 0,0 mm 5,8 km/h (2 Bft) W-SW 257 ° 0 min 0,000 mm 0,0 UV-I 0 W/m² 7,5 °C 8,6 °C 11,3 km/h (2 Bft)
26.04.2018 04:43 9,2 °C 89 % 1012,7 hPa 0,0 mm 7,0 km/h (2 Bft) W 259 ° 0 min 0,000 mm 0,0 UV-I 0 W/m² 7,5 °C 8,3 °C 11,3 km/h (2 Bft)
26.04.2018 04:44 9,2 °C 89 % 1012,7 hPa 0,0 mm 5,4 km/h (1 Bft) W-SW 242 ° 0 min 0,000 mm 0,0 UV-I 0 W/m² 7,5 °C 8,7 °C 9,7 km/h (2 Bft)
26.04.2018 04:45 9,2 °C 89 % 1012,7 hPa 0,0 mm 5,3 km/h (1 Bft) W-SW 254 ° 0 min 0,000 mm 0,0 UV-I 0 W/m² 7,5 °C 8,8 °C 8,0 km/h (2 Bft)
26.04.2018 04:46 9,2 °C 89 % 1012,8 hPa 0,0 mm 7,3 km/h (2 Bft) W 267 ° 0 min 0,000 mm 0,0 UV-I 0 W/m² 7,5 °C 8,2 °C 17,7 km/h (3 Bft)
26.04.2018 04:47 9,1 °C 89 % 1012,8 hPa 0,0 mm 10,4 km/h (2 Bft) W 274 ° 0 min 0,000 mm 0,0 UV-I 0 W/m² 7,4 °C 7,5 °C 19,3 km/h (3 Bft)
26.04.2018 04:48 9,1 °C 89 % 1012,8 hPa 0,2 mm 7,8 km/h (2 Bft) W-SW 248 ° 0 min 0,000 mm 0,0 UV-I 0 W/m² 7,4 °C 8,0 °C 12,9 km/h (3 Bft)
26.04.2018 04:49 9,1 °C 89 % 1012,8 hPa 0,0 mm 9,0 km/h (2 Bft) W 279 ° 0 min 0,000 mm 0,0 UV-I 0 W/m² 7,4 °C 7,7 °C 11,3 km/h (2 Bft)
26.04.2018 04:50 9,1 °C 89 % 1012,8 hPa 0,0 mm 8,0 km/h (2 Bft) W 267 ° 0 min 0,000 mm 0,0 UV-I 0 W/m² 7,4 °C 7,9 °C 12,9 km/h (3 Bft)
26.04.2018 04:51 9,1 °C 89 % 1012,8 hPa 0,0 mm 8,7 km/h (2 Bft) W 275 ° 0 min 0,000 mm 0,0 UV-I 0 W/m² 7,4 °C 7,8 °C 11,3 km/h (2 Bft)
26.04.2018 04:52 9,1 °C 89 % 1012,8 hPa 0,0 mm 6,8 km/h (2 Bft) W 265 ° 0 min 0,000 mm 0,0 UV-I 0 W/m² 7,4 °C 8,2 °C 12,9 km/h (3 Bft)
26.04.2018 04:53 9,1 °C 89 % 1012,8 hPa 0,0 mm 7,1 km/h (2 Bft) W 277 ° 0 min 0,000 mm 0,0 UV-I 0 W/m² 7,4 °C 8,2 °C 11,3 km/h (2 Bft)
26.04.2018 04:54 9,1 °C 89 % 1012,8 hPa 0,0 mm 9,7 km/h (2 Bft) W 261 ° 0 min 0,000 mm 0,0 UV-I 0 W/m² 7,4 °C 7,6 °C 14,5 km/h (3 Bft)
26.04.2018 04:55 9,1 °C 89 % 1012,8 hPa 0,0 mm 11,1 km/h (2 Bft) W 267 ° 0 min 0,000 mm 0,0 UV-I 0 W/m² 7,4 °C 7,4 °C 16,1 km/h (3 Bft)
26.04.2018 04:56 9,1 °C 89 % 1012,8 hPa 0,0 mm 6,6 km/h (2 Bft) W-SW 257 ° 0 min 0,000 mm 0,0 UV-I 0 W/m² 7,4 °C 8,3 °C 14,5 km/h (3 Bft)
26.04.2018 04:57 9,1 °C 89 % 1012,9 hPa 0,0 mm 8,8 km/h (2 Bft) W 267 ° 0 min 0,000 mm 0,0 UV-I 0 W/m² 7,4 °C 7,8 °C 14,5 km/h (3 Bft)
26.04.2018 04:58 9,1 °C 89 % 1012,9 hPa 0,0 mm 7,6 km/h (2 Bft) W 271 ° 0 min 0,000 mm 0,0 UV-I 0 W/m² 7,4 °C 8,0 °C 12,9 km/h (3 Bft)
26.04.2018 04:59 9,1 °C 89 % 1012,9 hPa 0,0 mm 3,6 km/h (1 Bft) W 275 ° 0 min 0,000 mm 0,0 UV-I 0 W/m² 7,4 °C 9,1 °C 9,7 km/h (2 Bft)
26.04.2018 05:00 9,1 °C 89 % 1012,9 hPa 0,0 mm 7,0 km/h (2 Bft) W-SW 250 ° 0 min 0,000 mm 0,0 UV-I 0 W/m² 7,4 °C 8,2 °C 12,9 km/h (3 Bft)
26.04.2018 05:01 9,1 °C 89 % 1012,9 hPa 0,0 mm 5,2 km/h (1 Bft) W-NW 290 ° 0 min 0,025 mm 0,0 UV-I 0 W/m² 7,4 °C 8,7 °C 8,0 km/h (2 Bft)
26.04.2018 05:02 9,1 °C 89 % 1012,9 hPa 0,0 mm 8,9 km/h (2 Bft) W 280 ° 0 min 0,000 mm 0,0 UV-I 0 W/m² 7,4 °C 7,8 °C 12,9 km/h (3 Bft)
26.04.2018 05:03 9,1 °C 89 % 1012,9 hPa 0,0 mm 9,3 km/h (2 Bft) W 267 ° 0 min 0,000 mm 0,0 UV-I 0 W/m² 7,4 °C 7,7 °C 12,9 km/h (3 Bft)
26.04.2018 05:04 9,1 °C 89 % 1012,9 hPa 0,0 mm 7,3 km/h (2 Bft) W 271 ° 0 min 0,000 mm 0,0 UV-I 0 W/m² 7,4 °C 8,1 °C 12,9 km/h (3 Bft)
26.04.2018 05:05 9,1 °C 89 % 1012,9 hPa 0,0 mm 13,7 km/h (3 Bft) SW 222 ° 0 min 0,000 mm 0,0 UV-I 0 W/m² 7,4 °C 7,0 °C 20,9 km/h (4 Bft)
26.04.2018 05:06 9,1 °C 89 % 1012,9 hPa 0,0 mm 4,8 km/h (1 Bft) W-SW 249 ° 0 min 0,000 mm 0,0 UV-I 0 W/m² 7,4 °C 8,8 °C 6,4 km/h (2 Bft)
26.04.2018 05:07 9,1 °C 89 % 1012,9 hPa 0,0 mm 7,8 km/h (2 Bft) W-SW 253 ° 0 min 0,000 mm 0,0 UV-I 0 W/m² 7,4 °C 8,0 °C 12,9 km/h (3 Bft)
26.04.2018 05:08 9,1 °C 89 % 1012,9 hPa 0,0 mm 8,1 km/h (2 Bft) W 267 ° 0 min 0,000 mm 0,0 UV-I 0 W/m² 7,4 °C 7,9 °C 12,9 km/h (3 Bft)
26.04.2018 05:09 9,2 °C 89 % 1012,9 hPa 0,0 mm 10,4 km/h (2 Bft) W-SW 249 ° 0 min 0,000 mm 0,0 UV-I 0 W/m² 7,5 °C 7,6 °C 14,5 km/h (3 Bft)
26.04.2018 05:10 9,2 °C 89 % 1012,9 hPa 0,0 mm 7,2 km/h (2 Bft) W-SW 258 ° 0 min 0,000 mm 0,0 UV-I 0 W/m² 7,5 °C 8,2 °C 12,9 km/h (3 Bft)
26.04.2018 05:11 9,2 °C 89 % 1012,9 hPa 0,0 mm 7,5 km/h (2 Bft) W-NW 285 ° 0 min 0,000 mm 0,0 UV-I 0 W/m² 7,5 °C 8,2 °C 11,3 km/h (2 Bft)
26.04.2018 05:12 9,2 °C 89 % 1012,8 hPa 0,0 mm 6,2 km/h (2 Bft) W 275 ° 0 min 0,000 mm 0,0 UV-I 0 W/m² 7,5 °C 8,5 °C 9,7 km/h (2 Bft)
26.04.2018 05:13 9,2 °C 89 % 1012,9 hPa 0,0 mm 10,0 km/h (2 Bft) W 271 ° 0 min 0,000 mm 0,0 UV-I 0 W/m² 7,5 °C 7,7 °C 17,7 km/h (3 Bft)
26.04.2018 05:14 9,2 °C 89 % 1012,9 hPa 0,0 mm 12,8 km/h (3 Bft) W 272 ° 0 min 0,000 mm 0,0 UV-I 0 W/m² 7,5 °C 7,2 °C 19,3 km/h (3 Bft)
26.04.2018 05:15 9,2 °C 89 % 1012,9 hPa 0,0 mm 10,2 km/h (2 Bft) W 269 ° 0 min 0,000 mm 0,0 UV-I 0 W/m² 7,5 °C 7,6 °C 14,5 km/h (3 Bft)
26.04.2018 05:16 9,2 °C 89 % 1012,8 hPa 0,0 mm 6,9 km/h (2 Bft) W 266 ° 0 min 0,000 mm 0,0 UV-I 0 W/m² 7,5 °C 8,3 °C 11,3 km/h (2 Bft)
26.04.2018 05:17 9,2 °C 89 % 1012,9 hPa 0,0 mm 2,6 km/h (1 Bft) W-SW 257 ° 0 min 0,000 mm 0,0 UV-I 0 W/m² 7,5 °C 9,2 °C 6,4 km/h (2 Bft)
26.04.2018 05:18 9,2 °C 89 % 1012,9 hPa 0,0 mm 4,8 km/h (1 Bft) S-SW 210 ° 0 min 0,000 mm 0,0 UV-I 0 W/m² 7,5 °C 8,9 °C 9,7 km/h (2 Bft)
26.04.2018 05:19 9,2 °C 89 % 1012,9 hPa 0,0 mm 6,5 km/h (2 Bft) W 264 ° 0 min 0,000 mm 0,0 UV-I 0 W/m² 7,5 °C 8,4 °C 12,9 km/h (3 Bft)
26.04.2018 05:20 9,2 °C 89 % 1012,9 hPa 0,0 mm 3,8 km/h (1 Bft) SW 235 ° 0 min 0,000 mm 0,0 UV-I 0 W/m² 7,5 °C 9,2 °C 8,0 km/h (2 Bft)
26.04.2018 05:21 9,2 °C 89 % 1012,8 hPa 0,0 mm 10,0 km/h (2 Bft) W-SW 248 ° 0 min 0,000 mm 0,0 UV-I 0 W/m² 7,5 °C 7,7 °C 17,7 km/h (3 Bft)
26.04.2018 05:22 9,2 °C 89 % 1012,9 hPa 0,0 mm 9,4 km/h (2 Bft) W 275 ° 0 min 0,000 mm 0,0 UV-I 0 W/m² 7,5 °C 7,8 °C 12,9 km/h (3 Bft)
26.04.2018 05:23 9,2 °C 88 % 1012,9 hPa 0,0 mm 5,1 km/h (1 Bft) W 259 ° 0 min 0,000 mm 0,0 UV-I 0 W/m² 7,3 °C 8,8 °C 8,0 km/h (2 Bft)
26.04.2018 05:24 9,3 °C 89 % 1012,9 hPa 0,0 mm 12,6 km/h (3 Bft) W 269 ° 0 min 0,000 mm 0,0 UV-I 0 W/m² 7,6 °C 7,4 °C 17,7 km/h (3 Bft)
26.04.2018 05:25 9,3 °C 89 % 1012,9 hPa 0,0 mm 5,4 km/h (1 Bft) W 262 ° 0 min 0,000 mm 0,0 UV-I 0 W/m² 7,6 °C 8,8 °C 9,7 km/h (2 Bft)
26.04.2018 05:26 9,3 °C 88 % 1012,9 hPa 0,0 mm 0,7 km/h (0 Bft) W 270 ° 0 min 0,000 mm 0,0 UV-I 0 W/m² 7,4 °C 9,3 °C 3,2 km/h (1 Bft)
26.04.2018 05:27 9,3 °C 88 % 1012,9 hPa 0,0 mm 6,0 km/h (2 Bft) SW 215 ° 0 min 0,000 mm 0,0 UV-I 0 W/m² 7,4 °C 8,7 °C 9,7 km/h (2 Bft)
26.04.2018 05:28 9,3 °C 88 % 1012,9 hPa 0,0 mm 0,6 km/h (0 Bft) SW 215 ° 0 min 0,000 mm 0,0 UV-I 0 W/m² 7,4 °C 9,3 °C 1,6 km/h (1 Bft)
26.04.2018 05:29 9,3 °C 88 % 1013,0 hPa 0,0 mm 5,4 km/h (1 Bft) W 279 ° 0 min 0,000 mm 0,0 UV-I 0 W/m² 7,4 °C 8,8 °C 9,7 km/h (2 Bft)
26.04.2018 05:30 9,3 °C 88 % 1013,0 hPa 0,0 mm 4,1 km/h (1 Bft) W-SW 247 ° 0 min 0,000 mm 0,0 UV-I 0 W/m² 7,4 °C 9,3 °C 6,4 km/h (2 Bft)
26.04.2018 05:31 9,3 °C 88 % 1012,9 hPa 0,0 mm 3,0 km/h (1 Bft) SW 232 ° 0 min 0,000 mm 0,0 UV-I 0 W/m² 7,4 °C 9,3 °C 6,4 km/h (2 Bft)
26.04.2018 05:32 9,4 °C 87 % 1012,9 hPa 0,0 mm 2,5 km/h (1 Bft) W-SW 252 ° 0 min 0,000 mm 0,0 UV-I 0 W/m² 7,3 °C 9,4 °C 4,8 km/h (1 Bft)
26.04.2018 05:33 9,4 °C 87 % 1013,0 hPa 0,0 mm 2,1 km/h (1 Bft) W 267 ° 0 min 0,000 mm 0,0 UV-I 0 W/m² 7,3 °C 9,4 °C 4,8 km/h (1 Bft)
26.04.2018 05:34 9,4 °C 87 % 1013,0 hPa 0,0 mm 3,4 km/h (1 Bft) W-SW 237 ° 0 min 0,000 mm 0,0 UV-I 0 W/m² 7,3 °C 9,4 °C 4,8 km/h (1 Bft)
26.04.2018 05:35 9,5 °C 87 % 1012,9 hPa 0,0 mm 3,9 km/h (1 Bft) W-SW 250 ° 0 min 0,000 mm 0,0 UV-I 0 W/m² 7,4 °C 9,5 °C 8,0 km/h (2 Bft)
26.04.2018 05:36 9,4 °C 87 % 1012,9 hPa 0,0 mm 2,3 km/h (1 Bft) S 172 ° 0 min 0,000 mm 0,0 UV-I 0 W/m² 7,3 °C 9,4 °C 4,8 km/h (1 Bft)
26.04.2018 05:37 9,5 °C 87 % 1012,9 hPa 0,0 mm 5,2 km/h (1 Bft) W 270 ° 0 min 0,000 mm 0,0 UV-I 0 W/m² 7,4 °C 9,1 °C 12,9 km/h (3 Bft)
26.04.2018 05:38 9,5 °C 87 % 1013,0 hPa 0,0 mm 6,4 km/h (2 Bft) W-SW 254 ° 0 min 0,000 mm 0,0 UV-I 0 W/m² 7,4 °C 8,8 °C 12,9 km/h (3 Bft)
26.04.2018 05:39 9,5 °C 87 % 1013,0 hPa 0,0 mm 4,3 km/h (1 Bft) W-NW 292 ° 0 min 0,000 mm 0,0 UV-I 0 W/m² 7,4 °C 9,5 °C 9,7 km/h (2 Bft)
26.04.2018 05:40 9,5 °C 87 % 1013,0 hPa 0,0 mm 4,5 km/h (1 Bft) SW 225 ° 0 min 0,000 mm 0,0 UV-I 0 W/m² 7,4 °C 9,5 °C 6,4 km/h (2 Bft)
26.04.2018 05:41 9,4 °C 87 % 1013,0 hPa 0,0 mm 6,4 km/h (2 Bft) SW 229 ° 0 min 0,000 mm 0,0 UV-I 0 W/m² 7,3 °C 8,7 °C 9,7 km/h (2 Bft)
26.04.2018 05:42 9,4 °C 87 % 1012,9 hPa 0,0 mm 5,5 km/h (1 Bft) W 264 ° 0 min 0,000 mm 0,0 UV-I 0 W/m² 7,3 °C 8,9 °C 9,7 km/h (2 Bft)
26.04.2018 05:43 9,4 °C 87 % 1013,0 hPa 0,0 mm 6,7 km/h (2 Bft) W 265 ° 0 min 0,000 mm 0,0 UV-I 0 W/m² 7,3 °C 8,6 °C 11,3 km/h (2 Bft)
26.04.2018 05:44 9,4 °C 87 % 1013,0 hPa 0,0 mm 7,7 km/h (2 Bft) W 268 ° 0 min 0,000 mm 0,0 UV-I 0 W/m² 7,3 °C 8,4 °C 11,3 km/h (2 Bft)
26.04.2018 05:45 9,4 °C 87 % 1013,0 hPa 0,0 mm 3,6 km/h (1 Bft) W 261 ° 0 min 0,000 mm 0,0 UV-I 0 W/m² 7,3 °C 9,4 °C 9,7 km/h (2 Bft)
26.04.2018 05:46 9,4 °C 88 % 1013,0 hPa 0,0 mm 2,9 km/h (1 Bft) W 261 ° 0 min 0,000 mm 0,0 UV-I 0 W/m² 7,5 °C 9,4 °C 4,8 km/h (1 Bft)
26.04.2018 05:47 9,4 °C 88 % 1013,0 hPa 0,0 mm 3,7 km/h (1 Bft) W 261 ° 0 min 0,000 mm 0,0 UV-I 0 W/m² 7,5 °C 9,4 °C 4,8 km/h (1 Bft)
26.04.2018 05:48 9,3 °C 88 % 1012,9 hPa 0,0 mm 2,3 km/h (1 Bft) W 259 ° 0 min 0,000 mm 0,0 UV-I 0 W/m² 7,4 °C 9,3 °C 6,4 km/h (2 Bft)
26.04.2018 05:49 9,3 °C 88 % 1013,0 hPa 0,0 mm 4,9 km/h (1 Bft) W 262 ° 0 min 0,000 mm 0,0 UV-I 0 W/m² 7,4 °C 9,0 °C 11,3 km/h (2 Bft)
26.04.2018 05:50 9,3 °C 88 % 1013,0 hPa 0,0 mm 2,6 km/h (1 Bft) W 261 ° 0 min 0,000 mm 0,0 UV-I 0 W/m² 7,4 °C 9,3 °C 6,4 km/h (2 Bft)
26.04.2018 05:51 9,3 °C 88 % 1013,0 hPa 0,0 mm 4,4 km/h (1 Bft) W-NW 297 ° 0 min 0,000 mm 0,0 UV-I 0 W/m² 7,4 °C 9,3 °C 6,4 km/h (2 Bft)
26.04.2018 05:52 9,3 °C 88 % 1013,0 hPa 0,0 mm 3,5 km/h (1 Bft) W 273 ° 0 min 0,000 mm 0,0 UV-I 0 W/m² 7,4 °C 9,3 °C 6,4 km/h (2 Bft)
26.04.2018 05:53 9,3 °C 88 % 1012,9 hPa 0,0 mm 3,6 km/h (1 Bft) W 280 ° 0 min 0,000 mm 0,0 UV-I 0 W/m² 7,4 °C 9,3 °C 4,8 km/h (1 Bft)
26.04.2018 05:54 9,3 °C 88 % 1013,0 hPa 0,0 mm 4,9 km/h (1 Bft) W-SW 253 ° 0 min 0,000 mm 0,0 UV-I 0 W/m² 7,4 °C 9,0 °C 6,4 km/h (2 Bft)
26.04.2018 05:55 9,3 °C 88 % 1013,0 hPa 0,0 mm 3,1 km/h (1 Bft) W-SW 253 ° 0 min 0,000 mm 0,0 UV-I 0 W/m² 7,4 °C 9,3 °C 6,4 km/h (2 Bft)
26.04.2018 05:56 9,3 °C 88 % 1012,9 hPa 0,0 mm 4,4 km/h (1 Bft) W 259 ° 0 min 0,000 mm 0,0 UV-I 0 W/m² 7,4 °C 9,3 °C 6,4 km/h (2 Bft)
26.04.2018 05:57 9,3 °C 88 % 1013,0 hPa 0,0 mm 7,6 km/h (2 Bft) W 272 ° 0 min 0,000 mm 0,0 UV-I 0 W/m² 7,4 °C 8,3 °C 12,9 km/h (3 Bft)
26.04.2018 05:58 9,3 °C 87 % 1012,9 hPa 0,0 mm 6,2 km/h (2 Bft) W 281 ° 0 min 0,000 mm 0,0 UV-I 0 W/m² 7,2 °C 8,6 °C 14,5 km/h (3 Bft)
26.04.2018 05:59 9,4 °C 87 % 1012,9 hPa 0,0 mm 6,6 km/h (2 Bft) W 267 ° 0 min 0,000 mm 0,0 UV-I 0 W/m² 7,3 °C 8,6 °C 12,9 km/h (3 Bft)
26.04.2018 06:00 9,4 °C 87 % 1012,9 hPa 0,0 mm 2,9 km/h (1 Bft) S 189 ° 0 min 0,025 mm 0,0 UV-I 0 W/m² 7,3 °C 9,4 °C 6,4 km/h (2 Bft)
26.04.2018 06:01 9,5 °C 86 % 1012,9 hPa 0,0 mm 10,5 km/h (2 Bft) W-NW 292 ° 0 min 0,000 mm 0,0 UV-I 0 W/m² 7,3 °C 7,9 °C 17,7 km/h (3 Bft)
26.04.2018 06:02 9,5 °C 86 % 1012,9 hPa 0,0 mm 8,7 km/h (2 Bft) SW 230 ° 0 min 0,000 mm 0,0 UV-I 0 W/m² 7,3 °C 8,3 °C 16,1 km/h (3 Bft)
26.04.2018 06:03 9,6 °C 86 % 1012,9 hPa 0,0 mm 9,7 km/h (2 Bft) SW 219 ° 0 min 0,000 mm 0,0 UV-I 0 W/m² 7,4 °C 8,2 °C 14,5 km/h (3 Bft)
26.04.2018 06:04 9,6 °C 85 % 1012,9 hPa 0,0 mm 7,3 km/h (2 Bft) W 267 ° 0 min 0,000 mm 0,0 UV-I 0 W/m² 7,2 °C 8,7 °C 12,9 km/h (3 Bft)
26.04.2018 06:05 9,7 °C 85 % 1012,9 hPa 0,2 mm 14,9 km/h (3 Bft) W-SW 246 ° 0 min 0,000 mm 0,0 UV-I 0 W/m² 7,3 °C 7,6 °C 22,5 km/h (4 Bft)
26.04.2018 06:06 9,7 °C 85 % 1012,9 hPa 0,0 mm 14,6 km/h (3 Bft) W 273 ° 0 min 0,000 mm 0,0 UV-I 0 W/m² 7,3 °C 7,6 °C 22,5 km/h (4 Bft)
26.04.2018 06:07 9,7 °C 85 % 1013,0 hPa 0,0 mm 13,5 km/h (3 Bft) N-NW 329 ° 0 min 0,000 mm 0,0 UV-I 0 W/m² 7,3 °C 7,7 °C 19,3 km/h (3 Bft)
26.04.2018 06:08 9,7 °C 85 % 1012,9 hPa 0,0 mm 12,5 km/h (3 Bft) W-SW 240 ° 0 min 0,000 mm 0,0 UV-I 0 W/m² 7,3 °C 7,9 °C 19,3 km/h (3 Bft)
26.04.2018 06:09 9,7 °C 85 % 1013,0 hPa 0,0 mm 11,0 km/h (2 Bft) W 271 ° 0 min 0,000 mm 0,0 UV-I 0 W/m² 7,3 °C 8,1 °C 19,3 km/h (3 Bft)
26.04.2018 06:10 9,7 °C 85 % 1013,0 hPa 0,0 mm 10,6 km/h (2 Bft) W 274 ° 0 min 0,000 mm 0,0 UV-I 0 W/m² 7,3 °C 8,2 °C 17,7 km/h (3 Bft)
26.04.2018 06:11 9,7 °C 86 % 1013,0 hPa 0,0 mm 15,9 km/h (3 Bft) W-SW 249 ° 0 min 0,000 mm 0,0 UV-I 0 W/m² 7,5 °C 7,4 °C 25,7 km/h (4 Bft)
26.04.2018 06:12 9,6 °C 86 % 1012,9 hPa 0,0 mm 4,8 km/h (1 Bft) S-SW 206 ° 0 min 0,000 mm 0,0 UV-I 0 W/m² 7,4 °C 9,4 °C 8,0 km/h (2 Bft)
26.04.2018 06:13 9,6 °C 86 % 1012,9 hPa 0,0 mm 3,3 km/h (1 Bft) W-SW 242 ° 0 min 0,000 mm 0,0 UV-I 0 W/m² 7,4 °C 9,6 °C 6,4 km/h (2 Bft)
26.04.2018 06:14 9,6 °C 86 % 1012,8 hPa 0,0 mm 5,5 km/h (1 Bft) SW 214 ° 0 min 0,000 mm 0,0 UV-I 0 W/m² 7,4 °C 9,2 °C 9,7 km/h (2 Bft)
26.04.2018 06:15 9,5 °C 86 % 1012,9 hPa 0,0 mm 6,9 km/h (2 Bft) W-SW 247 ° 0 min 0,000 mm 0,0 UV-I 0 W/m² 7,3 °C 8,7 °C 12,9 km/h (3 Bft)
26.04.2018 06:16 9,5 °C 86 % 1012,8 hPa 0,0 mm 6,3 km/h (2 Bft) S-SW 211 ° 0 min 0,000 mm 0,0 UV-I 0 W/m² 7,3 °C 8,8 °C 14,5 km/h (3 Bft)
26.04.2018 06:17 9,4 °C 86 % 1012,9 hPa 0,0 mm 11,2 km/h (2 Bft) W-SW 257 ° 0 min 0,000 mm 0,0 UV-I 0 W/m² 7,2 °C 7,7 °C 17,7 km/h (3 Bft)
26.04.2018 06:18 9,4 °C 87 % 1012,9 hPa 0,0 mm 5,1 km/h (1 Bft) W-SW 252 ° 0 min 0,000 mm 0,0 UV-I 0 W/m² 7,3 °C 9,0 °C 11,3 km/h (2 Bft)
26.04.2018 06:19 9,4 °C 86 % 1012,9 hPa 0,0 mm 5,4 km/h (1 Bft) W-SW 258 ° 0 min 0,000 mm 0,0 UV-I 0 W/m² 7,2 °C 9,0 °C 9,7 km/h (2 Bft)
26.04.2018 06:20 9,4 °C 87 % 1012,9 hPa 0,0 mm 7,5 km/h (2 Bft) W 259 ° 0 min 0,000 mm 0,0 UV-I 0 W/m² 7,3 °C 8,4 °C 11,3 km/h (2 Bft)
26.04.2018 06:21 9,4 °C 87 % 1012,9 hPa 0,0 mm 8,1 km/h (2 Bft) W 272 ° 0 min 0,000 mm 0,0 UV-I 0 W/m² 7,3 °C 8,3 °C 12,9 km/h (3 Bft)
26.04.2018 06:22 9,4 °C 87 % 1013,0 hPa 0,0 mm 5,2 km/h (1 Bft) W-SW 256 ° 0 min 0,000 mm 0,0 UV-I 0 W/m² 7,3 °C 9,0 °C 9,7 km/h (2 Bft)
26.04.2018 06:23 9,3 °C 87 % 1013,0 hPa 0,0 mm 5,4 km/h (1 Bft) W 261 ° 0 min 0,000 mm 0,0 UV-I 0 W/m² 7,2 °C 8,8 °C 8,0 km/h (2 Bft)
26.04.2018 06:24 9,3 °C 87 % 1012,9 hPa 0,0 mm 6,4 km/h (2 Bft) W-SW 250 ° 0 min 0,000 mm 0,0 UV-I 0 W/m² 7,2 °C 8,6 °C 9,7 km/h (2 Bft)
26.04.2018 06:25 9,3 °C 87 % 1012,9 hPa 0,0 mm 4,4 km/h (1 Bft) W 271 ° 0 min 0,000 mm 0,0 UV-I 0 W/m² 7,2 °C 9,3 °C 12,9 km/h (3 Bft)
26.04.2018 06:26 9,3 °C 87 % 1012,9 hPa 0,0 mm 4,8 km/h (1 Bft) SW 229 ° 0 min 0,000 mm 0,0 UV-I 0 W/m² 7,2 °C 9,0 °C 12,9 km/h (3 Bft)
26.04.2018 06:27 9,3 °C 87 % 1012,9 hPa 0,0 mm 4,4 km/h (1 Bft) SW 232 ° 0 min 0,000 mm 0,0 UV-I 0 W/m² 7,2 °C 9,3 °C 11,3 km/h (2 Bft)
26.04.2018 06:28 9,3 °C 87 % 1012,9 hPa 0,0 mm 5,4 km/h (1 Bft) SW 223 ° 0 min 0,000 mm 0,0 UV-I 0 W/m² 7,2 °C 8,8 °C 14,5 km/h (3 Bft)
26.04.2018 06:29 9,3 °C 87 % 1012,9 hPa 0,0 mm 2,1 km/h (1 Bft) SW 225 ° 0 min 0,000 mm 0,0 UV-I 0 W/m² 7,2 °C 9,3 °C 4,8 km/h (1 Bft)
26.04.2018 06:30 9,3 °C 87 % 1012,9 hPa 0,0 mm 1,7 km/h (1 Bft) W-SW 244 ° 0 min 0,000 mm 0,0 UV-I 0 W/m² 7,2 °C 9,3 °C 6,4 km/h (2 Bft)
26.04.2018 06:31 9,3 °C 87 % 1012,9 hPa 0,0 mm 4,0 km/h (1 Bft) W-SW 238 ° 0 min 0,000 mm 0,0 UV-I 0 W/m² 7,2 °C 9,3 °C 6,4 km/h (2 Bft)
26.04.2018 06:32 9,3 °C 87 % 1013,0 hPa 0,0 mm 5,8 km/h (2 Bft) W 273 ° 0 min 0,000 mm 0,0 UV-I 0 W/m² 7,2 °C 8,7 °C 12,9 km/h (3 Bft)
26.04.2018 06:33 9,3 °C 87 % 1013,0 hPa 0,0 mm 5,6 km/h (1 Bft) W 264 ° 0 min 0,000 mm 0,0 UV-I 5 W/m² 7,2 °C 8,8 °C 11,3 km/h (2 Bft)
26.04.2018 06:34 9,3 °C 87 % 1013,0 hPa 0,0 mm 12,2 km/h (2 Bft) W 277 ° 0 min 0,000 mm 0,0 UV-I 5 W/m² 7,2 °C 7,4 °C 19,3 km/h (3 Bft)
26.04.2018 06:35 9,3 °C 87 % 1013,0 hPa 0,0 mm 12,5 km/h (3 Bft) W-NW 285 ° 0 min 0,000 mm 0,0 UV-I 5 W/m² 7,2 °C 7,4 °C 17,7 km/h (3 Bft)
26.04.2018 06:36 9,3 °C 87 % 1013,0 hPa 0,0 mm 13,1 km/h (3 Bft) W-NW 294 ° 0 min 0,000 mm 0,0 UV-I 5 W/m² 7,2 °C 7,3 °C 19,3 km/h (3 Bft)
26.04.2018 06:37 9,3 °C 87 % 1013,0 hPa 0,0 mm 8,6 km/h (2 Bft) W 275 ° 0 min 0,000 mm 0,0 UV-I 5 W/m² 7,2 °C 8,1 °C 14,5 km/h (3 Bft)
26.04.2018 06:38 9,3 °C 87 % 1013,1 hPa 0,0 mm 6,0 km/h (2 Bft) W 271 ° 0 min 0,000 mm 0,0 UV-I 5 W/m² 7,2 °C 8,7 °C 11,3 km/h (2 Bft)
26.04.2018 06:39 9,3 °C 87 % 1013,0 hPa 0,0 mm 9,5 km/h (2 Bft) W 260 ° 0 min 0,000 mm 0,0 UV-I 5 W/m² 7,2 °C 7,9 °C 14,5 km/h (3 Bft)
26.04.2018 06:40 9,4 °C 87 % 1013,0 hPa 0,0 mm 9,4 km/h (2 Bft) W 264 ° 0 min 0,000 mm 0,0 UV-I 5 W/m² 7,3 °C 8,0 °C 16,1 km/h (3 Bft)
26.04.2018 06:41 9,3 °C 87 % 1013,0 hPa 0,0 mm 6,8 km/h (2 Bft) W 277 ° 0 min 0,000 mm 0,0 UV-I 5 W/m² 7,2 °C 8,5 °C 11,3 km/h (2 Bft)
26.04.2018 06:42 9,3 °C 87 % 1013,0 hPa 0,0 mm 10,1 km/h (2 Bft) W 275 ° 0 min 0,000 mm 0,0 UV-I 5 W/m² 7,2 °C 7,8 °C 12,9 km/h (3 Bft)
26.04.2018 06:43 9,3 °C 87 % 1013,0 hPa 0,0 mm 9,7 km/h (2 Bft) W 280 ° 0 min 0,000 mm 0,0 UV-I 5 W/m² 7,2 °C 7,8 °C 16,1 km/h (3 Bft)
26.04.2018 06:44 9,3 °C 87 % 1013,0 hPa 0,0 mm 10,6 km/h (2 Bft) W-SW 248 ° 0 min 0,000 mm 0,0 UV-I 5 W/m² 7,2 °C 7,7 °C 17,7 km/h (3 Bft)
26.04.2018 06:45 9,3 °C 87 % 1013,0 hPa 0,0 mm 12,9 km/h (3 Bft) W-SW 258 ° 0 min 0,000 mm 0,0 UV-I 5 W/m² 7,2 °C 7,3 °C 19,3 km/h (3 Bft)
26.04.2018 06:46 9,4 °C 87 % 1013,0 hPa 0,0 mm 12,4 km/h (3 Bft) W 268 ° 0 min 0,000 mm 0,0 UV-I 5 W/m² 7,3 °C 7,5 °C 17,7 km/h (3 Bft)
26.04.2018 06:47 9,4 °C 87 % 1013,0 hPa 0,0 mm 11,8 km/h (2 Bft) W 276 ° 0 min 0,000 mm 0,0 UV-I 5 W/m² 7,3 °C 7,6 °C 17,7 km/h (3 Bft)
26.04.2018 06:48 9,4 °C 87 % 1013,0 hPa 0,0 mm 7,3 km/h (2 Bft) W 267 ° 0 min 0,000 mm 0,0 UV-I 5 W/m² 7,3 °C 8,5 °C 12,9 km/h (3 Bft)
26.04.2018 06:49 9,4 °C 87 % 1013,0 hPa 0,0 mm 11,4 km/h (2 Bft) W 262 ° 0 min 0,000 mm 0,0 UV-I 0 W/m² 7,3 °C 7,7 °C 16,1 km/h (3 Bft)
26.04.2018 06:50 9,4 °C 87 % 1012,9 hPa 0,0 mm 12,0 km/h (2 Bft) W 281 ° 0 min 0,000 mm 0,0 UV-I 0 W/m² 7,3 °C 7,6 °C 22,5 km/h (4 Bft)
26.04.2018 06:51 9,4 °C 86 % 1013,0 hPa 0,0 mm 10,1 km/h (2 Bft) W 267 ° 0 min 0,000 mm 0,0 UV-I 0 W/m² 7,2 °C 7,9 °C 14,5 km/h (3 Bft)
26.04.2018 06:52 9,5 °C 87 % 1013,0 hPa 0,0 mm 5,1 km/h (1 Bft) W 271 ° 0 min 0,000 mm 0,0 UV-I 0 W/m² 7,4 °C 9,2 °C 9,7 km/h (2 Bft)
26.04.2018 06:53 9,4 °C 87 % 1013,0 hPa 0,0 mm 11,9 km/h (2 Bft) W-SW 245 ° 0 min 0,000 mm 0,0 UV-I 0 W/m² 7,3 °C 7,6 °C 17,7 km/h (3 Bft)
26.04.2018 06:54 9,4 °C 87 % 1013,0 hPa 0,0 mm 11,1 km/h (2 Bft) W 275 ° 0 min 0,000 mm 0,0 UV-I 0 W/m² 7,3 °C 7,7 °C 14,5 km/h (3 Bft)
26.04.2018 06:55 9,5 °C 87 % 1013,1 hPa 0,0 mm 9,2 km/h (2 Bft) W 267 ° 0 min 0,000 mm 0,0 UV-I 0 W/m² 7,4 °C 8,2 °C 12,9 km/h (3 Bft)
26.04.2018 06:56 9,5 °C 87 % 1013,0 hPa 0,0 mm 11,8 km/h (2 Bft) W-SW 254 ° 0 min 0,000 mm 0,0 UV-I 0 W/m² 7,4 °C 7,7 °C 17,7 km/h (3 Bft)
26.04.2018 06:57 9,5 °C 86 % 1013,1 hPa 0,0 mm 9,3 km/h (2 Bft) W 269 ° 0 min 0,000 mm 0,0 UV-I 0 W/m² 7,3 °C 8,2 °C 16,1 km/h (3 Bft)
26.04.2018 06:58 9,6 °C 86 % 1013,1 hPa 0,0 mm 6,1 km/h (2 Bft) W 281 ° 0 min 0,000 mm 0,0 UV-I 0 W/m² 7,4 °C 9,0 °C 11,3 km/h (2 Bft)
26.04.2018 06:59 9,6 °C 86 % 1013,1 hPa 0,0 mm 8,2 km/h (2 Bft) W 271 ° 0 min 0,000 mm 0,0 UV-I 0 W/m² 7,4 °C 8,5 °C 14,5 km/h (3 Bft)
26.04.2018 07:00 9,6 °C 86 % 1013,1 hPa 0,0 mm 6,0 km/h (2 Bft) W 280 ° 0 min 0,026 mm 0,0 UV-I 0 W/m² 7,4 °C 9,0 °C 9,7 km/h (2 Bft)
26.04.2018 07:01 9,6 °C 86 % 1013,1 hPa 0,0 mm 9,0 km/h (2 Bft) W 275 ° 0 min 0,000 mm 0,0 UV-I 0 W/m² 7,4 °C 8,3 °C 14,5 km/h (3 Bft)
26.04.2018 07:02 9,6 °C 86 % 1013,1 hPa 0,0 mm 5,3 km/h (1 Bft) W 264 ° 0 min 0,000 mm 0,0 UV-I 5 W/m² 7,4 °C 9,2 °C 9,7 km/h (2 Bft)
26.04.2018 07:03 9,6 °C 86 % 1013,1 hPa 0,0 mm 9,3 km/h (2 Bft) W-NW 291 ° 0 min 0,000 mm 0,0 UV-I 5 W/m² 7,4 °C 8,3 °C 17,7 km/h (3 Bft)
26.04.2018 07:04 9,7 °C 86 % 1013,1 hPa 0,0 mm 6,8 km/h (2 Bft) W-SW 257 ° 0 min 0,000 mm 0,0 UV-I 5 W/m² 7,5 °C 8,9 °C 11,3 km/h (2 Bft)
26.04.2018 07:05 9,7 °C 86 % 1013,1 hPa 0,0 mm 5,0 km/h (1 Bft) W-SW 244 ° 0 min 0,000 mm 0,0 UV-I 7 W/m² 7,5 °C 9,4 °C 9,7 km/h (2 Bft)
26.04.2018 07:06 9,6 °C 86 % 1013,1 hPa 0,0 mm 7,2 km/h (2 Bft) W-NW 286 ° 0 min 0,000 mm 0,0 UV-I 7 W/m² 7,4 °C 8,7 °C 9,7 km/h (2 Bft)
26.04.2018 07:07 9,6 °C 86 % 1013,1 hPa 0,0 mm 5,6 km/h (1 Bft) W 265 ° 0 min 0,000 mm 0,0 UV-I 7 W/m² 7,4 °C 9,1 °C 6,4 km/h (2 Bft)
26.04.2018 07:08 9,6 °C 86 % 1013,1 hPa 0,0 mm 7,1 km/h (2 Bft) W 268 ° 0 min 0,000 mm 0,0 UV-I 9 W/m² 7,4 °C 8,7 °C 11,3 km/h (2 Bft)
26.04.2018 07:09 9,5 °C 87 % 1013,2 hPa 0,0 mm 6,8 km/h (2 Bft) SW 234 ° 0 min 0,000 mm 0,0 UV-I 9 W/m² 7,4 °C 8,7 °C 11,3 km/h (2 Bft)
26.04.2018 07:10 9,5 °C 87 % 1013,1 hPa 0,0 mm 5,7 km/h (1 Bft) W 262 ° 0 min 0,000 mm 0,0 UV-I 11 W/m² 7,4 °C 9,0 °C 9,7 km/h (2 Bft)
26.04.2018 07:11 9,5 °C 87 % 1013,1 hPa 0,0 mm 6,7 km/h (2 Bft) W 267 ° 0 min 0,000 mm 0,0 UV-I 14 W/m² 7,4 °C 8,7 °C 12,9 km/h (3 Bft)
26.04.2018 07:12 9,5 °C 87 % 1013,2 hPa 0,0 mm 8,7 km/h (2 Bft) W 273 ° 0 min 0,000 mm 0,0 UV-I 14 W/m² 7,4 °C 8,3 °C 16,1 km/h (3 Bft)
26.04.2018 07:13 9,5 °C 87 % 1013,2 hPa 0,0 mm 9,5 km/h (2 Bft) S-SW 199 ° 0 min 0,000 mm 0,0 UV-I 14 W/m² 7,4 °C 8,1 °C 14,5 km/h (3 Bft)
26.04.2018 07:14 9,5 °C 87 % 1013,1 hPa 0,0 mm 6,4 km/h (2 Bft) S-SW 213 ° 0 min 0,000 mm 0,0 UV-I 16 W/m² 7,4 °C 8,8 °C 17,7 km/h (3 Bft)
26.04.2018 07:15 9,6 °C 86 % 1013,3 hPa 0,0 mm 10,7 km/h (2 Bft) W-NW 295 ° 0 min 0,000 mm 0,0 UV-I 16 W/m² 7,4 °C 8,0 °C 16,1 km/h (3 Bft)
26.04.2018 07:16 9,6 °C 87 % 1013,2 hPa 0,0 mm 12,9 km/h (3 Bft) W 270 ° 0 min 0,000 mm 0,0 UV-I 16 W/m² 7,5 °C 7,7 °C 17,7 km/h (3 Bft)
26.04.2018 07:17 9,6 °C 87 % 1013,3 hPa 0,0 mm 8,7 km/h (2 Bft) SW 218 ° 0 min 0,000 mm 0,0 UV-I 14 W/m² 7,5 °C 8,4 °C 16,1 km/h (3 Bft)
26.04.2018 07:18 9,5 °C 87 % 1013,2 hPa 0,0 mm 5,1 km/h (1 Bft) W-SW 238 ° 0 min 0,000 mm 0,0 UV-I 14 W/m² 7,4 °C 9,2 °C 12,9 km/h (3 Bft)
26.04.2018 07:19 9,5 °C 87 % 1013,3 hPa 0,0 mm 12,7 km/h (3 Bft) SW 235 ° 0 min 0,000 mm 0,0 UV-I 16 W/m² 7,4 °C 7,6 °C 19,3 km/h (3 Bft)
26.04.2018 07:20 9,5 °C 87 % 1013,3 hPa 0,0 mm 9,4 km/h (2 Bft) W 274 ° 0 min 0,000 mm 0,0 UV-I 18 W/m² 7,4 °C 8,1 °C 17,7 km/h (3 Bft)
26.04.2018 07:21 9,5 °C 87 % 1013,3 hPa 0,0 mm 12,0 km/h (2 Bft) W-SW 244 ° 0 min 0,000 mm 0,0 UV-I 21 W/m² 7,4 °C 7,7 °C 20,9 km/h (4 Bft)
26.04.2018 07:22 9,4 °C 87 % 1013,3 hPa 0,0 mm 7,5 km/h (2 Bft) W-SW 257 ° 0 min 0,000 mm 0,0 UV-I 21 W/m² 7,3 °C 8,4 °C 14,5 km/h (3 Bft)
26.04.2018 07:23 9,4 °C 87 % 1013,3 hPa 0,0 mm 3,7 km/h (1 Bft) W 271 ° 0 min 0,000 mm 0,0 UV-I 23 W/m² 7,3 °C 9,4 °C 11,3 km/h (2 Bft)
26.04.2018 07:24 9,4 °C 87 % 1013,4 hPa 0,0 mm 10,6 km/h (2 Bft) W-SW 248 ° 0 min 0,000 mm 0,0 UV-I 23 W/m² 7,3 °C 7,8 °C 16,1 km/h (3 Bft)
26.04.2018 07:25 9,4 °C 87 % 1013,3 hPa 0,0 mm 7,0 km/h (2 Bft) W 267 ° 0 min 0,000 mm 0,0 UV-I 26 W/m² 7,3 °C 8,5 °C 11,3 km/h (2 Bft)
26.04.2018 07:26 9,4 °C 88 % 1013,4 hPa 0,0 mm 6,9 km/h (2 Bft) W 267 ° 0 min 0,000 mm 0,0 UV-I 28 W/m² 7,5 °C 8,6 °C 9,7 km/h (2 Bft)
26.04.2018 07:27 9,4 °C 88 % 1013,4 hPa 0,0 mm 8,3 km/h (2 Bft) W 269 ° 0 min 0,000 mm 0,0 UV-I 23 W/m² 7,5 °C 8,2 °C 12,9 km/h (3 Bft)
26.04.2018 07:28 9,4 °C 88 % 1013,4 hPa 0,0 mm 9,8 km/h (2 Bft) W-NW 288 ° 0 min 0,000 mm 0,0 UV-I 18 W/m² 7,5 °C 8,0 °C 20,9 km/h (4 Bft)
26.04.2018 07:29 9,3 °C 88 % 1013,6 hPa 0,0 mm 14,3 km/h (3 Bft) W-NW 284 ° 0 min 0,000 mm 0,0 UV-I 9 W/m² 7,4 °C 7,1 °C 19,3 km/h (3 Bft)
26.04.2018 07:30 9,3 °C 88 % 1013,9 hPa 0,0 mm 15,2 km/h (3 Bft) W 270 ° 0 min 0,000 mm 0,0 UV-I 9 W/m² 7,4 °C 7,0 °C 20,9 km/h (4 Bft)
26.04.2018 07:31 9,2 °C 88 % 1013,8 hPa 0,0 mm 16,3 km/h (3 Bft) W 265 ° 0 min 0,000 mm 0,0 UV-I 9 W/m² 7,3 °C 6,8 °C 20,9 km/h (4 Bft)
26.04.2018 07:32 9,1 °C 86 % 1013,9 hPa 0,0 mm 14,8 km/h (3 Bft) W-SW 241 ° 0 min 0,000 mm 0,0 UV-I 7 W/m² 6,9 °C 6,8 °C 17,7 km/h (3 Bft)
26.04.2018 07:33 8,9 °C 86 % 1013,9 hPa 0,0 mm 14,8 km/h (3 Bft) W-SW 246 ° 0 min 0,000 mm 0,0 UV-I 7 W/m² 6,7 °C 6,6 °C 22,5 km/h (4 Bft)
26.04.2018 07:34 8,7 °C 86 % 1014,1 hPa 0,0 mm 15,0 km/h (3 Bft) W-SW 251 ° 0 min 0,000 mm 0,0 UV-I 9 W/m² 6,5 °C 6,3 °C 17,7 km/h (3 Bft)
26.04.2018 07:35 8,4 °C 86 % 1014,2 hPa 0,0 mm 8,9 km/h (2 Bft) W-NW 297 ° 0 min 0,000 mm 0,0 UV-I 12 W/m² 6,2 °C 6,9 °C 16,1 km/h (3 Bft)
26.04.2018 07:36 8,2 °C 86 % 1014,1 hPa 0,0 mm 3,0 km/h (1 Bft) NW 312 ° 0 min 0,000 mm 0,0 UV-I 12 W/m² 6,0 °C 8,2 °C 6,4 km/h (2 Bft)
26.04.2018 07:37 8,0 °C 87 % 1014,2 hPa 0,2 mm 4,5 km/h (1 Bft) NW 313 ° 0 min 0,000 mm 0,0 UV-I 11 W/m² 6,0 °C 8,0 °C 6,4 km/h (2 Bft)
26.04.2018 07:38 7,9 °C 87 % 1014,2 hPa 0,0 mm 6,7 km/h (2 Bft) W-NW 289 ° 0 min 0,000 mm 0,0 UV-I 12 W/m² 5,9 °C 6,9 °C 16,1 km/h (3 Bft)
26.04.2018 07:39 7,8 °C 88 % 1014,2 hPa 0,0 mm 9,0 km/h (2 Bft) W 262 ° 0 min 0,000 mm 0,0 UV-I 16 W/m² 5,9 °C 6,2 °C 14,5 km/h (3 Bft)
26.04.2018 07:40 7,7 °C 88 % 1014,2 hPa 0,0 mm 10,5 km/h (2 Bft) W-NW 288 ° 0 min 0,000 mm 0,0 UV-I 18 W/m² 5,8 °C 5,8 °C 14,5 km/h (3 Bft)
26.04.2018 07:41 7,5 °C 88 % 1014,3 hPa 0,0 mm 10,4 km/h (2 Bft) W-NW 286 ° 0 min 0,000 mm 0,0 UV-I 16 W/m² 5,6 °C 5,6 °C 16,1 km/h (3 Bft)
26.04.2018 07:42 7,4 °C 88 % 1014,5 hPa 0,0 mm 13,5 km/h (3 Bft) W-NW 300 ° 0 min 0,000 mm 0,0 UV-I 14 W/m² 5,5 °C 4,9 °C 19,3 km/h (3 Bft)
26.04.2018 07:43 7,2 °C 88 % 1014,6 hPa 0,0 mm 10,1 km/h (2 Bft) W 273 ° 0 min 0,000 mm 0,0 UV-I 12 W/m² 5,3 °C 5,3 °C 14,5 km/h (3 Bft)
26.04.2018 07:44 7,1 °C 88 % 1014,6 hPa 0,0 mm 8,2 km/h (2 Bft) W-NW 300 ° 0 min 0,000 mm 0,0 UV-I 12 W/m² 5,2 °C 5,6 °C 14,5 km/h (3 Bft)
26.04.2018 07:45 6,9 °C 88 % 1014,6 hPa 0,2 mm 7,8 km/h (2 Bft) NW 319 ° 0 min 0,000 mm 0,0 UV-I 19 W/m² 5,1 °C 5,4 °C 14,5 km/h (3 Bft)
26.04.2018 07:46 6,8 °C 88 % 1014,5 hPa 0,0 mm 10,1 km/h (2 Bft) N-NW 345 ° 0 min 0,000 mm 0,0 UV-I 26 W/m² 5,0 °C 4,8 °C 17,7 km/h (3 Bft)
26.04.2018 07:47 6,7 °C 88 % 1014,6 hPa 0,0 mm 6,7 km/h (2 Bft) W-NW 296 ° 0 min 0,000 mm 0,0 UV-I 19 W/m² 4,9 °C 5,5 °C 12,9 km/h (3 Bft)
26.04.2018 07:48 6,6 °C 89 % 1014,6 hPa 0,0 mm 5,8 km/h (2 Bft) NW 316 ° 0 min 0,000 mm 0,0 UV-I 18 W/m² 4,9 °C 5,6 °C 9,7 km/h (2 Bft)
26.04.2018 07:49 6,6 °C 89 % 1014,6 hPa 0,0 mm 6,6 km/h (2 Bft) NW 324 ° 0 min 0,000 mm 0,0 UV-I 19 W/m² 4,9 °C 5,4 °C 9,7 km/h (2 Bft)
26.04.2018 07:50 6,5 °C 89 % 1014,7 hPa 0,2 mm 7,3 km/h (2 Bft) W-NW 291 ° 0 min 0,000 mm 0,0 UV-I 23 W/m² 4,8 °C 5,1 °C 11,3 km/h (2 Bft)
26.04.2018 07:51 6,4 °C 90 % 1014,6 hPa 0,0 mm 3,2 km/h (1 Bft) W 264 ° 0 min 0,000 mm 0,0 UV-I 30 W/m² 4,9 °C 6,4 °C 4,8 km/h (1 Bft)
26.04.2018 07:52 6,4 °C 90 % 1014,7 hPa 0,0 mm 6,6 km/h (2 Bft) NW 317 ° 0 min 0,000 mm 0,0 UV-I 33 W/m² 4,9 °C 5,2 °C 11,3 km/h (2 Bft)
26.04.2018 07:53 6,3 °C 90 % 1014,7 hPa 0,0 mm 6,7 km/h (2 Bft) NW 321 ° 0 min 0,000 mm 0,0 UV-I 39 W/m² 4,8 °C 5,0 °C 8,0 km/h (2 Bft)
26.04.2018 07:54 6,3 °C 90 % 1014,6 hPa 0,0 mm 4,9 km/h (1 Bft) NW 326 ° 0 min 0,000 mm 0,0 UV-I 32 W/m² 4,8 °C 5,6 °C 6,4 km/h (2 Bft)
26.04.2018 07:55 6,3 °C 90 % 1014,6 hPa 0,0 mm 4,2 km/h (1 Bft) NW 311 ° 0 min 0,000 mm 0,0 UV-I 32 W/m² 4,8 °C 6,3 °C 8,0 km/h (2 Bft)
26.04.2018 07:56 6,3 °C 90 % 1014,8 hPa 0,0 mm 5,9 km/h (2 Bft) NW 321 ° 0 min 0,000 mm 0,0 UV-I 32 W/m² 4,8 °C 5,2 °C 6,4 km/h (2 Bft)
26.04.2018 07:57 6,2 °C 90 % 1014,8 hPa 0,2 mm 3,2 km/h (1 Bft) N-NW 337 ° 0 min 0,000 mm 0,0 UV-I 18 W/m² 4,7 °C 6,2 °C 4,8 km/h (1 Bft)
26.04.2018 07:58 6,2 °C 91 % 1014,8 hPa 0,0 mm 1,6 km/h (1 Bft) N-NW 337 ° 0 min 0,000 mm 0,0 UV-I 16 W/m² 4,8 °C 6,2 °C 3,2 km/h (1 Bft)
26.04.2018 07:59 6,2 °C 90 % 1014,8 hPa 0,0 mm 4,8 km/h (1 Bft) N 360 ° 0 min 0,000 mm 0,0 UV-I 19 W/m² 4,7 °C 5,5 °C 9,7 km/h (2 Bft)
26.04.2018 08:00 6,2 °C 91 % 1014,9 hPa 0,0 mm 3,2 km/h (1 Bft) N-NO 22 ° 0 min 0,025 mm 0,0 UV-I 23 W/m² 4,8 °C 6,2 °C 4,8 km/h (1 Bft)
26.04.2018 08:01 6,2 °C 91 % 1014,9 hPa 0,0 mm 3,2 km/h (1 Bft) W-NW 292 ° 0 min 0,000 mm 0,0 UV-I 25 W/m² 4,8 °C 6,2 °C 6,4 km/h (2 Bft)
26.04.2018 08:02 6,1 °C 91 % 1015,0 hPa 0,0 mm 4,8 km/h (1 Bft) W 270 ° 0 min 0,000 mm 0,0 UV-I 25 W/m² 4,7 °C 5,4 °C 6,4 km/h (2 Bft)
26.04.2018 08:03 6,1 °C 91 % 1015,0 hPa 0,2 mm 4,8 km/h (1 Bft) W 270 ° 0 min 0,000 mm 0,0 UV-I 23 W/m² 4,7 °C 5,4 °C 6,4 km/h (2 Bft)
26.04.2018 08:05 6,1 °C 91 % 1015,1 hPa 0,0 mm 4,4 km/h (1 Bft) W-SW 245 ° 0 min 0,000 mm 0,0 UV-I 18 W/m² 4,7 °C 6,1 °C 4,8 km/h (1 Bft)
26.04.2018 08:06 6,0 °C 91 % 1015,1 hPa 0,0 mm 3,0 km/h (1 Bft) NW 309 ° 0 min 0,000 mm 0,0 UV-I 18 W/m² 4,6 °C 6,0 °C 4,8 km/h (1 Bft)
26.04.2018 08:07 6,0 °C 91 % 1015,1 hPa 0,0 mm 1,7 km/h (1 Bft) W-SW 252 ° 0 min 0,000 mm 0,0 UV-I 18 W/m² 4,6 °C 6,0 °C 4,8 km/h (1 Bft)
26.04.2018 08:08 5,9 °C 91 % 1015,1 hPa 0,0 mm 2,7 km/h (1 Bft) W-NW 290 ° 0 min 0,000 mm 0,0 UV-I 18 W/m² 4,5 °C 5,9 °C 4,8 km/h (1 Bft)
26.04.2018 08:09 5,9 °C 91 % 1015,2 hPa 0,0 mm 2,0 km/h (1 Bft) W-NW 286 ° 0 min 0,000 mm 0,0 UV-I 23 W/m² 4,5 °C 5,9 °C 4,8 km/h (1 Bft)
26.04.2018 08:10 5,9 °C 91 % 1015,1 hPa 0,2 mm 3,8 km/h (1 Bft) W-NW 288 ° 0 min 0,000 mm 0,0 UV-I 30 W/m² 4,5 °C 5,9 °C 6,4 km/h (2 Bft)
26.04.2018 08:11 5,8 °C 91 % 1015,2 hPa 0,0 mm 0,6 km/h (0 Bft) W-NW 288 ° 0 min 0,000 mm 0,0 UV-I 26 W/m² 4,4 °C 5,8 °C 1,6 km/h (1 Bft)
26.04.2018 08:12 5,8 °C 91 % 1015,2 hPa 0,0 mm 2,1 km/h (1 Bft) W-SW 241 ° 0 min 0,000 mm 0,0 UV-I 25 W/m² 4,4 °C 5,8 °C 4,8 km/h (1 Bft)
26.04.2018 08:13 5,8 °C 91 % 1015,2 hPa 0,0 mm 1,9 km/h (1 Bft) W-SW 242 ° 0 min 0,000 mm 0,0 UV-I 25 W/m² 4,4 °C 5,8 °C 3,2 km/h (1 Bft)
26.04.2018 08:14 5,8 °C 91 % 1015,2 hPa 0,0 mm 0,5 km/h (0 Bft) W-SW 241 ° 0 min 0,000 mm 0,0 UV-I 25 W/m² 4,4 °C 5,8 °C 1,6 km/h (1 Bft)
26.04.2018 08:15 5,8 °C 91 % 1015,2 hPa 0,0 mm 2,8 km/h (1 Bft) SW 236 ° 0 min 0,000 mm 0,0 UV-I 25 W/m² 4,4 °C 5,8 °C 4,8 km/h (1 Bft)
26.04.2018 08:16 5,8 °C 91 % 1015,2 hPa 0,2 mm 3,2 km/h (1 Bft) SW 236 ° 0 min 0,000 mm 0,0 UV-I 33 W/m² 4,4 °C 5,8 °C 4,8 km/h (1 Bft)
26.04.2018 08:17 5,8 °C 92 % 1015,2 hPa 0,0 mm 3,0 km/h (1 Bft) SW 236 ° 0 min 0,000 mm 0,0 UV-I 35 W/m² 4,6 °C 5,8 °C 4,8 km/h (1 Bft)
26.04.2018 08:18 5,8 °C 91 % 1015,2 hPa 0,0 mm 3,7 km/h (1 Bft) W 265 ° 0 min 0,000 mm 0,0 UV-I 35 W/m² 4,4 °C 5,8 °C 9,7 km/h (2 Bft)
26.04.2018 08:19 5,8 °C 92 % 1015,3 hPa 0,0 mm 3,0 km/h (1 Bft) W 265 ° 0 min 0,000 mm 0,0 UV-I 35 W/m² 4,6 °C 5,8 °C 4,8 km/h (1 Bft)
26.04.2018 08:20 5,8 °C 92 % 1015,3 hPa 0,0 mm 4,4 km/h (1 Bft) W-SW 244 ° 0 min 0,000 mm 0,0 UV-I 37 W/m² 4,6 °C 5,8 °C 6,4 km/h (2 Bft)
26.04.2018 08:21 5,8 °C 92 % 1015,3 hPa 0,0 mm 3,8 km/h (1 Bft) W-NW 294 ° 0 min 0,000 mm 0,0 UV-I 39 W/m² 4,6 °C 5,8 °C 4,8 km/h (1 Bft)
26.04.2018 08:22 5,8 °C 92 % 1015,3 hPa 0,0 mm 0,3 km/h (0 Bft) W-NW 294 ° 0 min 0,000 mm 0,0 UV-I 42 W/m² 4,6 °C 5,8 °C 1,6 km/h (1 Bft)
26.04.2018 08:23 5,8 °C 92 % 1015,3 hPa 0,0 mm 0,0 km/h (0 Bft) W-NW 294 ° 0 min 0,000 mm 0,0 UV-I 42 W/m² 4,6 °C 5,8 °C 0,0 km/h (0 Bft)
26.04.2018 08:24 5,8 °C 92 % 1015,3 hPa 0,2 mm 0,1 km/h (0 Bft) W-NW 294 ° 0 min 0,000 mm 0,0 UV-I 44 W/m² 4,6 °C 5,8 °C 1,6 km/h (1 Bft)
26.04.2018 08:25 5,8 °C 92 % 1015,4 hPa 0,0 mm 0,0 km/h (0 Bft) W-NW 294 ° 0 min 0,000 mm 0,0 UV-I 51 W/m² 4,6 °C 5,8 °C 0,0 km/h (0 Bft)
26.04.2018 08:26 5,8 °C 92 % 1015,4 hPa 0,0 mm 0,0 km/h (0 Bft) W-NW 294 ° 0 min 0,000 mm 0,0 UV-I 62 W/m² 4,6 °C 5,8 °C 0,0 km/h (0 Bft)
26.04.2018 08:27 5,8 °C 92 % 1015,3 hPa 0,0 mm 0,0 km/h (0 Bft) W-NW 294 ° 0 min 0,000 mm 0,0 UV-I 65 W/m² 4,6 °C 5,8 °C 0,0 km/h (0 Bft)
26.04.2018 08:28 5,9 °C 92 % 1015,3 hPa 0,0 mm 0,0 km/h (0 Bft) W-NW 294 ° 0 min 0,000 mm 0,0 UV-I 60 W/m² 4,7 °C 5,9 °C 0,0 km/h (0 Bft)
26.04.2018 08:29 5,9 °C 92 % 1015,3 hPa 0,0 mm 3,3 km/h (1 Bft) W 276 ° 0 min 0,000 mm 0,0 UV-I 54 W/m² 4,7 °C 5,9 °C 4,8 km/h (1 Bft)
26.04.2018 08:30 5,9 °C 92 % 1015,4 hPa 0,0 mm 2,1 km/h (1 Bft) W 276 ° 0 min 0,000 mm 0,0 UV-I 53 W/m² 4,7 °C 5,9 °C 4,8 km/h (1 Bft)
26.04.2018 08:31 5,9 °C 92 % 1015,4 hPa 0,2 mm 1,2 km/h (1 Bft) W 276 ° 0 min 0,000 mm 0,0 UV-I 53 W/m² 4,7 °C 5,9 °C 1,6 km/h (1 Bft)
26.04.2018 08:32 5,9 °C 92 % 1015,4 hPa 0,0 mm 0,0 km/h (0 Bft) W 276 ° 0 min 0,000 mm 0,0 UV-I 56 W/m² 4,7 °C 5,9 °C 0,0 km/h (0 Bft)
26.04.2018 08:33 6,1 °C 92 % 1015,4 hPa 0,0 mm 1,5 km/h (1 Bft) W 276 ° 0 min 0,000 mm 0,0 UV-I 69 W/m² 4,9 °C 6,1 °C 4,8 km/h (1 Bft)
26.04.2018 08:34 6,1 °C 92 % 1015,4 hPa 0,0 mm 2,9 km/h (1 Bft) W 276 ° 0 min 0,000 mm 0,0 UV-I 74 W/m² 4,9 °C 6,1 °C 6,4 km/h (2 Bft)
26.04.2018 08:35 6,1 °C 92 % 1015,5 hPa 0,0 mm 3,5 km/h (1 Bft) W 276 ° 0 min 0,000 mm 0,0 UV-I 77 W/m² 4,9 °C 6,1 °C 4,8 km/h (1 Bft)
26.04.2018 08:36 6,2 °C 92 % 1015,5 hPa 0,0 mm 0,8 km/h (0 Bft) W 276 ° 0 min 0,000 mm 0,0 UV-I 72 W/m² 5,0 °C 6,2 °C 1,6 km/h (1 Bft)
26.04.2018 08:37 6,2 °C 92 % 1015,5 hPa 0,0 mm 1,0 km/h (0 Bft) W 276 ° 0 min 0,000 mm 0,0 UV-I 65 W/m² 5,0 °C 6,2 °C 3,2 km/h (1 Bft)
26.04.2018 08:38 6,1 °C 92 % 1015,5 hPa 0,0 mm 0,8 km/h (0 Bft) W 276 ° 0 min 0,000 mm 0,0 UV-I 62 W/m² 4,9 °C 6,1 °C 3,2 km/h (1 Bft)
26.04.2018 08:39 6,1 °C 92 % 1015,5 hPa 0,0 mm 1,9 km/h (1 Bft) W 265 ° 0 min 0,000 mm 0,0 UV-I 54 W/m² 4,9 °C 6,1 °C 4,8 km/h (1 Bft)
26.04.2018 08:40 6,1 °C 92 % 1015,5 hPa 0,2 mm 1,9 km/h (1 Bft) W 265 ° 0 min 0,000 mm 0,0 UV-I 53 W/m² 4,9 °C 6,1 °C 4,8 km/h (1 Bft)
26.04.2018 08:41 6,1 °C 92 % 1015,5 hPa 0,0 mm 0,3 km/h (0 Bft) W 265 ° 0 min 0,000 mm 0,0 UV-I 54 W/m² 4,9 °C 6,1 °C 1,6 km/h (1 Bft)
26.04.2018 08:42 6,1 °C 92 % 1015,6 hPa 0,0 mm 0,2 km/h (0 Bft) W 265 ° 0 min 0,000 mm 0,0 UV-I 58 W/m² 4,9 °C 6,1 °C 1,6 km/h (1 Bft)
26.04.2018 08:43 6,0 °C 92 % 1015,6 hPa 0,0 mm 0,3 km/h (0 Bft) W 265 ° 0 min 0,000 mm 0,0 UV-I 63 W/m² 4,8 °C 6,0 °C 1,6 km/h (1 Bft)
26.04.2018 08:44 6,1 °C 92 % 1015,6 hPa 0,0 mm 1,0 km/h (0 Bft) W 265 ° 0 min 0,000 mm 0,5 UV-I 72 W/m² 4,9 °C 6,1 °C 3,2 km/h (1 Bft)
26.04.2018 08:45 6,1 °C 92 % 1015,6 hPa 0,0 mm 0,5 km/h (0 Bft) W 265 ° 0 min 0,000 mm 0,5 UV-I 70 W/m² 4,9 °C 6,1 °C 3,2 km/h (1 Bft)
26.04.2018 08:46 6,2 °C 92 % 1015,6 hPa 0,0 mm 1,2 km/h (1 Bft) W 265 ° 0 min 0,000 mm 0,0 UV-I 65 W/m² 5,0 °C 6,2 °C 3,2 km/h (1 Bft)
26.04.2018 08:47 6,2 °C 92 % 1015,6 hPa 0,2 mm 1,4 km/h (1 Bft) W 265 ° 0 min 0,000 mm 0,5 UV-I 65 W/m² 5,0 °C 6,2 °C 3,2 km/h (1 Bft)
26.04.2018 08:48 6,2 °C 92 % 1015,6 hPa 0,0 mm 0,5 km/h (0 Bft) W 265 ° 0 min 0,000 mm 0,0 UV-I 62 W/m² 5,0 °C 6,2 °C 3,2 km/h (1 Bft)
26.04.2018 08:49 6,2 °C 92 % 1015,7 hPa 0,0 mm 1,5 km/h (1 Bft) W 259 ° 0 min 0,000 mm 0,0 UV-I 54 W/m² 5,0 °C 6,2 °C 3,2 km/h (1 Bft)
26.04.2018 08:50 6,2 °C 92 % 1015,7 hPa 0,0 mm 3,2 km/h (1 Bft) W-SW 255 ° 0 min 0,000 mm 0,0 UV-I 51 W/m² 5,0 °C 6,2 °C 4,8 km/h (1 Bft)
26.04.2018 08:51 6,2 °C 92 % 1015,7 hPa 0,0 mm 2,1 km/h (1 Bft) W-SW 252 ° 0 min 0,000 mm 0,0 UV-I 47 W/m² 5,0 °C 6,2 °C 3,2 km/h (1 Bft)
26.04.2018 08:52 6,2 °C 92 % 1015,7 hPa 0,0 mm 0,8 km/h (0 Bft) W-SW 252 ° 0 min 0,000 mm 0,0 UV-I 53 W/m² 5,0 °C 6,2 °C 3,2 km/h (1 Bft)
26.04.2018 08:53 6,1 °C 92 % 1015,7 hPa 0,0 mm 1,3 km/h (1 Bft) W 264 ° 0 min 0,000 mm 0,5 UV-I 58 W/m² 4,9 °C 6,1 °C 3,2 km/h (1 Bft)
26.04.2018 08:54 6,2 °C 92 % 1015,8 hPa 0,0 mm 4,0 km/h (1 Bft) W-NW 292 ° 0 min 0,000 mm 0,5 UV-I 63 W/m² 5,0 °C 6,2 °C 6,4 km/h (2 Bft)
26.04.2018 08:55 6,1 °C 92 % 1015,7 hPa 0,0 mm 2,3 km/h (1 Bft) W-NW 283 ° 0 min 0,000 mm 0,5 UV-I 67 W/m² 4,9 °C 6,1 °C 4,8 km/h (1 Bft)
26.04.2018 08:56 6,2 °C 92 % 1015,7 hPa 0,2 mm 3,0 km/h (1 Bft) W 271 ° 0 min 0,000 mm 0,5 UV-I 67 W/m² 5,0 °C 6,2 °C 4,8 km/h (1 Bft)
26.04.2018 08:57 6,2 °C 92 % 1015,8 hPa 0,0 mm 0,1 km/h (0 Bft) W 271 ° 0 min 0,000 mm 0,0 UV-I 65 W/m² 5,0 °C 6,2 °C 1,6 km/h (1 Bft)
26.04.2018 08:58 6,2 °C 92 % 1015,8 hPa 0,0 mm 2,2 km/h (1 Bft) W 271 ° 0 min 0,000 mm 0,5 UV-I 69 W/m² 5,0 °C 6,2 °C 4,8 km/h (1 Bft)
26.04.2018 08:59 6,2 °C 92 % 1015,8 hPa 0,0 mm 2,8 km/h (1 Bft) W 271 ° 0 min 0,000 mm 0,5 UV-I 69 W/m² 5,0 °C 6,2 °C 4,8 km/h (1 Bft)
26.04.2018 09:00 6,2 °C 92 % 1015,8 hPa 0,0 mm 3,7 km/h (1 Bft) W 271 ° 0 min 0,026 mm 0,0 UV-I 67 W/m² 5,0 °C 6,2 °C 4,8 km/h (1 Bft)
26.04.2018 09:01 6,2 °C 92 % 1015,9 hPa 0,0 mm 4,5 km/h (1 Bft) W 265 ° 0 min 0,000 mm 0,0 UV-I 65 W/m² 5,0 °C 6,2 °C 6,4 km/h (2 Bft)
26.04.2018 09:02 6,2 °C 92 % 1015,9 hPa 0,0 mm 2,5 km/h (1 Bft) W 265 ° 0 min 0,000 mm 0,0 UV-I 65 W/m² 5,0 °C 6,2 °C 3,2 km/h (1 Bft)
26.04.2018 09:03 6,2 °C 92 % 1015,8 hPa 0,0 mm 0,1 km/h (0 Bft) W 265 ° 0 min 0,000 mm 0,5 UV-I 76 W/m² 5,0 °C 6,2 °C 1,6 km/h (1 Bft)
26.04.2018 09:04 6,2 °C 92 % 1015,8 hPa 0,2 mm 0,1 km/h (0 Bft) W 265 ° 0 min 0,000 mm 0,6 UV-I 81 W/m² 5,0 °C 6,2 °C 1,6 km/h (1 Bft)
26.04.2018 09:05 6,2 °C 92 % 1015,8 hPa 0,0 mm 1,0 km/h (0 Bft) W 265 ° 0 min 0,000 mm 0,6 UV-I 74 W/m² 5,0 °C 6,2 °C 3,2 km/h (1 Bft)
26.04.2018 09:06 6,2 °C 92 % 1015,8 hPa 0,0 mm 0,0 km/h (0 Bft) W 265 ° 0 min 0,000 mm 0,5 UV-I 67 W/m² 5,0 °C 6,2 °C 0,0 km/h (0 Bft)
26.04.2018 09:07 6,2 °C 92 % 1015,8 hPa 0,0 mm 0,1 km/h (0 Bft) W 265 ° 0 min 0,000 mm 0,5 UV-I 65 W/m² 5,0 °C 6,2 °C 1,6 km/h (1 Bft)
26.04.2018 09:08 6,2 °C 92 % 1015,8 hPa 0,0 mm 0,0 km/h (0 Bft) W 265 ° 0 min 0,000 mm 0,5 UV-I 60 W/m² 5,0 °C 6,2 °C 0,0 km/h (0 Bft)
26.04.2018 09:09 6,2 °C 92 % 1015,8 hPa 0,0 mm 0,2 km/h (0 Bft) W 265 ° 0 min 0,000 mm 0,0 UV-I 46 W/m² 5,0 °C 6,2 °C 1,6 km/h (1 Bft)
26.04.2018 09:10 6,3 °C 92 % 1015,9 hPa 0,0 mm 2,6 km/h (1 Bft) W 265 ° 0 min 0,000 mm 0,0 UV-I 46 W/m² 5,1 °C 6,3 °C 3,2 km/h (1 Bft)
26.04.2018 09:11 6,4 °C 92 % 1015,9 hPa 0,0 mm 3,0 km/h (1 Bft) W 260 ° 0 min 0,000 mm 0,0 UV-I 47 W/m² 5,2 °C 6,4 °C 4,8 km/h (1 Bft)
26.04.2018 09:12 6,3 °C 92 % 1015,9 hPa 0,0 mm 0,0 km/h (0 Bft) W 260 ° 0 min 0,000 mm 0,0 UV-I 51 W/m² 5,1 °C 6,3 °C 0,0 km/h (0 Bft)
26.04.2018 09:13 6,3 °C 92 % 1015,9 hPa 0,2 mm 0,0 km/h (0 Bft) W 260 ° 0 min 0,000 mm 0,0 UV-I 49 W/m² 5,1 °C 6,3 °C 0,0 km/h (0 Bft)
26.04.2018 09:14 6,3 °C 92 % 1015,9 hPa 0,0 mm 0,4 km/h (0 Bft) W 260 ° 0 min 0,000 mm 0,0 UV-I 51 W/m² 5,1 °C 6,3 °C 3,2 km/h (1 Bft)
26.04.2018 09:15 6,4 °C 92 % 1015,9 hPa 0,0 mm 1,2 km/h (1 Bft) W 260 ° 0 min 0,000 mm 0,0 UV-I 47 W/m² 5,2 °C 6,4 °C 3,2 km/h (1 Bft)
26.04.2018 09:16 6,3 °C 92 % 1015,9 hPa 0,0 mm 2,4 km/h (1 Bft) W 260 ° 0 min 0,000 mm 0,0 UV-I 47 W/m² 5,1 °C 6,3 °C 3,2 km/h (1 Bft)
26.04.2018 09:17 6,3 °C 92 % 1016,0 hPa 0,0 mm 3,2 km/h (1 Bft) W 270 ° 0 min 0,000 mm 0,5 UV-I 65 W/m² 5,1 °C 6,3 °C 4,8 km/h (1 Bft)
26.04.2018 09:18 6,4 °C 92 % 1015,9 hPa 0,0 mm 1,6 km/h (1 Bft) W 270 ° 0 min 0,000 mm 0,6 UV-I 70 W/m² 5,2 °C 6,4 °C 3,2 km/h (1 Bft)
26.04.2018 09:19 6,4 °C 92 % 1015,9 hPa 0,0 mm 1,6 km/h (1 Bft) W-SW 247 ° 0 min 0,000 mm 0,5 UV-I 63 W/m² 5,2 °C 6,4 °C 4,8 km/h (1 Bft)
26.04.2018 09:20 6,3 °C 92 % 1015,9 hPa 0,0 mm 3,2 km/h (1 Bft) SW 225 ° 0 min 0,000 mm 0,5 UV-I 60 W/m² 5,1 °C 6,3 °C 6,4 km/h (2 Bft)
26.04.2018 09:21 6,3 °C 92 % 1015,9 hPa 0,2 mm 1,6 km/h (1 Bft) SW 225 ° 0 min 0,000 mm 0,5 UV-I 60 W/m² 5,1 °C 6,3 °C 3,2 km/h (1 Bft)
26.04.2018 09:22 6,4 °C 92 % 1015,9 hPa 0,0 mm 0,0 km/h (0 Bft) SW 225 ° 0 min 0,000 mm 0,5 UV-I 58 W/m² 5,2 °C 6,4 °C 1,6 km/h (1 Bft)
26.04.2018 09:23 6,4 °C 92 % 1015,9 hPa 0,0 mm 0,0 km/h (0 Bft) N 0 ° 0 min 0,000 mm 0,0 UV-I 54 W/m² 5,2 °C 6,4 °C 0,0 km/h (0 Bft)
26.04.2018 09:27 6,4 °C 92 % 1016,0 hPa 0,0 mm 0,0 km/h (0 Bft) W-SW 241 ° 0 min 0,000 mm 0,0 UV-I 46 W/m² 5,2 °C 6,4 °C 0,0 km/h (0 Bft)
26.04.2018 09:28 6,4 °C 92 % 1016,0 hPa 0,0 mm 0,0 km/h (0 Bft) W-SW 241 ° 0 min 0,000 mm 0,0 UV-I 40 W/m² 5,2 °C 6,4 °C 0,0 km/h (0 Bft)
26.04.2018 09:29 6,4 °C 92 % 1016,0 hPa 0,0 mm 0,2 km/h (0 Bft) W-SW 241 ° 0 min 0,000 mm 0,0 UV-I 44 W/m² 5,2 °C 6,4 °C 1,6 km/h (1 Bft)
26.04.2018 09:30 6,4 °C 93 % 1016,0 hPa 0,2 mm 0,5 km/h (0 Bft) W-SW 241 ° 0 min 0,000 mm 0,0 UV-I 51 W/m² 5,4 °C 6,4 °C 1,6 km/h (1 Bft)
26.04.2018 09:31 6,5 °C 92 % 1016,0 hPa 0,0 mm 0,0 km/h (0 Bft) W-SW 241 ° 0 min 0,000 mm 0,0 UV-I 54 W/m² 5,3 °C 6,5 °C 0,0 km/h (0 Bft)
26.04.2018 09:32 6,5 °C 92 % 1016,0 hPa 0,0 mm 0,0 km/h (0 Bft) W-SW 241 ° 0 min 0,000 mm 0,0 UV-I 46 W/m² 5,3 °C 6,5 °C 0,0 km/h (0 Bft)
26.04.2018 09:33 6,4 °C 92 % 1016,0 hPa 0,0 mm 0,8 km/h (0 Bft) W-SW 241 ° 0 min 0,000 mm 0,0 UV-I 40 W/m² 5,2 °C 6,4 °C 1,6 km/h (1 Bft)
26.04.2018 09:34 6,4 °C 92 % 1016,1 hPa 0,0 mm 0,1 km/h (0 Bft) W-SW 241 ° 0 min 0,000 mm 0,0 UV-I 35 W/m² 5,2 °C 6,4 °C 1,6 km/h (1 Bft)
26.04.2018 09:35 6,4 °C 92 % 1016,1 hPa 0,0 mm 5,0 km/h (1 Bft) W-NW 303 ° 0 min 0,000 mm 0,0 UV-I 33 W/m² 5,2 °C 5,7 °C 8,0 km/h (2 Bft)
26.04.2018 09:36 6,4 °C 92 % 1016,1 hPa 0,0 mm 2,3 km/h (1 Bft) W 261 ° 0 min 0,000 mm 0,0 UV-I 37 W/m² 5,2 °C 6,4 °C 6,4 km/h (2 Bft)
26.04.2018 09:37 6,4 °C 92 % 1016,1 hPa 0,0 mm 5,2 km/h (1 Bft) W-NW 293 ° 0 min 0,000 mm 0,0 UV-I 37 W/m² 5,2 °C 5,6 °C 9,7 km/h (2 Bft)
26.04.2018 09:38 6,5 °C 92 % 1016,2 hPa 0,0 mm 4,8 km/h (1 Bft) W-NW 288 ° 0 min 0,000 mm 0,0 UV-I 47 W/m² 5,3 °C 5,9 °C 6,4 km/h (2 Bft)
26.04.2018 09:39 6,5 °C 92 % 1016,1 hPa 0,2 mm 4,0 km/h (1 Bft) W-NW 290 ° 0 min 0,000 mm 0,0 UV-I 42 W/m² 5,3 °C 6,5 °C 6,4 km/h (2 Bft)
26.04.2018 09:40 6,5 °C 92 % 1016,1 hPa 0,0 mm 1,9 km/h (1 Bft) W-NW 283 ° 0 min 0,000 mm 0,0 UV-I 39 W/m² 5,3 °C 6,5 °C 6,4 km/h (2 Bft)
26.04.2018 09:41 6,6 °C 92 % 1016,1 hPa 0,0 mm 1,4 km/h (1 Bft) W-NW 299 ° 0 min 0,000 mm 0,0 UV-I 40 W/m² 5,4 °C 6,6 °C 4,8 km/h (1 Bft)
26.04.2018 09:42 6,5 °C 92 % 1016,1 hPa 0,0 mm 1,8 km/h (1 Bft) W-NW 295 ° 0 min 0,000 mm 0,0 UV-I 40 W/m² 5,3 °C 6,5 °C 3,2 km/h (1 Bft)
26.04.2018 09:43 6,6 °C 92 % 1016,1 hPa 0,0 mm 2,8 km/h (1 Bft) W-NW 289 ° 0 min 0,000 mm 0,0 UV-I 44 W/m² 5,4 °C 6,6 °C 4,8 km/h (1 Bft)
26.04.2018 09:44 6,6 °C 92 % 1016,1 hPa 0,0 mm 0,4 km/h (0 Bft) W 273 ° 0 min 0,000 mm 0,0 UV-I 37 W/m² 5,4 °C 6,6 °C 1,6 km/h (1 Bft)
26.04.2018 09:45 6,6 °C 92 % 1016,1 hPa 0,0 mm 1,3 km/h (1 Bft) W 274 ° 0 min 0,000 mm 0,0 UV-I 40 W/m² 5,4 °C 6,6 °C 3,2 km/h (1 Bft)
26.04.2018 09:46 6,6 °C 92 % 1016,2 hPa 0,0 mm 2,9 km/h (1 Bft) W 274 ° 0 min 0,000 mm 0,0 UV-I 39 W/m² 5,4 °C 6,6 °C 3,2 km/h (1 Bft)
26.04.2018 09:47 6,6 °C 92 % 1016,2 hPa 0,0 mm 1,1 km/h (1 Bft) W 273 ° 0 min 0,000 mm 0,0 UV-I 32 W/m² 5,4 °C 6,6 °C 3,2 km/h (1 Bft)
26.04.2018 09:48 6,6 °C 92 % 1016,3 hPa 0,0 mm 1,9 km/h (1 Bft) W 273 ° 0 min 0,000 mm 0,0 UV-I 30 W/m² 5,4 °C 6,6 °C 4,8 km/h (1 Bft)
26.04.2018 09:49 6,6 °C 92 % 1016,3 hPa 0,0 mm 2,1 km/h (1 Bft) NW 306 ° 0 min 0,000 mm 0,0 UV-I 30 W/m² 5,4 °C 6,6 °C 4,8 km/h (1 Bft)
26.04.2018 09:50 6,6 °C 92 % 1016,3 hPa 0,2 mm 3,8 km/h (1 Bft) W-SW 252 ° 0 min 0,000 mm 0,0 UV-I 28 W/m² 5,4 °C 6,6 °C 11,3 km/h (2 Bft)
26.04.2018 09:51 6,5 °C 92 % 1016,3 hPa 0,0 mm 7,2 km/h (2 Bft) W-SW 252 ° 0 min 0,000 mm 0,0 UV-I 28 W/m² 5,3 °C 5,1 °C 8,0 km/h (2 Bft)
26.04.2018 09:52 6,5 °C 92 % 1016,3 hPa 0,0 mm 3,2 km/h (1 Bft) W-NW 292 ° 0 min 0,000 mm 0,0 UV-I 35 W/m² 5,3 °C 6,5 °C 4,8 km/h (1 Bft)
26.04.2018 09:53 6,5 °C 92 % 1016,4 hPa 0,0 mm 3,2 km/h (1 Bft) W-NW 292 ° 0 min 0,000 mm 0,0 UV-I 46 W/m² 5,3 °C 6,5 °C 3,2 km/h (1 Bft)
26.04.2018 09:54 6,5 °C 92 % 1016,4 hPa 0,0 mm 1,6 km/h (1 Bft) W-NW 292 ° 0 min 0,000 mm 0,0 UV-I 46 W/m² 5,3 °C 6,5 °C 3,2 km/h (1 Bft)
26.04.2018 09:55 6,6 °C 92 % 1016,3 hPa 0,0 mm 6,4 km/h (2 Bft) W-NW 292 ° 0 min 0,000 mm 0,6 UV-I 58 W/m² 5,4 °C 5,4 °C 11,3 km/h (2 Bft)
26.04.2018 09:56 6,5 °C 92 % 1016,3 hPa 0,0 mm 1,6 km/h (1 Bft) SW 225 ° 0 min 0,000 mm 0,6 UV-I 58 W/m² 5,3 °C 6,5 °C 4,8 km/h (1 Bft)
26.04.2018 09:57 6,4 °C 92 % 1016,3 hPa 0,0 mm 1,6 km/h (1 Bft) SW 225 ° 0 min 0,000 mm 0,6 UV-I 60 W/m² 5,2 °C 6,4 °C 3,2 km/h (1 Bft)
26.04.2018 09:58 6,5 °C 92 % 1016,3 hPa 0,0 mm 8,0 km/h (2 Bft) W-NW 292 ° 0 min 0,000 mm 0,6 UV-I 62 W/m² 5,3 °C 4,9 °C 11,3 km/h (2 Bft)
26.04.2018 10:02 6,4 °C 92 % 1016,3 hPa 0,2 mm 3,2 km/h (1 Bft) SW 233 ° 0 min 0,025 mm 0,7 UV-I 72 W/m² 5,2 °C 6,4 °C 4,8 km/h (1 Bft)
26.04.2018 10:03 6,4 °C 92 % 1016,3 hPa 0,0 mm 1,8 km/h (1 Bft) S-SW 206 ° 0 min 0,000 mm 0,8 UV-I 79 W/m² 5,2 °C 6,4 °C 4,8 km/h (1 Bft)
26.04.2018 10:04 6,5 °C 91 % 1016,3 hPa 0,0 mm 1,7 km/h (1 Bft) W-NW 300 ° 0 min 0,000 mm 0,8 UV-I 86 W/m² 5,1 °C 6,5 °C 3,2 km/h (1 Bft)
26.04.2018 10:05 6,5 °C 92 % 1016,3 hPa 0,0 mm 0,8 km/h (0 Bft) W-NW 300 ° 0 min 0,000 mm 0,9 UV-I 90 W/m² 5,3 °C 6,5 °C 3,2 km/h (1 Bft)
26.04.2018 10:06 6,6 °C 92 % 1016,3 hPa 0,0 mm 3,6 km/h (1 Bft) S-SW 206 ° 0 min 0,000 mm 0,9 UV-I 98 W/m² 5,4 °C 6,6 °C 6,4 km/h (2 Bft)
26.04.2018 10:07 6,6 °C 92 % 1016,2 hPa 0,0 mm 1,2 km/h (1 Bft) S-SW 201 ° 0 min 0,000 mm 0,9 UV-I 105 W/m² 5,4 °C 6,6 °C 4,8 km/h (1 Bft)
26.04.2018 10:08 6,6 °C 91 % 1016,3 hPa 0,0 mm 3,2 km/h (1 Bft) W 259 ° 0 min 0,000 mm 0,9 UV-I 98 W/m² 5,2 °C 6,6 °C 6,4 km/h (2 Bft)
26.04.2018 10:09 6,6 °C 91 % 1016,2 hPa 0,0 mm 4,2 km/h (1 Bft) S-SW 212 ° 0 min 0,000 mm 0,9 UV-I 100 W/m² 5,2 °C 6,6 °C 9,7 km/h (2 Bft)
26.04.2018 10:10 6,6 °C 91 % 1016,2 hPa 0,2 mm 7,3 km/h (2 Bft) SO 136 ° 0 min 0,000 mm 0,9 UV-I 105 W/m² 5,2 °C 5,2 °C 11,3 km/h (2 Bft)
26.04.2018 10:11 6,6 °C 91 % 1016,3 hPa 0,0 mm 0,7 km/h (0 Bft) SO 136 ° 0 min 0,000 mm 0,9 UV-I 107 W/m² 5,2 °C 6,6 °C 3,2 km/h (1 Bft)
26.04.2018 10:12 6,7 °C 91 % 1016,3 hPa 0,0 mm 4,4 km/h (1 Bft) W 268 ° 0 min 0,000 mm 0,9 UV-I 109 W/m² 5,3 °C 6,7 °C 6,4 km/h (2 Bft)
26.04.2018 10:13 6,7 °C 91 % 1016,3 hPa 0,0 mm 3,2 km/h (1 Bft) W 262 ° 0 min 0,000 mm 1,0 UV-I 120 W/m² 5,3 °C 6,7 °C 6,4 km/h (2 Bft)
26.04.2018 10:14 6,8 °C 91 % 1016,3 hPa 0,0 mm 4,3 km/h (1 Bft) W 263 ° 0 min 0,000 mm 1,0 UV-I 125 W/m² 5,4 °C 6,8 °C 6,4 km/h (2 Bft)
26.04.2018 10:15 6,8 °C 91 % 1016,3 hPa 0,0 mm 4,0 km/h (1 Bft) W-SW 253 ° 0 min 0,000 mm 1,0 UV-I 125 W/m² 5,4 °C 6,8 °C 4,8 km/h (1 Bft)
26.04.2018 10:16 6,8 °C 90 % 1016,3 hPa 0,0 mm 4,9 km/h (1 Bft) S 182 ° 0 min 0,000 mm 1,1 UV-I 127 W/m² 5,3 °C 6,2 °C 8,0 km/h (2 Bft)
26.04.2018 10:17 6,8 °C 90 % 1016,3 hPa 0,0 mm 5,2 km/h (1 Bft) W-SW 253 ° 0 min 0,000 mm 1,1 UV-I 130 W/m² 5,3 °C 6,1 °C 11,3 km/h (2 Bft)
26.04.2018 10:18 6,8 °C 90 % 1016,3 hPa 0,0 mm 4,0 km/h (1 Bft) SW 226 ° 0 min 0,000 mm 1,1 UV-I 134 W/m² 5,3 °C 6,8 °C 6,4 km/h (2 Bft)
26.04.2018 10:19 6,8 °C 90 % 1016,4 hPa 0,0 mm 2,8 km/h (1 Bft) W 273 ° 0 min 0,000 mm 1,1 UV-I 132 W/m² 5,3 °C 6,8 °C 8,0 km/h (2 Bft)
26.04.2018 10:20 6,9 °C 90 % 1016,4 hPa 0,2 mm 4,5 km/h (1 Bft) W 262 ° 0 min 0,000 mm 1,2 UV-I 135 W/m² 5,4 °C 6,9 °C 6,4 km/h (2 Bft)
26.04.2018 10:21 6,9 °C 90 % 1016,4 hPa 0,0 mm 4,2 km/h (1 Bft) W-SW 244 ° 0 min 0,000 mm 1,2 UV-I 139 W/m² 5,4 °C 6,9 °C 8,0 km/h (2 Bft)
26.04.2018 10:22 6,9 °C 89 % 1016,4 hPa 0,0 mm 4,4 km/h (1 Bft) W-SW 258 ° 0 min 0,000 mm 1,2 UV-I 139 W/m² 5,2 °C 6,9 °C 6,4 km/h (2 Bft)
26.04.2018 10:23 6,9 °C 89 % 1016,4 hPa 0,0 mm 6,1 km/h (2 Bft) W-SW 245 ° 0 min 0,000 mm 1,1 UV-I 137 W/m² 5,2 °C 5,9 °C 11,3 km/h (2 Bft)
26.04.2018 10:24 6,9 °C 89 % 1016,5 hPa 0,0 mm 2,7 km/h (1 Bft) SW 229 ° 0 min 0,000 mm 1,1 UV-I 130 W/m² 5,2 °C 6,9 °C 4,8 km/h (1 Bft)
26.04.2018 10:25 6,9 °C 89 % 1016,5 hPa 0,0 mm 1,1 km/h (1 Bft) SW 229 ° 0 min 0,000 mm 1,0 UV-I 123 W/m² 5,2 °C 6,9 °C 1,6 km/h (1 Bft)
26.04.2018 10:26 6,9 °C 89 % 1016,5 hPa 0,0 mm 0,0 km/h (0 Bft) SW 229 ° 0 min 0,000 mm 1,0 UV-I 123 W/m² 5,2 °C 6,9 °C 0,0 km/h (0 Bft)
26.04.2018 10:27 7,0 °C 90 % 1016,5 hPa 0,0 mm 1,6 km/h (1 Bft) W-SW 247 ° 0 min 0,000 mm 1,1 UV-I 128 W/m² 5,5 °C 7,0 °C 6,4 km/h (2 Bft)
26.04.2018 10:28 7,1 °C 89 % 1016,5 hPa 0,0 mm 3,2 km/h (1 Bft) W-SW 247 ° 0 min 0,000 mm 1,1 UV-I 128 W/m² 5,4 °C 7,1 °C 6,4 km/h (2 Bft)
26.04.2018 10:29 7,1 °C 89 % 1016,5 hPa 0,0 mm 6,4 km/h (2 Bft) W 270 ° 0 min 0,000 mm 1,1 UV-I 125 W/m² 5,4 °C 6,0 °C 9,7 km/h (2 Bft)
26.04.2018 10:30 7,1 °C 89 % 1016,5 hPa 0,0 mm 3,2 km/h (1 Bft) S-SW 202 ° 0 min 0,000 mm 1,0 UV-I 120 W/m² 5,4 °C 7,1 °C 6,4 km/h (2 Bft)
26.04.2018 10:31 7,1 °C 89 % 1016,6 hPa 0,0 mm 3,2 km/h (1 Bft) W-SW 247 ° 0 min 0,000 mm 1,0 UV-I 118 W/m² 5,4 °C 7,1 °C 4,8 km/h (1 Bft)
26.04.2018 10:32 7,1 °C 90 % 1016,6 hPa 0,2 mm 1,6 km/h (1 Bft) W-SW 247 ° 0 min 0,000 mm 1,1 UV-I 120 W/m² 5,6 °C 7,1 °C 3,2 km/h (1 Bft)
26.04.2018 10:33 7,1 °C 89 % 1016,5 hPa 0,0 mm 3,2 km/h (1 Bft) S-SW 202 ° 0 min 0,000 mm 1,1 UV-I 123 W/m² 5,4 °C 7,1 °C 4,8 km/h (1 Bft)
26.04.2018 10:35 7,1 °C 89 % 1016,6 hPa 0,0 mm 4,8 km/h (1 Bft) W 267 ° 0 min 0,000 mm 1,0 UV-I 114 W/m² 5,4 °C 6,5 °C 4,8 km/h (1 Bft)
26.04.2018 10:36 7,1 °C 89 % 1016,6 hPa 0,0 mm 0,7 km/h (0 Bft) W 267 ° 0 min 0,000 mm 0,9 UV-I 111 W/m² 5,4 °C 7,1 °C 1,6 km/h (1 Bft)
26.04.2018 10:37 7,1 °C 89 % 1016,6 hPa 0,0 mm 4,3 km/h (1 Bft) W-SW 241 ° 0 min 0,000 mm 0,9 UV-I 114 W/m² 5,4 °C 7,1 °C 9,7 km/h (2 Bft)
26.04.2018 10:38 7,1 °C 90 % 1016,6 hPa 0,0 mm 6,1 km/h (2 Bft) S-SW 210 ° 0 min 0,000 mm 1,0 UV-I 120 W/m² 5,6 °C 6,1 °C 12,9 km/h (3 Bft)
26.04.2018 10:39 7,1 °C 89 % 1016,6 hPa 0,0 mm 4,2 km/h (1 Bft) W-SW 240 ° 0 min 0,000 mm 1,0 UV-I 121 W/m² 5,4 °C 7,1 °C 8,0 km/h (2 Bft)
26.04.2018 10:40 7,1 °C 89 % 1016,6 hPa 0,0 mm 3,2 km/h (1 Bft) W-SW 245 ° 0 min 0,000 mm 1,0 UV-I 123 W/m² 5,4 °C 7,1 °C 4,8 km/h (1 Bft)
26.04.2018 10:41 7,1 °C 89 % 1016,6 hPa 0,0 mm 1,6 km/h (1 Bft) W-SW 245 ° 0 min 0,000 mm 1,0 UV-I 123 W/m² 5,4 °C 7,1 °C 1,6 km/h (1 Bft)
26.04.2018 10:42 7,1 °C 89 % 1016,6 hPa 0,0 mm 1,6 km/h (1 Bft) S-SW 202 ° 0 min 0,000 mm 1,1 UV-I 123 W/m² 5,4 °C 7,1 °C 6,4 km/h (2 Bft)
26.04.2018 10:43 7,1 °C 89 % 1016,6 hPa 0,0 mm 3,2 km/h (1 Bft) W-SW 247 ° 0 min 0,000 mm 1,0 UV-I 118 W/m² 5,4 °C 7,1 °C 9,7 km/h (2 Bft)
26.04.2018 10:44 7,0 °C 88 % 1016,6 hPa 0,0 mm 8,0 km/h (2 Bft) W-SW 247 ° 0 min 0,000 mm 1,0 UV-I 121 W/m² 5,2 °C 5,5 °C 12,9 km/h (3 Bft)
26.04.2018 10:45 7,1 °C 88 % 1016,6 hPa 0,2 mm 4,8 km/h (1 Bft) W 270 ° 0 min 0,000 mm 1,1 UV-I 125 W/m² 5,2 °C 6,5 °C 9,7 km/h (2 Bft)
26.04.2018 10:46 7,1 °C 88 % 1016,6 hPa 0,0 mm 3,2 km/h (1 Bft) S-SW 202 ° 0 min 0,000 mm 1,1 UV-I 125 W/m² 5,2 °C 7,1 °C 6,4 km/h (2 Bft)
26.04.2018 10:47 7,0 °C 88 % 1016,7 hPa 0,0 mm 3,2 km/h (1 Bft) W 270 ° 0 min 0,000 mm 1,0 UV-I 121 W/m² 5,2 °C 7,0 °C 4,8 km/h (1 Bft)
26.04.2018 10:48 6,9 °C 88 % 1016,7 hPa 0,0 mm 3,2 km/h (1 Bft) S-SW 202 ° 0 min 0,000 mm 1,0 UV-I 123 W/m² 5,1 °C 6,9 °C 6,4 km/h (2 Bft)
26.04.2018 10:50 7,0 °C 88 % 1016,6 hPa 0,0 mm 4,0 km/h (1 Bft) W-SW 251 ° 0 min 0,000 mm 1,2 UV-I 134 W/m² 5,2 °C 7,0 °C 4,8 km/h (1 Bft)
26.04.2018 10:51 7,0 °C 87 % 1016,6 hPa 0,0 mm 3,1 km/h (1 Bft) S-SW 194 ° 0 min 0,000 mm 1,2 UV-I 139 W/m² 5,0 °C 7,0 °C 6,4 km/h (2 Bft)
26.04.2018 10:52 6,9 °C 87 % 1016,6 hPa 0,0 mm 5,2 km/h (1 Bft) S 178 ° 0 min 0,000 mm 1,2 UV-I 139 W/m² 4,9 °C 6,2 °C 11,3 km/h (2 Bft)
26.04.2018 10:53 7,0 °C 88 % 1016,6 hPa 0,0 mm 5,0 km/h (1 Bft) W-SW 258 ° 0 min 0,000 mm 1,2 UV-I 135 W/m² 5,2 °C 6,4 °C 9,7 km/h (2 Bft)
26.04.2018 10:54 7,0 °C 88 % 1016,6 hPa 0,0 mm 5,5 km/h (1 Bft) W 261 ° 0 min 0,000 mm 1,2 UV-I 132 W/m² 5,2 °C 6,2 °C 11,3 km/h (2 Bft)
26.04.2018 10:55 7,1 °C 88 % 1016,6 hPa 0,0 mm 6,6 km/h (2 Bft) W 260 ° 0 min 0,000 mm 1,2 UV-I 135 W/m² 5,2 °C 6,0 °C 11,3 km/h (2 Bft)
26.04.2018 10:56 7,1 °C 88 % 1016,6 hPa 0,0 mm 0,0 km/h (0 Bft) W 260 ° 0 min 0,000 mm 1,2 UV-I 135 W/m² 5,2 °C 7,1 °C 0,0 km/h (0 Bft)
26.04.2018 10:57 7,0 °C 88 % 1016,7 hPa 0,0 mm 3,2 km/h (1 Bft) W 270 ° 0 min 0,000 mm 1,3 UV-I 148 W/m² 5,2 °C 7,0 °C 6,4 km/h (2 Bft)
26.04.2018 10:58 7,1 °C 88 % 1016,7 hPa 0,0 mm 1,6 km/h (1 Bft) W-SW 247 ° 0 min 0,000 mm 1,3 UV-I 149 W/m² 5,2 °C 7,1 °C 9,7 km/h (2 Bft)
26.04.2018 10:59 7,1 °C 88 % 1016,7 hPa 0,0 mm 4,8 km/h (1 Bft) S 180 ° 0 min 0,000 mm 1,3 UV-I 149 W/m² 5,2 °C 6,5 °C 11,3 km/h (2 Bft)
26.04.2018 11:00 7,1 °C 87 % 1016,7 hPa 0,0 mm 6,4 km/h (2 Bft) S-SW 202 ° 0 min 0,051 mm 1,4 UV-I 153 W/m² 5,1 °C 6,0 °C 12,9 km/h (3 Bft)
26.04.2018 11:01 7,2 °C 88 % 1016,7 hPa 0,0 mm 4,8 km/h (1 Bft) W-SW 247 ° 0 min 0,000 mm 1,4 UV-I 149 W/m² 5,3 °C 6,7 °C 8,0 km/h (2 Bft)
26.04.2018 11:02 7,2 °C 88 % 1016,7 hPa 0,2 mm 4,8 km/h (1 Bft) W-SW 247 ° 0 min 0,000 mm 1,4 UV-I 148 W/m² 5,3 °C 6,7 °C 11,3 km/h (2 Bft)
26.04.2018 11:03 7,3 °C 88 % 1016,7 hPa 0,0 mm 4,8 km/h (1 Bft) W 270 ° 0 min 0,000 mm 1,4 UV-I 146 W/m² 5,4 °C 6,8 °C 6,4 km/h (2 Bft)
26.04.2018 11:05 7,3 °C 88 % 1016,7 hPa 0,0 mm 4,8 km/h (1 Bft) SW 231 ° 0 min 0,000 mm 1,4 UV-I 172 W/m² 5,4 °C 6,8 °C 6,4 km/h (2 Bft)
26.04.2018 11:06 7,3 °C 87 % 1016,7 hPa 0,0 mm 6,7 km/h (2 Bft) W-SW 242 ° 0 min 0,000 mm 1,5 UV-I 176 W/m² 5,3 °C 6,2 °C 12,9 km/h (3 Bft)
26.04.2018 11:07 7,2 °C 86 % 1016,6 hPa 0,0 mm 4,4 km/h (1 Bft) S-SW 194 ° 0 min 0,000 mm 1,5 UV-I 179 W/m² 5,0 °C 7,2 °C 9,7 km/h (2 Bft)
26.04.2018 11:08 7,2 °C 86 % 1016,6 hPa 0,0 mm 4,4 km/h (1 Bft) SW 221 ° 0 min 0,000 mm 1,5 UV-I 179 W/m² 5,0 °C 7,2 °C 8,0 km/h (2 Bft)
26.04.2018 11:09 7,3 °C 87 % 1016,6 hPa 0,0 mm 5,0 km/h (1 Bft) SW 223 ° 0 min 0,000 mm 1,5 UV-I 176 W/m² 5,3 °C 6,7 °C 6,4 km/h (2 Bft)
26.04.2018 11:10 7,3 °C 86 % 1016,6 hPa 0,0 mm 0,9 km/h (0 Bft) SW 223 ° 0 min 0,000 mm 1,5 UV-I 172 W/m² 5,1 °C 7,3 °C 4,8 km/h (1 Bft)
26.04.2018 11:11 7,3 °C 86 % 1016,6 hPa 0,0 mm 0,0 km/h (0 Bft) SW 223 ° 0 min 0,000 mm 1,5 UV-I 172 W/m² 5,1 °C 7,3 °C 0,0 km/h (0 Bft)
26.04.2018 11:12 7,3 °C 86 % 1016,6 hPa 0,0 mm 1,6 km/h (1 Bft) S 180 ° 0 min 0,000 mm 1,6 UV-I 171 W/m² 5,1 °C 7,3 °C 8,0 km/h (2 Bft)
26.04.2018 11:13 7,2 °C 87 % 1016,6 hPa 0,0 mm 6,4 km/h (2 Bft) S 180 ° 0 min 0,000 mm 1,5 UV-I 165 W/m² 5,2 °C 6,1 °C 11,3 km/h (2 Bft)
26.04.2018 11:14 7,2 °C 86 % 1016,6 hPa 0,0 mm 6,4 km/h (2 Bft) W 270 ° 0 min 0,000 mm 1,5 UV-I 162 W/m² 5,0 °C 6,1 °C 8,0 km/h (2 Bft)
26.04.2018 11:15 7,2 °C 86 % 1016,6 hPa 0,0 mm 4,8 km/h (1 Bft) W-SW 247 ° 0 min 0,000 mm 1,5 UV-I 163 W/m² 5,0 °C 6,7 °C 9,7 km/h (2 Bft)
26.04.2018 11:16 7,3 °C 87 % 1016,6 hPa 0,0 mm 3,2 km/h (1 Bft) W-SW 247 ° 0 min 0,000 mm 1,5 UV-I 165 W/m² 5,3 °C 7,3 °C 4,8 km/h (1 Bft)
26.04.2018 11:17 7,3 °C 88 % 1016,6 hPa 0,0 mm 6,4 km/h (2 Bft) W-SW 247 ° 0 min 0,000 mm 1,6 UV-I 163 W/m² 5,4 °C 6,3 °C 11,3 km/h (2 Bft)
26.04.2018 11:18 7,4 °C 87 % 1016,5 hPa 0,0 mm 3,2 km/h (1 Bft) SW 225 ° 0 min 0,000 mm 1,6 UV-I 162 W/m² 5,4 °C 7,4 °C 4,8 km/h (1 Bft)
26.04.2018 11:20 7,4 °C 86 % 1016,6 hPa 0,0 mm 4,3 km/h (1 Bft) SW 219 ° 0 min 0,000 mm 1,6 UV-I 158 W/m² 5,2 °C 7,4 °C 4,8 km/h (1 Bft)
26.04.2018 11:21 7,4 °C 86 % 1016,7 hPa 0,0 mm 1,2 km/h (1 Bft) SW 219 ° 0 min 0,000 mm 1,6 UV-I 160 W/m² 5,2 °C 7,4 °C 4,8 km/h (1 Bft)
26.04.2018 11:22 7,4 °C 86 % 1016,5 hPa 0,0 mm 1,2 km/h (1 Bft) SW 218 ° 0 min 0,000 mm 1,8 UV-I 172 W/m² 5,2 °C 7,4 °C 3,2 km/h (1 Bft)
26.04.2018 11:23 7,4 °C 86 % 1016,6 hPa 0,0 mm 3,4 km/h (1 Bft) W-SW 249 ° 0 min 0,000 mm 1,8 UV-I 179 W/m² 5,2 °C 7,4 °C 11,3 km/h (2 Bft)
26.04.2018 11:24 7,4 °C 87 % 1016,6 hPa 0,0 mm 6,9 km/h (2 Bft) W-SW 240 ° 0 min 0,000 mm 1,8 UV-I 178 W/m² 5,4 °C 6,2 °C 9,7 km/h (2 Bft)
26.04.2018 11:25 7,4 °C 86 % 1016,6 hPa 0,0 mm 3,4 km/h (1 Bft) W-SW 243 ° 0 min 0,000 mm 1,8 UV-I 178 W/m² 5,2 °C 7,4 °C 6,4 km/h (2 Bft)
26.04.2018 11:26 7,5 °C 87 % 1016,6 hPa 0,0 mm 2,7 km/h (1 Bft) W-SW 243 ° 0 min 0,000 mm 1,7 UV-I 176 W/m² 5,5 °C 7,5 °C 4,8 km/h (1 Bft)
26.04.2018 11:27 7,6 °C 87 % 1016,6 hPa 0,0 mm 3,4 km/h (1 Bft) W 260 ° 0 min 0,000 mm 1,7 UV-I 176 W/m² 5,6 °C 7,6 °C 6,4 km/h (2 Bft)
26.04.2018 11:28 7,6 °C 87 % 1016,6 hPa 0,0 mm 6,6 km/h (2 Bft) W 259 ° 0 min 0,000 mm 1,6 UV-I 165 W/m² 5,6 °C 6,5 °C 9,7 km/h (2 Bft)
26.04.2018 11:29 7,6 °C 87 % 1016,7 hPa 0,0 mm 6,5 km/h (2 Bft) SW 222 ° 0 min 0,000 mm 1,6 UV-I 174 W/m² 5,6 °C 6,6 °C 11,3 km/h (2 Bft)
26.04.2018 11:30 7,6 °C 85 % 1016,7 hPa 0,0 mm 3,4 km/h (1 Bft) W-SW 248 ° 0 min 0,000 mm 1,7 UV-I 179 W/m² 5,2 °C 7,6 °C 6,4 km/h (2 Bft)
26.04.2018 11:31 7,6 °C 85 % 1016,7 hPa 0,0 mm 4,2 km/h (1 Bft) S-SW 204 ° 0 min 0,000 mm 1,6 UV-I 176 W/m² 5,2 °C 7,6 °C 6,4 km/h (2 Bft)
26.04.2018 11:32 7,6 °C 85 % 1016,6 hPa 0,0 mm 3,6 km/h (1 Bft) W 277 ° 0 min 0,000 mm 1,6 UV-I 174 W/m² 5,2 °C 7,6 °C 4,8 km/h (1 Bft)
26.04.2018 11:33 7,7 °C 86 % 1016,7 hPa 0,0 mm 7,8 km/h (2 Bft) W-SW 250 ° 0 min 0,000 mm 1,6 UV-I 172 W/m² 5,5 °C 6,4 °C 11,3 km/h (2 Bft)
26.04.2018 11:34 7,7 °C 86 % 1016,7 hPa 0,0 mm 4,5 km/h (1 Bft) W 263 ° 0 min 0,000 mm 1,5 UV-I 171 W/m² 5,5 °C 7,7 °C 9,7 km/h (2 Bft)
26.04.2018 11:35 7,8 °C 86 % 1016,8 hPa 0,0 mm 3,0 km/h (1 Bft) S-SO 167 ° 0 min 0,000 mm 1,4 UV-I 158 W/m² 5,6 °C 7,8 °C 8,0 km/h (2 Bft)
26.04.2018 11:36 7,7 °C 85 % 1016,8 hPa 0,0 mm 8,7 km/h (2 Bft) W-SW 248 ° 0 min 0,000 mm 1,3 UV-I 155 W/m² 5,3 °C 6,1 °C 12,9 km/h (3 Bft)
26.04.2018 11:37 7,7 °C 84 % 1016,8 hPa 0,0 mm 4,3 km/h (1 Bft) W-SW 243 ° 0 min 0,000 mm 1,3 UV-I 156 W/m² 5,2 °C 7,7 °C 8,0 km/h (2 Bft)
26.04.2018 11:38 7,7 °C 83 % 1016,8 hPa 0,0 mm 5,2 km/h (1 Bft) S-SW 202 ° 0 min 0,000 mm 1,4 UV-I 160 W/m² 5,0 °C 7,1 °C 8,0 km/h (2 Bft)
26.04.2018 11:39 7,7 °C 84 % 1016,8 hPa 0,0 mm 11,9 km/h (2 Bft) W-SW 242 ° 0 min 0,000 mm 1,4 UV-I 162 W/m² 5,2 °C 5,5 °C 17,7 km/h (3 Bft)
26.04.2018 11:40 7,6 °C 83 % 1016,7 hPa 0,0 mm 10,0 km/h (2 Bft) SW 232 ° 0 min 0,000 mm 1,4 UV-I 160 W/m² 4,9 °C 5,8 °C 16,1 km/h (3 Bft)
26.04.2018 11:41 7,7 °C 83 % 1016,7 hPa 0,0 mm 10,1 km/h (2 Bft) W-SW 250 ° 0 min 0,000 mm 1,3 UV-I 151 W/m² 5,0 °C 5,9 °C 12,9 km/h (3 Bft)
26.04.2018 11:42 7,7 °C 84 % 1016,8 hPa 0,0 mm 6,2 km/h (2 Bft) W 269 ° 0 min 0,000 mm 1,3 UV-I 151 W/m² 5,2 °C 6,8 °C 11,3 km/h (2 Bft)
26.04.2018 11:43 7,7 °C 84 % 1016,8 hPa 0,0 mm 12,6 km/h (3 Bft) W 280 ° 0 min 0,000 mm 1,3 UV-I 146 W/m² 5,2 °C 5,4 °C 20,9 km/h (4 Bft)
26.04.2018 11:44 7,7 °C 82 % 1016,8 hPa 0,0 mm 9,3 km/h (2 Bft) W-SW 251 ° 0 min 0,000 mm 1,3 UV-I 144 W/m² 4,8 °C 6,0 °C 12,9 km/h (3 Bft)
26.04.2018 11:45 7,6 °C 83 % 1016,8 hPa 0,0 mm 7,5 km/h (2 Bft) W-SW 243 ° 0 min 0,000 mm 1,3 UV-I 142 W/m² 4,9 °C 6,3 °C 11,3 km/h (2 Bft)
26.04.2018 11:46 7,6 °C 83 % 1016,8 hPa 0,0 mm 3,9 km/h (1 Bft) S-SW 204 ° 0 min 0,000 mm 1,2 UV-I 139 W/m² 4,9 °C 7,6 °C 6,4 km/h (2 Bft)
26.04.2018 11:47 7,6 °C 82 % 1016,8 hPa 0,0 mm 5,2 km/h (1 Bft) SW 226 ° 0 min 0,000 mm 1,2 UV-I 135 W/m² 4,7 °C 7,0 °C 9,7 km/h (2 Bft)
26.04.2018 11:48 7,6 °C 82 % 1016,8 hPa 0,0 mm 3,6 km/h (1 Bft) W-SW 247 ° 0 min 0,000 mm 1,2 UV-I 134 W/m² 4,7 °C 7,6 °C 6,4 km/h (2 Bft)
26.04.2018 11:49 7,6 °C 84 % 1016,8 hPa 0,0 mm 4,3 km/h (1 Bft) W-SW 239 ° 0 min 0,000 mm 1,2 UV-I 132 W/m² 5,1 °C 7,6 °C 8,0 km/h (2 Bft)
26.04.2018 11:50 7,6 °C 83 % 1016,8 hPa 0,0 mm 4,6 km/h (1 Bft) S-SW 210 ° 0 min 0,000 mm 1,2 UV-I 128 W/m² 4,9 °C 7,2 °C 8,0 km/h (2 Bft)
26.04.2018 11:51 7,6 °C 83 % 1016,8 hPa 0,0 mm 9,4 km/h (2 Bft) W 273 ° 0 min 0,000 mm 1,1 UV-I 127 W/m² 4,9 °C 5,9 °C 16,1 km/h (3 Bft)
26.04.2018 11:52 7,6 °C 84 % 1016,9 hPa 0,0 mm 6,0 km/h (2 Bft) W-SW 248 ° 0 min 0,000 mm 1,1 UV-I 127 W/m² 5,1 °C 6,7 °C 9,7 km/h (2 Bft)
26.04.2018 11:53 7,6 °C 84 % 1016,9 hPa 0,0 mm 9,6 km/h (2 Bft) W-SW 252 ° 0 min 0,000 mm 1,1 UV-I 123 W/m² 5,1 °C 5,8 °C 19,3 km/h (3 Bft)
26.04.2018 11:54 7,6 °C 83 % 1016,9 hPa 0,0 mm 5,2 km/h (1 Bft) W-SW 258 ° 0 min 0,000 mm 1,1 UV-I 123 W/m² 4,9 °C 7,0 °C 11,3 km/h (2 Bft)
26.04.2018 11:55 7,5 °C 82 % 1016,9 hPa 0,0 mm 3,0 km/h (1 Bft) W-SW 251 ° 0 min 0,000 mm 1,1 UV-I 121 W/m² 4,6 °C 7,5 °C 4,8 km/h (1 Bft)
26.04.2018 11:56 7,5 °C 83 % 1016,9 hPa 0,0 mm 2,4 km/h (1 Bft) W 263 ° 0 min 0,000 mm 1,1 UV-I 121 W/m² 4,8 °C 7,5 °C 4,8 km/h (1 Bft)
26.04.2018 11:57 7,5 °C 83 % 1016,9 hPa 0,0 mm 4,1 km/h (1 Bft) W-SW 246 ° 0 min 0,000 mm 1,1 UV-I 120 W/m² 4,8 °C 7,5 °C 4,8 km/h (1 Bft)
26.04.2018 11:58 7,4 °C 84 % 1016,9 hPa 0,0 mm 3,0 km/h (1 Bft) SW 233 ° 0 min 0,000 mm 1,1 UV-I 120 W/m² 4,9 °C 7,4 °C 4,8 km/h (1 Bft)
26.04.2018 11:59 7,4 °C 84 % 1017,0 hPa 0,0 mm 4,0 km/h (1 Bft) W-SW 243 ° 0 min 0,000 mm 1,1 UV-I 120 W/m² 4,9 °C 7,4 °C 12,9 km/h (3 Bft)
26.04.2018 12:00 7,4 °C 84 % 1016,9 hPa 0,0 mm 5,5 km/h (1 Bft) S-SW 194 ° 0 min 0,076 mm 1,1 UV-I 118 W/m² 4,9 °C 6,6 °C 11,3 km/h (2 Bft)
26.04.2018 12:01 7,4 °C 82 % 1016,9 hPa 0,0 mm 3,7 km/h (1 Bft) S 188 ° 0 min 0,000 mm 1,1 UV-I 118 W/m² 4,5 °C 7,4 °C 6,4 km/h (2 Bft)
26.04.2018 12:02 7,4 °C 83 % 1016,9 hPa 0,0 mm 4,0 km/h (1 Bft) W 281 ° 0 min 0,000 mm 1,1 UV-I 118 W/m² 4,7 °C 7,4 °C 9,7 km/h (2 Bft)
26.04.2018 12:03 7,4 °C 85 % 1017,0 hPa 0,0 mm 6,4 km/h (2 Bft) W-SW 254 ° 0 min 0,000 mm 1,0 UV-I 118 W/m² 5,0 °C 6,4 °C 11,3 km/h (2 Bft)
26.04.2018 12:04 7,4 °C 85 % 1017,0 hPa 0,0 mm 7,7 km/h (2 Bft) W 271 ° 0 min 0,000 mm 1,0 UV-I 118 W/m² 5,0 °C 6,0 °C 11,3 km/h (2 Bft)
26.04.2018 12:05 7,4 °C 85 % 1017,0 hPa 0,0 mm 4,4 km/h (1 Bft) W-SW 255 ° 0 min 0,000 mm 1,1 UV-I 121 W/m² 5,0 °C 7,4 °C 11,3 km/h (2 Bft)
26.04.2018 12:06 7,4 °C 85 % 1017,0 hPa 0,0 mm 6,2 km/h (2 Bft) W-SW 243 ° 0 min 0,000 mm 1,1 UV-I 127 W/m² 5,0 °C 6,4 °C 11,3 km/h (2 Bft)
26.04.2018 12:07 7,4 °C 85 % 1016,9 hPa 0,0 mm 8,0 km/h (2 Bft) W 267 ° 0 min 0,000 mm 1,2 UV-I 130 W/m² 5,0 °C 6,0 °C 16,1 km/h (3 Bft)
26.04.2018 12:08 7,4 °C 83 % 1016,9 hPa 0,2 mm 12,3 km/h (3 Bft) W 271 ° 0 min 0,000 mm 1,2 UV-I 130 W/m² 4,7 °C 5,1 °C 14,5 km/h (3 Bft)
26.04.2018 12:09 7,4 °C 84 % 1016,9 hPa 0,0 mm 4,9 km/h (1 Bft) W-SW 254 ° 0 min 0,000 mm 1,2 UV-I 127 W/m² 4,9 °C 6,8 °C 6,4 km/h (2 Bft)
26.04.2018 12:10 7,4 °C 84 % 1016,9 hPa 0,0 mm 3,4 km/h (1 Bft) W 267 ° 0 min 0,000 mm 1,2 UV-I 128 W/m² 4,9 °C 7,4 °C 4,8 km/h (1 Bft)
26.04.2018 12:11 7,4 °C 85 % 1016,9 hPa 0,0 mm 0,3 km/h (0 Bft) W 266 ° 0 min 0,000 mm 1,2 UV-I 132 W/m² 5,0 °C 7,4 °C 3,2 km/h (1 Bft)
26.04.2018 12:12 7,4 °C 85 % 1016,9 hPa 0,0 mm 1,1 km/h (1 Bft) W-SW 248 ° 0 min 0,000 mm 1,2 UV-I 134 W/m² 5,0 °C 7,4 °C 3,2 km/h (1 Bft)
26.04.2018 12:13 7,4 °C 85 % 1017,0 hPa 0,0 mm 4,2 km/h (1 Bft) W-SW 239 ° 0 min 0,000 mm 1,3 UV-I 137 W/m² 5,0 °C 7,4 °C 11,3 km/h (2 Bft)
26.04.2018 12:14 7,4 °C 84 % 1017,0 hPa 0,0 mm 5,3 km/h (1 Bft) SW 234 ° 0 min 0,000 mm 1,3 UV-I 135 W/m² 4,9 °C 6,7 °C 9,7 km/h (2 Bft)
26.04.2018 12:15 7,4 °C 85 % 1017,0 hPa 0,0 mm 3,6 km/h (1 Bft) W-SW 244 ° 0 min 0,000 mm 1,1 UV-I 123 W/m² 5,0 °C 7,4 °C 6,4 km/h (2 Bft)
26.04.2018 12:16 7,4 °C 85 % 1017,0 hPa 0,0 mm 5,2 km/h (1 Bft) W-SW 252 ° 0 min 0,000 mm 1,1 UV-I 111 W/m² 5,0 °C 6,7 °C 11,3 km/h (2 Bft)
26.04.2018 12:17 7,4 °C 85 % 1017,0 hPa 0,0 mm 4,8 km/h (1 Bft) S 189 ° 0 min 0,000 mm 1,0 UV-I 109 W/m² 5,0 °C 6,9 °C 11,3 km/h (2 Bft)
26.04.2018 12:18 7,4 °C 85 % 1017,0 hPa 0,0 mm 4,2 km/h (1 Bft) S-SW 198 ° 0 min 0,000 mm 1,0 UV-I 105 W/m² 5,0 °C 7,4 °C 9,7 km/h (2 Bft)
26.04.2018 12:19 7,4 °C 85 % 1017,1 hPa 0,0 mm 4,0 km/h (1 Bft) S-SW 198 ° 0 min 0,000 mm 1,0 UV-I 104 W/m² 5,0 °C 7,4 °C 6,4 km/h (2 Bft)
26.04.2018 12:20 7,4 °C 84 % 1017,1 hPa 0,0 mm 2,8 km/h (1 Bft) W 261 ° 0 min 0,000 mm 0,9 UV-I 102 W/m² 4,9 °C 7,4 °C 4,8 km/h (1 Bft)
26.04.2018 12:21 7,4 °C 84 % 1017,2 hPa 0,0 mm 7,4 km/h (2 Bft) W 278 ° 0 min 0,000 mm 0,9 UV-I 100 W/m² 4,9 °C 6,1 °C 12,9 km/h (3 Bft)
26.04.2018 12:22 7,3 °C 84 % 1017,2 hPa 0,0 mm 7,0 km/h (2 Bft) W-SW 252 ° 0 min 0,000 mm 0,9 UV-I 97 W/m² 4,8 °C 6,1 °C 11,3 km/h (2 Bft)
26.04.2018 12:23 7,3 °C 84 % 1017,2 hPa 0,0 mm 7,4 km/h (2 Bft) W 262 ° 0 min 0,000 mm 0,9 UV-I 97 W/m² 4,8 °C 6,0 °C 11,3 km/h (2 Bft)
26.04.2018 12:24 7,3 °C 84 % 1017,2 hPa 0,0 mm 5,8 km/h (2 Bft) W 259 ° 0 min 0,000 mm 0,9 UV-I 98 W/m² 4,8 °C 6,4 °C 9,7 km/h (2 Bft)
26.04.2018 12:25 7,3 °C 84 % 1017,1 hPa 0,0 mm 2,5 km/h (1 Bft) W 273 ° 0 min 0,000 mm 0,9 UV-I 98 W/m² 4,8 °C 7,3 °C 4,8 km/h (1 Bft)
26.04.2018 12:26 7,3 °C 84 % 1017,2 hPa 0,0 mm 3,4 km/h (1 Bft) W 259 ° 0 min 0,000 mm 0,9 UV-I 98 W/m² 4,8 °C 7,3 °C 6,4 km/h (2 Bft)
26.04.2018 12:27 7,2 °C 84 % 1017,2 hPa 0,0 mm 3,4 km/h (1 Bft) W 261 ° 0 min 0,000 mm 0,9 UV-I 98 W/m² 4,7 °C 7,2 °C 6,4 km/h (2 Bft)
26.04.2018 12:28 7,3 °C 85 % 1017,1 hPa 0,0 mm 2,5 km/h (1 Bft) W-SW 254 ° 0 min 0,000 mm 0,9 UV-I 98 W/m² 4,9 °C 7,3 °C 6,4 km/h (2 Bft)
26.04.2018 12:29 7,2 °C 85 % 1017,1 hPa 0,0 mm 3,6 km/h (1 Bft) W-SW 238 ° 0 min 0,000 mm 0,9 UV-I 98 W/m² 4,9 °C 7,2 °C 6,4 km/h (2 Bft)
26.04.2018 12:30 7,2 °C 84 % 1017,2 hPa 0,0 mm 0,2 km/h (0 Bft) W-SW 238 ° 0 min 0,000 mm 0,9 UV-I 102 W/m² 4,7 °C 7,2 °C 1,6 km/h (1 Bft)
26.04.2018 12:31 7,2 °C 85 % 1017,1 hPa 0,0 mm 0,0 km/h (0 Bft) W-SW 238 ° 0 min 0,000 mm 0,9 UV-I 102 W/m² 4,9 °C 7,2 °C 0,0 km/h (0 Bft)
26.04.2018 12:32 7,2 °C 85 % 1017,1 hPa 0,0 mm 0,0 km/h (0 Bft) W-SW 247 ° 0 min 0,000 mm 1,1 UV-I 120 W/m² 4,9 °C 7,2 °C 3,2 km/h (1 Bft)
26.04.2018 12:33 7,2 °C 86 % 1017,1 hPa 0,0 mm 3,2 km/h (1 Bft) W-SW 247 ° 0 min 0,000 mm 1,1 UV-I 134 W/m² 5,0 °C 7,2 °C 4,8 km/h (1 Bft)
26.04.2018 12:34 7,3 °C 86 % 1017,1 hPa 0,0 mm 4,8 km/h (1 Bft) W-SW 247 ° 0 min 0,000 mm 1,2 UV-I 130 W/m² 5,1 °C 6,8 °C 6,4 km/h (2 Bft)
26.04.2018 12:35 7,3 °C 86 % 1017,1 hPa 0,0 mm 3,2 km/h (1 Bft) W 270 ° 0 min 0,000 mm 1,2 UV-I 127 W/m² 5,1 °C 7,3 °C 6,4 km/h (2 Bft)
26.04.2018 12:36 7,3 °C 86 % 1017,2 hPa 0,0 mm 3,2 km/h (1 Bft) W-SW 247 ° 0 min 0,000 mm 1,1 UV-I 121 W/m² 5,1 °C 7,3 °C 6,4 km/h (2 Bft)
26.04.2018 12:37 7,3 °C 85 % 1017,1 hPa 0,0 mm 4,8 km/h (1 Bft) W 270 ° 0 min 0,000 mm 1,1 UV-I 120 W/m² 4,9 °C 6,8 °C 9,7 km/h (2 Bft)
26.04.2018 12:38 7,3 °C 85 % 1017,1 hPa 0,0 mm 3,2 km/h (1 Bft) W-SW 247 ° 0 min 0,000 mm 1,2 UV-I 123 W/m² 4,9 °C 7,3 °C 4,8 km/h (1 Bft)
26.04.2018 12:40 7,3 °C 86 % 1017,1 hPa 0,0 mm 4,8 km/h (1 Bft) W-SW 250 ° 0 min 0,000 mm 1,2 UV-I 130 W/m² 5,1 °C 6,8 °C 4,8 km/h (1 Bft)
26.04.2018 12:41 7,3 °C 86 % 1017,2 hPa 0,0 mm 6,2 km/h (2 Bft) W 267 ° 0 min 0,000 mm 1,2 UV-I 132 W/m² 5,1 °C 6,3 °C 11,3 km/h (2 Bft)
26.04.2018 12:42 7,3 °C 86 % 1017,1 hPa 0,0 mm 6,0 km/h (2 Bft) W 265 ° 0 min 0,000 mm 1,2 UV-I 132 W/m² 5,1 °C 6,4 °C 11,3 km/h (2 Bft)
26.04.2018 12:43 7,3 °C 85 % 1017,1 hPa 0,0 mm 3,6 km/h (1 Bft) W-SW 245 ° 0 min 0,000 mm 1,2 UV-I 128 W/m² 4,9 °C 7,3 °C 6,4 km/h (2 Bft)
26.04.2018 12:44 7,3 °C 85 % 1017,1 hPa 0,0 mm 3,8 km/h (1 Bft) W-SW 257 ° 0 min 0,000 mm 1,2 UV-I 125 W/m² 4,9 °C 7,3 °C 6,4 km/h (2 Bft)
26.04.2018 12:45 7,4 °C 86 % 1017,2 hPa 0,0 mm 1,7 km/h (1 Bft) W-SW 255 ° 0 min 0,000 mm 1,2 UV-I 121 W/m² 5,2 °C 7,4 °C 4,8 km/h (1 Bft)
26.04.2018 12:46 7,4 °C 86 % 1017,2 hPa 0,0 mm 6,4 km/h (2 Bft) W-SW 238 ° 0 min 0,000 mm 1,1 UV-I 116 W/m² 5,2 °C 6,4 °C 12,9 km/h (3 Bft)
26.04.2018 12:47 7,4 °C 85 % 1017,2 hPa 0,0 mm 6,9 km/h (2 Bft) W 271 ° 0 min 0,000 mm 1,2 UV-I 123 W/m² 5,0 °C 6,2 °C 11,3 km/h (2 Bft)
26.04.2018 12:48 7,3 °C 84 % 1017,2 hPa 0,0 mm 4,7 km/h (1 Bft) SW 235 ° 0 min 0,000 mm 1,3 UV-I 134 W/m² 4,8 °C 6,8 °C 11,3 km/h (2 Bft)
26.04.2018 12:49 7,3 °C 85 % 1017,2 hPa 0,0 mm 3,0 km/h (1 Bft) W-SW 239 ° 0 min 0,000 mm 1,3 UV-I 142 W/m² 4,9 °C 7,3 °C 9,7 km/h (2 Bft)
26.04.2018 12:50 7,3 °C 85 % 1017,2 hPa 0,0 mm 6,5 km/h (2 Bft) W-NW 290 ° 0 min 0,000 mm 1,3 UV-I 148 W/m² 4,9 °C 6,2 °C 11,3 km/h (2 Bft)
26.04.2018 12:51 7,3 °C 86 % 1017,2 hPa 0,0 mm 5,2 km/h (1 Bft) W 266 ° 0 min 0,000 mm 1,4 UV-I 162 W/m² 5,1 °C 6,6 °C 11,3 km/h (2 Bft)
26.04.2018 12:52 7,3 °C 86 % 1017,1 hPa 0,0 mm 4,2 km/h (1 Bft) SW 221 ° 0 min 0,000 mm 1,5 UV-I 167 W/m² 5,1 °C 7,3 °C 6,4 km/h (2 Bft)
26.04.2018 12:53 7,3 °C 85 % 1017,2 hPa 0,0 mm 3,8 km/h (1 Bft) NW 309 ° 0 min 0,000 mm 1,5 UV-I 169 W/m² 4,9 °C 7,3 °C 8,0 km/h (2 Bft)
26.04.2018 12:54 7,3 °C 85 % 1017,1 hPa 0,0 mm 5,5 km/h (1 Bft) S-SW 205 ° 0 min 0,000 mm 1,5 UV-I 169 W/m² 4,9 °C 6,5 °C 8,0 km/h (2 Bft)
26.04.2018 12:55 7,3 °C 85 % 1017,1 hPa 0,0 mm 3,8 km/h (1 Bft) W 261 ° 0 min 0,000 mm 1,5 UV-I 169 W/m² 4,9 °C 7,3 °C 6,4 km/h (2 Bft)
26.04.2018 12:56 7,3 °C 85 % 1017,1 hPa 0,0 mm 2,7 km/h (1 Bft) W 261 ° 0 min 0,000 mm 1,4 UV-I 158 W/m² 4,9 °C 7,3 °C 4,8 km/h (1 Bft)
26.04.2018 12:57 7,4 °C 86 % 1017,2 hPa 0,0 mm 3,6 km/h (1 Bft) W 266 ° 0 min 0,000 mm 1,3 UV-I 134 W/m² 5,2 °C 7,4 °C 6,4 km/h (2 Bft)
26.04.2018 12:58 7,4 °C 86 % 1017,2 hPa 0,0 mm 6,2 km/h (2 Bft) S 191 ° 0 min 0,000 mm 1,2 UV-I 135 W/m² 5,2 °C 6,4 °C 9,7 km/h (2 Bft)
26.04.2018 12:59 7,4 °C 85 % 1017,2 hPa 0,0 mm 3,3 km/h (1 Bft) W-SW 254 ° 0 min 0,000 mm 1,2 UV-I 137 W/m² 5,0 °C 7,4 °C 4,8 km/h (1 Bft)
26.04.2018 13:00 7,4 °C 85 % 1017,2 hPa 0,0 mm 4,6 km/h (1 Bft) W-NW 289 ° 0 min 0,000 mm 1,2 UV-I 137 W/m² 5,0 °C 7,0 °C 6,4 km/h (2 Bft)
26.04.2018 13:01 7,4 °C 86 % 1017,2 hPa 0,0 mm 4,6 km/h (1 Bft) W-SW 246 ° 0 min 0,051 mm 1,3 UV-I 149 W/m² 5,2 °C 7,0 °C 6,4 km/h (2 Bft)
26.04.2018 13:02 7,4 °C 86 % 1017,2 hPa 0,0 mm 4,4 km/h (1 Bft) W-SW 248 ° 0 min 0,000 mm 1,5 UV-I 165 W/m² 5,2 °C 7,4 °C 8,0 km/h (2 Bft)
26.04.2018 13:03 7,4 °C 87 % 1017,2 hPa 0,0 mm 4,2 km/h (1 Bft) W 269 ° 0 min 0,000 mm 1,4 UV-I 163 W/m² 5,4 °C 7,4 °C 6,4 km/h (2 Bft)
26.04.2018 13:04 7,5 °C 87 % 1017,2 hPa 0,0 mm 4,4 km/h (1 Bft) W 260 ° 0 min 0,000 mm 1,5 UV-I 167 W/m² 5,5 °C 7,5 °C 9,7 km/h (2 Bft)
26.04.2018 13:05 7,6 °C 86 % 1017,2 hPa 0,0 mm 6,3 km/h (2 Bft) SW 217 ° 0 min 0,000 mm 1,5 UV-I 167 W/m² 5,4 °C 6,6 °C 9,7 km/h (2 Bft)
26.04.2018 13:06 7,6 °C 86 % 1017,1 hPa 0,0 mm 7,1 km/h (2 Bft) S 190 ° 0 min 0,000 mm 1,4 UV-I 162 W/m² 5,4 °C 6,4 °C 9,7 km/h (2 Bft)
26.04.2018 13:07 7,5 °C 85 % 1017,2 hPa 0,0 mm 3,6 km/h (1 Bft) W 269 ° 0 min 0,000 mm 1,4 UV-I 156 W/m² 5,1 °C 7,5 °C 8,0 km/h (2 Bft)
26.04.2018 13:08 7,5 °C 85 % 1017,1 hPa 0,0 mm 6,0 km/h (2 Bft) W 275 ° 0 min 0,000 mm 1,5 UV-I 169 W/m² 5,1 °C 6,6 °C 11,3 km/h (2 Bft)
26.04.2018 13:09 7,5 °C 85 % 1017,1 hPa 0,0 mm 3,4 km/h (1 Bft) W-SW 251 ° 0 min 0,000 mm 1,8 UV-I 200 W/m² 5,1 °C 7,5 °C 4,8 km/h (1 Bft)
26.04.2018 13:10 7,6 °C 85 % 1017,1 hPa 0,0 mm 5,2 km/h (1 Bft) SW 229 ° 0 min 0,000 mm 2,2 UV-I 258 W/m² 5,2 °C 7,0 °C 9,7 km/h (2 Bft)
26.04.2018 13:11 7,6 °C 86 % 1017,1 hPa 0,0 mm 5,5 km/h (1 Bft) W-SW 252 ° 0 min 0,000 mm 2,3 UV-I 265 W/m² 5,4 °C 6,9 °C 9,7 km/h (2 Bft)
26.04.2018 13:12 7,6 °C 86 % 1017,1 hPa 0,0 mm 7,7 km/h (2 Bft) W 281 ° 0 min 0,000 mm 2,3 UV-I 265 W/m² 5,4 °C 6,3 °C 11,3 km/h (2 Bft)
26.04.2018 13:13 7,7 °C 85 % 1017,0 hPa 0,0 mm 2,8 km/h (1 Bft) W 281 ° 0 min 0,000 mm 2,2 UV-I 251 W/m² 5,3 °C 7,7 °C 4,8 km/h (1 Bft)
26.04.2018 13:14 7,7 °C 86 % 1017,0 hPa 0,0 mm 3,4 km/h (1 Bft) W 260 ° 0 min 0,000 mm 2,2 UV-I 248 W/m² 5,5 °C 7,7 °C 4,8 km/h (1 Bft)
26.04.2018 13:15 7,8 °C 86 % 1017,0 hPa 0,0 mm 5,3 km/h (1 Bft) SW 236 ° 0 min 0,000 mm 2,1 UV-I 229 W/m² 5,6 °C 7,2 °C 9,7 km/h (2 Bft)
26.04.2018 13:16 7,8 °C 86 % 1017,0 hPa 0,0 mm 6,1 km/h (2 Bft) S-SW 207 ° 0 min 0,000 mm 1,7 UV-I 197 W/m² 5,6 °C 6,9 °C 11,3 km/h (2 Bft)
26.04.2018 13:17 7,8 °C 85 % 1017,1 hPa 0,0 mm 8,8 km/h (2 Bft) W 271 ° 0 min 0,000 mm 1,5 UV-I 174 W/m² 5,4 °C 6,2 °C 14,5 km/h (3 Bft)
26.04.2018 13:18 7,8 °C 84 % 1017,1 hPa 0,0 mm 8,0 km/h (2 Bft) W-SW 257 ° 0 min 0,000 mm 1,4 UV-I 162 W/m² 5,3 °C 6,4 °C 14,5 km/h (3 Bft)
26.04.2018 13:19 7,7 °C 85 % 1017,1 hPa 0,0 mm 5,9 km/h (2 Bft) W 271 ° 0 min 0,000 mm 1,4 UV-I 153 W/m² 5,3 °C 6,9 °C 11,3 km/h (2 Bft)
26.04.2018 13:20 7,7 °C 83 % 1017,0 hPa 0,0 mm 4,8 km/h (1 Bft) SW 224 ° 0 min 0,000 mm 1,4 UV-I 158 W/m² 5,0 °C 7,2 °C 6,4 km/h (2 Bft)
26.04.2018 13:21 7,6 °C 83 % 1017,1 hPa 0,0 mm 3,5 km/h (1 Bft) W 263 ° 0 min 0,000 mm 1,4 UV-I 163 W/m² 4,9 °C 7,6 °C 9,7 km/h (2 Bft)
26.04.2018 13:22 7,6 °C 84 % 1017,1 hPa 0,0 mm 6,2 km/h (2 Bft) W-NW 296 ° 0 min 0,000 mm 1,4 UV-I 156 W/m² 5,1 °C 6,7 °C 11,3 km/h (2 Bft)
26.04.2018 13:23 7,6 °C 84 % 1017,0 hPa 0,0 mm 6,9 km/h (2 Bft) W-NW 284 ° 0 min 0,000 mm 1,3 UV-I 146 W/m² 5,1 °C 6,5 °C 11,3 km/h (2 Bft)
26.04.2018 13:24 7,6 °C 85 % 1017,0 hPa 0,0 mm 4,3 km/h (1 Bft) W 261 ° 0 min 0,000 mm 1,2 UV-I 137 W/m² 5,2 °C 7,6 °C 6,4 km/h (2 Bft)
26.04.2018 13:25 7,6 °C 84 % 1017,1 hPa 0,0 mm 5,9 km/h (2 Bft) W-SW 257 ° 0 min 0,000 mm 1,2 UV-I 130 W/m² 5,1 °C 6,7 °C 11,3 km/h (2 Bft)
26.04.2018 13:26 7,6 °C 84 % 1017,1 hPa 0,0 mm 5,3 km/h (1 Bft) S-SW 198 ° 0 min 0,000 mm 1,1 UV-I 132 W/m² 5,1 °C 6,9 °C 8,0 km/h (2 Bft)
26.04.2018 13:27 7,5 °C 83 % 1017,0 hPa 0,0 mm 2,7 km/h (1 Bft) S 191 ° 0 min 0,000 mm 1,2 UV-I 135 W/m² 4,8 °C 7,5 °C 3,2 km/h (1 Bft)
26.04.2018 13:28 7,4 °C 83 % 1017,1 hPa 0,0 mm 2,2 km/h (1 Bft) S 191 ° 0 min 0,000 mm 1,1 UV-I 130 W/m² 4,7 °C 7,4 °C 4,8 km/h (1 Bft)
26.04.2018 13:29 7,4 °C 83 % 1017,1 hPa 0,0 mm 5,6 km/h (1 Bft) W 279 ° 0 min 0,000 mm 1,1 UV-I 120 W/m² 4,7 °C 6,6 °C 11,3 km/h (2 Bft)
26.04.2018 13:30 7,4 °C 85 % 1017,1 hPa 0,0 mm 5,1 km/h (1 Bft) W-SW 244 ° 0 min 0,000 mm 1,0 UV-I 111 W/m² 5,0 °C 6,8 °C 6,4 km/h (2 Bft)
26.04.2018 13:31 7,4 °C 85 % 1017,1 hPa 0,0 mm 2,9 km/h (1 Bft) W 274 ° 0 min 0,000 mm 0,9 UV-I 105 W/m² 5,0 °C 7,4 °C 4,8 km/h (1 Bft)
26.04.2018 13:32 7,4 °C 85 % 1017,1 hPa 0,0 mm 2,7 km/h (1 Bft) W 281 ° 0 min 0,000 mm 0,9 UV-I 109 W/m² 5,0 °C 7,4 °C 6,4 km/h (2 Bft)
26.04.2018 13:33 7,4 °C 85 % 1017,1 hPa 0,0 mm 4,4 km/h (1 Bft) W-NW 289 ° 0 min 0,000 mm 1,0 UV-I 109 W/m² 5,0 °C 7,4 °C 6,4 km/h (2 Bft)
26.04.2018 13:34 7,4 °C 85 % 1017,1 hPa 0,0 mm 5,4 km/h (1 Bft) W-NW 288 ° 0 min 0,000 mm 1,0 UV-I 113 W/m² 5,0 °C 6,7 °C 8,0 km/h (2 Bft)
26.04.2018 13:35 7,5 °C 86 % 1017,1 hPa 0,0 mm 6,6 km/h (2 Bft) W 276 ° 0 min 0,000 mm 1,0 UV-I 113 W/m² 5,3 °C 6,4 °C 11,3 km/h (2 Bft)
26.04.2018 13:36 7,4 °C 85 % 1017,1 hPa 0,0 mm 5,8 km/h (2 Bft) W 269 ° 0 min 0,000 mm 1,0 UV-I 111 W/m² 5,0 °C 6,5 °C 9,7 km/h (2 Bft)
26.04.2018 13:37 7,5 °C 85 % 1017,1 hPa 0,0 mm 4,1 km/h (1 Bft) W-SW 242 ° 0 min 0,000 mm 1,0 UV-I 113 W/m² 5,1 °C 7,5 °C 11,3 km/h (2 Bft)
26.04.2018 13:38 7,4 °C 85 % 1017,1 hPa 0,0 mm 5,5 km/h (1 Bft) W 262 ° 0 min 0,000 mm 1,0 UV-I 113 W/m² 5,0 °C 6,6 °C 9,7 km/h (2 Bft)
26.04.2018 13:39 7,4 °C 85 % 1017,1 hPa 0,0 mm 4,2 km/h (1 Bft) SW 233 ° 0 min 0,000 mm 0,9 UV-I 107 W/m² 5,0 °C 7,4 °C 6,4 km/h (2 Bft)
26.04.2018 13:40 7,4 °C 85 % 1017,1 hPa 0,0 mm 5,8 km/h (2 Bft) W 273 ° 0 min 0,000 mm 0,9 UV-I 104 W/m² 5,0 °C 6,5 °C 11,3 km/h (2 Bft)
26.04.2018 13:41 7,4 °C 85 % 1017,1 hPa 0,0 mm 4,8 km/h (1 Bft) W 273 ° 0 min 0,000 mm 0,9 UV-I 104 W/m² 5,0 °C 6,9 °C 4,8 km/h (1 Bft)
26.04.2018 13:42 7,3 °C 85 % 1017,1 hPa 0,0 mm 3,2 km/h (1 Bft) W-SW 247 ° 0 min 0,000 mm 0,9 UV-I 98 W/m² 4,9 °C 7,3 °C 6,4 km/h (2 Bft)
26.04.2018 13:43 7,3 °C 86 % 1017,1 hPa 0,0 mm 8,0 km/h (2 Bft) W 270 ° 0 min 0,000 mm 0,9 UV-I 95 W/m² 5,1 °C 5,8 °C 11,3 km/h (2 Bft)
26.04.2018 13:44 7,3 °C 86 % 1017,1 hPa 0,0 mm 3,2 km/h (1 Bft) W 270 ° 0 min 0,000 mm 0,8 UV-I 102 W/m² 5,1 °C 7,3 °C 9,7 km/h (2 Bft)
26.04.2018 13:45 7,3 °C 86 % 1017,1 hPa 0,0 mm 3,2 km/h (1 Bft) W 270 ° 0 min 0,000 mm 1,0 UV-I 107 W/m² 5,1 °C 7,3 °C 4,8 km/h (1 Bft)
26.04.2018 13:46 7,3 °C 86 % 1017,1 hPa 0,0 mm 1,6 km/h (1 Bft) W 270 ° 0 min 0,000 mm 1,0 UV-I 111 W/m² 5,1 °C 7,3 °C 3,2 km/h (1 Bft)
26.04.2018 13:47 7,2 °C 85 % 1017,1 hPa 0,0 mm 3,2 km/h (1 Bft) SW 225 ° 0 min 0,000 mm 1,0 UV-I 113 W/m² 4,9 °C 7,2 °C 4,8 km/h (1 Bft)
26.04.2018 13:48 7,2 °C 85 % 1017,0 hPa 0,0 mm 3,2 km/h (1 Bft) SW 225 ° 0 min 0,000 mm 1,0 UV-I 113 W/m² 4,9 °C 7,2 °C 6,4 km/h (2 Bft)
26.04.2018 13:52 7,3 °C 85 % 1017,0 hPa 0,0 mm 2,0 km/h (1 Bft) W 274 ° 0 min 0,000 mm 1,1 UV-I 121 W/m² 4,9 °C 7,3 °C 4,8 km/h (1 Bft)
26.04.2018 13:53 7,2 °C 86 % 1017,0 hPa 0,0 mm 2,2 km/h (1 Bft) W 275 ° 0 min 0,000 mm 1,1 UV-I 123 W/m² 5,0 °C 7,2 °C 3,2 km/h (1 Bft)
26.04.2018 13:54 7,3 °C 86 % 1017,0 hPa 0,0 mm 3,9 km/h (1 Bft) W-SW 246 ° 0 min 0,000 mm 1,1 UV-I 125 W/m² 5,1 °C 7,3 °C 9,7 km/h (2 Bft)
26.04.2018 13:55 7,3 °C 85 % 1017,0 hPa 0,0 mm 2,4 km/h (1 Bft) W-SW 257 ° 0 min 0,000 mm 1,1 UV-I 125 W/m² 4,9 °C 7,3 °C 4,8 km/h (1 Bft)
26.04.2018 13:56 7,3 °C 86 % 1017,0 hPa 0,0 mm 1,8 km/h (1 Bft) W-SW 257 ° 0 min 0,000 mm 1,1 UV-I 125 W/m² 5,1 °C 7,3 °C 3,2 km/h (1 Bft)
26.04.2018 13:57 7,4 °C 86 % 1017,0 hPa 0,0 mm 1,6 km/h (1 Bft) W-SW 238 ° 0 min 0,000 mm 1,1 UV-I 128 W/m² 5,2 °C 7,4 °C 4,8 km/h (1 Bft)
26.04.2018 13:58 7,4 °C 87 % 1017,0 hPa 0,0 mm 4,0 km/h (1 Bft) W-SW 255 ° 0 min 0,000 mm 1,1 UV-I 128 W/m² 5,4 °C 7,4 °C 6,4 km/h (2 Bft)
26.04.2018 13:59 7,4 °C 86 % 1017,0 hPa 0,0 mm 2,3 km/h (1 Bft) W 263 ° 0 min 0,000 mm 1,1 UV-I 125 W/m² 5,2 °C 7,4 °C 4,8 km/h (1 Bft)
26.04.2018 14:00 7,4 °C 86 % 1017,0 hPa 0,0 mm 3,2 km/h (1 Bft) W 266 ° 0 min 0,000 mm 1,1 UV-I 120 W/m² 5,2 °C 7,4 °C 4,8 km/h (1 Bft)
26.04.2018 14:01 7,4 °C 86 % 1017,0 hPa 0,0 mm 0,5 km/h (0 Bft) W 266 ° 0 min 0,076 mm 1,0 UV-I 118 W/m² 5,2 °C 7,4 °C 1,6 km/h (1 Bft)
26.04.2018 14:02 7,4 °C 85 % 1017,0 hPa 0,0 mm 1,5 km/h (1 Bft) W 266 ° 0 min 0,000 mm 1,1 UV-I 120 W/m² 5,0 °C 7,4 °C 3,2 km/h (1 Bft)
26.04.2018 14:03 7,4 °C 86 % 1017,0 hPa 0,0 mm 3,0 km/h (1 Bft) W 266 ° 0 min 0,000 mm 1,1 UV-I 121 W/m² 5,2 °C 7,4 °C 3,2 km/h (1 Bft)
26.04.2018 14:04 7,6 °C 87 % 1017,0 hPa 0,0 mm 3,8 km/h (1 Bft) W 268 ° 0 min 0,000 mm 1,0 UV-I 118 W/m² 5,6 °C 7,6 °C 9,7 km/h (2 Bft)
26.04.2018 14:05 7,6 °C 85 % 1016,9 hPa 0,0 mm 4,0 km/h (1 Bft) W 268 ° 0 min 0,000 mm 1,0 UV-I 114 W/m² 5,2 °C 7,6 °C 4,8 km/h (1 Bft)
26.04.2018 14:06 7,5 °C 85 % 1016,9 hPa 0,0 mm 3,7 km/h (1 Bft) W 269 ° 0 min 0,000 mm 1,0 UV-I 109 W/m² 5,1 °C 7,5 °C 6,4 km/h (2 Bft)
26.04.2018 14:07 7,5 °C 85 % 1017,0 hPa 0,0 mm 1,5 km/h (1 Bft) W 269 ° 0 min 0,000 mm 0,9 UV-I 113 W/m² 5,1 °C 7,5 °C 3,2 km/h (1 Bft)
26.04.2018 14:08 7,4 °C 84 % 1016,9 hPa 0,0 mm 0,9 km/h (0 Bft) W 269 ° 0 min 0,000 mm 1,0 UV-I 118 W/m² 4,9 °C 7,4 °C 3,2 km/h (1 Bft)
26.04.2018 14:09 7,4 °C 85 % 1017,0 hPa 0,0 mm 1,1 km/h (1 Bft) W 269 ° 0 min 0,000 mm 1,0 UV-I 121 W/m² 5,0 °C 7,4 °C 3,2 km/h (1 Bft)
26.04.2018 14:10 7,4 °C 85 % 1017,0 hPa 0,0 mm 2,3 km/h (1 Bft) W 261 ° 0 min 0,000 mm 1,1 UV-I 121 W/m² 5,0 °C 7,4 °C 6,4 km/h (2 Bft)
26.04.2018 14:11 7,4 °C 85 % 1017,0 hPa 0,0 mm 4,0 km/h (1 Bft) W 270 ° 0 min 0,000 mm 1,1 UV-I 121 W/m² 5,0 °C 7,4 °C 9,7 km/h (2 Bft)
26.04.2018 14:12 7,4 °C 84 % 1016,9 hPa 0,0 mm 3,8 km/h (1 Bft) W-NW 291 ° 0 min 0,000 mm 1,1 UV-I 120 W/m² 4,9 °C 7,4 °C 6,4 km/h (2 Bft)
26.04.2018 14:13 7,4 °C 84 % 1016,9 hPa 0,0 mm 3,2 km/h (1 Bft) W-NW 291 ° 0 min 0,000 mm 1,1 UV-I 128 W/m² 4,9 °C 7,4 °C 4,8 km/h (1 Bft)
26.04.2018 14:14 7,4 °C 85 % 1016,9 hPa 0,0 mm 1,0 km/h (0 Bft) W-NW 291 ° 0 min 0,000 mm 1,2 UV-I 134 W/m² 5,0 °C 7,4 °C 1,6 km/h (1 Bft)
26.04.2018 14:15 7,4 °C 85 % 1016,9 hPa 0,0 mm 2,6 km/h (1 Bft) W 280 ° 0 min 0,000 mm 1,2 UV-I 134 W/m² 5,0 °C 7,4 °C 4,8 km/h (1 Bft)
26.04.2018 14:16 7,6 °C 86 % 1016,8 hPa 0,0 mm 4,8 km/h (1 Bft) W-SW 257 ° 0 min 0,000 mm 1,1 UV-I 130 W/m² 5,4 °C 7,1 °C 9,7 km/h (2 Bft)
26.04.2018 14:17 7,6 °C 85 % 1016,9 hPa 0,0 mm 4,9 km/h (1 Bft) W 259 ° 0 min 0,000 mm 1,1 UV-I 130 W/m² 5,2 °C 7,1 °C 6,4 km/h (2 Bft)
26.04.2018 14:18 7,6 °C 86 % 1016,8 hPa 0,0 mm 2,3 km/h (1 Bft) W 259 ° 0 min 0,000 mm 1,1 UV-I 127 W/m² 5,4 °C 7,6 °C 3,2 km/h (1 Bft)
26.04.2018 14:19 7,6 °C 86 % 1016,9 hPa 0,0 mm 3,2 km/h (1 Bft) W 275 ° 0 min 0,000 mm 1,1 UV-I 125 W/m² 5,4 °C 7,6 °C 6,4 km/h (2 Bft)
26.04.2018 14:20 7,7 °C 86 % 1016,8 hPa 0,0 mm 3,1 km/h (1 Bft) W 263 ° 0 min 0,000 mm 1,0 UV-I 121 W/m² 5,5 °C 7,7 °C 4,8 km/h (1 Bft)
26.04.2018 14:21 7,7 °C 86 % 1016,9 hPa 0,0 mm 3,0 km/h (1 Bft) W 263 ° 0 min 0,000 mm 1,0 UV-I 118 W/m² 5,5 °C 7,7 °C 4,8 km/h (1 Bft)
26.04.2018 14:22 7,7 °C 84 % 1016,9 hPa 0,0 mm 3,6 km/h (1 Bft) W 265 ° 0 min 0,000 mm 1,0 UV-I 121 W/m² 5,2 °C 7,7 °C 4,8 km/h (1 Bft)
26.04.2018 14:23 7,6 °C 85 % 1016,9 hPa 0,0 mm 1,1 km/h (1 Bft) W 265 ° 0 min 0,000 mm 1,1 UV-I 123 W/m² 5,2 °C 7,6 °C 3,2 km/h (1 Bft)
26.04.2018 14:24 7,6 °C 84 % 1016,9 hPa 0,0 mm 3,1 km/h (1 Bft) W 266 ° 0 min 0,000 mm 1,0 UV-I 123 W/m² 5,1 °C 7,6 °C 4,8 km/h (1 Bft)
26.04.2018 14:25 7,6 °C 85 % 1016,9 hPa 0,0 mm 3,7 km/h (1 Bft) W 266 ° 0 min 0,000 mm 1,0 UV-I 121 W/m² 5,2 °C 7,6 °C 4,8 km/h (1 Bft)
26.04.2018 14:26 7,7 °C 85 % 1016,9 hPa 0,0 mm 2,3 km/h (1 Bft) W 266 ° 0 min 0,000 mm 1,0 UV-I 121 W/m² 5,3 °C 7,7 °C 4,8 km/h (1 Bft)
26.04.2018 14:27 7,7 °C 86 % 1016,9 hPa 0,0 mm 4,4 km/h (1 Bft) W-SW 254 ° 0 min 0,000 mm 1,0 UV-I 123 W/m² 5,5 °C 7,7 °C 6,4 km/h (2 Bft)
26.04.2018 14:28 7,7 °C 85 % 1016,9 hPa 0,0 mm 2,5 km/h (1 Bft) W-SW 257 ° 0 min 0,000 mm 1,0 UV-I 123 W/m² 5,3 °C 7,7 °C 4,8 km/h (1 Bft)
26.04.2018 14:29 7,7 °C 84 % 1017,0 hPa 0,0 mm 3,6 km/h (1 Bft) W 262 ° 0 min 0,000 mm 1,0 UV-I 121 W/m² 5,2 °C 7,7 °C 6,4 km/h (2 Bft)
26.04.2018 14:30 7,7 °C 84 % 1017,0 hPa 0,0 mm 4,9 km/h (1 Bft) W 268 ° 0 min 0,000 mm 1,0 UV-I 120 W/m² 5,2 °C 7,2 °C 6,4 km/h (2 Bft)
26.04.2018 14:31 7,7 °C 84 % 1017,0 hPa 0,0 mm 4,1 km/h (1 Bft) W 268 ° 0 min 0,000 mm 1,0 UV-I 120 W/m² 5,2 °C 7,7 °C 6,4 km/h (2 Bft)
26.04.2018 14:32 7,8 °C 85 % 1017,0 hPa 0,0 mm 2,2 km/h (1 Bft) W 268 ° 0 min 0,000 mm 1,0 UV-I 120 W/m² 5,4 °C 7,8 °C 3,2 km/h (1 Bft)
26.04.2018 14:33 7,7 °C 85 % 1016,9 hPa 0,0 mm 3,2 km/h (1 Bft) W 259 ° 0 min 0,000 mm 1,0 UV-I 120 W/m² 5,3 °C 7,7 °C 6,4 km/h (2 Bft)
26.04.2018 14:34 7,8 °C 84 % 1017,0 hPa 0,0 mm 3,0 km/h (1 Bft) W-NW 296 ° 0 min 0,000 mm 1,0 UV-I 121 W/m² 5,3 °C 7,8 °C 8,0 km/h (2 Bft)
26.04.2018 14:35 7,7 °C 84 % 1017,0 hPa 0,0 mm 1,5 km/h (1 Bft) W-NW 296 ° 0 min 0,000 mm 1,0 UV-I 123 W/m² 5,2 °C 7,7 °C 3,2 km/h (1 Bft)
26.04.2018 14:36 7,7 °C 83 % 1017,0 hPa 0,0 mm 2,6 km/h (1 Bft) W-NW 302 ° 0 min 0,000 mm 1,1 UV-I 132 W/m² 5,0 °C 7,7 °C 4,8 km/h (1 Bft)
26.04.2018 14:37 7,7 °C 83 % 1016,9 hPa 0,0 mm 2,6 km/h (1 Bft) W-NW 302 ° 0 min 0,000 mm 1,1 UV-I 135 W/m² 5,0 °C 7,7 °C 4,8 km/h (1 Bft)
26.04.2018 14:38 7,7 °C 83 % 1017,0 hPa 0,0 mm 2,2 km/h (1 Bft) W-NW 302 ° 0 min 0,000 mm 1,2 UV-I 142 W/m² 5,0 °C 7,7 °C 3,2 km/h (1 Bft)
26.04.2018 14:39 7,8 °C 84 % 1016,9 hPa 0,0 mm 0,1 km/h (0 Bft) W-NW 302 ° 0 min 0,000 mm 1,2 UV-I 148 W/m² 5,3 °C 7,8 °C 1,6 km/h (1 Bft)
26.04.2018 14:40 7,8 °C 86 % 1016,9 hPa 0,0 mm 1,0 km/h (0 Bft) W-NW 302 ° 0 min 0,000 mm 1,2 UV-I 149 W/m² 5,6 °C 7,8 °C 3,2 km/h (1 Bft)
26.04.2018 14:41 7,9 °C 85 % 1016,9 hPa 0,0 mm 3,0 km/h (1 Bft) W-NW 302 ° 0 min 0,000 mm 1,2 UV-I 146 W/m² 5,5 °C 7,9 °C 3,2 km/h (1 Bft)
26.04.2018 14:42 7,9 °C 85 % 1016,9 hPa 0,0 mm 2,0 km/h (1 Bft) W-NW 302 ° 0 min 0,000 mm 1,2 UV-I 148 W/m² 5,5 °C 7,9 °C 3,2 km/h (1 Bft)
26.04.2018 14:43 7,9 °C 85 % 1016,9 hPa 0,0 mm 2,5 km/h (1 Bft) W 275 ° 0 min 0,000 mm 1,2 UV-I 149 W/m² 5,5 °C 7,9 °C 4,8 km/h (1 Bft)
26.04.2018 14:44 7,9 °C 85 % 1016,9 hPa 0,0 mm 1,9 km/h (1 Bft) W 279 ° 0 min 0,000 mm 1,2 UV-I 153 W/m² 5,5 °C 7,9 °C 3,2 km/h (1 Bft)
26.04.2018 14:45 7,9 °C 84 % 1016,9 hPa 0,0 mm 0,3 km/h (0 Bft) W 279 ° 0 min 0,000 mm 1,3 UV-I 156 W/m² 5,4 °C 7,9 °C 1,6 km/h (1 Bft)
26.04.2018 14:46 7,9 °C 84 % 1016,9 hPa 0,0 mm 2,7 km/h (1 Bft) W 279 ° 0 min 0,000 mm 1,3 UV-I 163 W/m² 5,4 °C 7,9 °C 4,8 km/h (1 Bft)
26.04.2018 14:47 7,9 °C 84 % 1016,9 hPa 0,0 mm 1,5 km/h (1 Bft) W 279 ° 0 min 0,000 mm 1,3 UV-I 167 W/m² 5,4 °C 7,9 °C 1,6 km/h (1 Bft)
26.04.2018 14:48 7,9 °C 84 % 1016,9 hPa 0,0 mm 1,0 km/h (0 Bft) W 279 ° 0 min 0,000 mm 1,3 UV-I 160 W/m² 5,4 °C 7,9 °C 3,2 km/h (1 Bft)
26.04.2018 14:49 7,9 °C 84 % 1016,9 hPa 0,0 mm 0,0 km/h (0 Bft) W 279 ° 0 min 0,000 mm 1,3 UV-I 160 W/m² 5,4 °C 7,9 °C 0,0 km/h (0 Bft)
26.04.2018 14:50 7,9 °C 84 % 1016,9 hPa 0,0 mm 3,0 km/h (1 Bft) W 279 ° 0 min 0,000 mm 1,3 UV-I 162 W/m² 5,4 °C 7,9 °C 4,8 km/h (1 Bft)
26.04.2018 14:51 8,0 °C 84 % 1016,9 hPa 0,0 mm 2,9 km/h (1 Bft) W 279 ° 0 min 0,000 mm 1,3 UV-I 163 W/m² 5,5 °C 8,0 °C 4,8 km/h (1 Bft)
26.04.2018 14:52 8,1 °C 84 % 1016,8 hPa 0,0 mm 1,0 km/h (0 Bft) W 279 ° 0 min 0,000 mm 1,3 UV-I 160 W/m² 5,6 °C 8,1 °C 1,6 km/h (1 Bft)
26.04.2018 14:53 8,1 °C 84 % 1016,9 hPa 0,0 mm 4,0 km/h (1 Bft) W-NW 286 ° 0 min 0,000 mm 1,3 UV-I 158 W/m² 5,6 °C 8,1 °C 6,4 km/h (2 Bft)
26.04.2018 14:54 8,0 °C 82 % 1016,9 hPa 0,0 mm 3,6 km/h (1 Bft) W-SW 257 ° 0 min 0,000 mm 1,2 UV-I 149 W/m² 5,1 °C 8,0 °C 4,8 km/h (1 Bft)
26.04.2018 14:55 8,0 °C 82 % 1016,8 hPa 0,0 mm 2,6 km/h (1 Bft) W-NW 283 ° 0 min 0,000 mm 1,2 UV-I 151 W/m² 5,1 °C 8,0 °C 3,2 km/h (1 Bft)
26.04.2018 14:56 7,9 °C 83 % 1016,9 hPa 0,0 mm 2,4 km/h (1 Bft) W-NW 292 ° 0 min 0,000 mm 1,3 UV-I 160 W/m² 5,2 °C 7,9 °C 4,8 km/h (1 Bft)
26.04.2018 14:57 8,0 °C 83 % 1016,8 hPa 0,0 mm 4,5 km/h (1 Bft) NW 305 ° 0 min 0,000 mm 1,4 UV-I 176 W/m² 5,3 °C 8,0 °C 8,0 km/h (2 Bft)
26.04.2018 14:58 8,0 °C 84 % 1016,8 hPa 0,0 mm 4,6 km/h (1 Bft) W-NW 288 ° 0 min 0,000 mm 1,5 UV-I 195 W/m² 5,5 °C 7,6 °C 6,4 km/h (2 Bft)
26.04.2018 14:59 8,0 °C 83 % 1016,8 hPa 0,0 mm 1,6 km/h (1 Bft) W-NW 288 ° 0 min 0,000 mm 1,7 UV-I 213 W/m² 5,3 °C 8,0 °C 4,8 km/h (1 Bft)
26.04.2018 15:00 8,1 °C 83 % 1016,9 hPa 0,0 mm 1,4 km/h (1 Bft) W 276 ° 0 min 0,000 mm 1,8 UV-I 239 W/m² 5,4 °C 8,1 °C 3,2 km/h (1 Bft)
26.04.2018 15:01 8,1 °C 83 % 1016,9 hPa 0,0 mm 2,4 km/h (1 Bft) W 276 ° 0 min 0,076 mm 2,0 UV-I 250 W/m² 5,4 °C 8,1 °C 3,2 km/h (1 Bft)
26.04.2018 15:02 8,2 °C 83 % 1016,8 hPa 0,0 mm 3,2 km/h (1 Bft) W 276 ° 0 min 0,000 mm 2,0 UV-I 258 W/m² 5,5 °C 8,2 °C 4,8 km/h (1 Bft)
26.04.2018 15:03 8,2 °C 84 % 1016,8 hPa 0,0 mm 3,0 km/h (1 Bft) W 276 ° 0 min 0,000 mm 2,1 UV-I 264 W/m² 5,7 °C 8,2 °C 4,8 km/h (1 Bft)
26.04.2018 15:04 8,2 °C 83 % 1016,8 hPa 0,0 mm 1,5 km/h (1 Bft) W 276 ° 0 min 0,000 mm 2,1 UV-I 265 W/m² 5,5 °C 8,2 °C 3,2 km/h (1 Bft)
26.04.2018 15:05 8,2 °C 82 % 1016,8 hPa 0,0 mm 0,0 km/h (0 Bft) W 276 ° 0 min 0,000 mm 2,1 UV-I 265 W/m² 5,3 °C 8,2 °C 0,0 km/h (0 Bft)
26.04.2018 15:06 8,1 °C 82 % 1016,8 hPa 0,0 mm 0,0 km/h (0 Bft) W 276 ° 0 min 0,000 mm 2,1 UV-I 269 W/m² 5,2 °C 8,1 °C 0,0 km/h (0 Bft)
26.04.2018 15:07 8,2 °C 83 % 1016,7 hPa 0,0 mm 0,0 km/h (0 Bft) W 276 ° 0 min 0,000 mm 2,1 UV-I 269 W/m² 5,5 °C 8,2 °C 0,0 km/h (0 Bft)
26.04.2018 15:08 8,2 °C 82 % 1016,7 hPa 0,0 mm 0,7 km/h (0 Bft) W-SW 253 ° 0 min 0,000 mm 2,1 UV-I 274 W/m² 5,3 °C 8,2 °C 3,2 km/h (1 Bft)
26.04.2018 15:09 8,3 °C 83 % 1016,7 hPa 0,0 mm 1,2 km/h (1 Bft) W 273 ° 0 min 0,000 mm 2,1 UV-I 274 W/m² 5,6 °C 8,3 °C 4,8 km/h (1 Bft)
26.04.2018 15:10 8,4 °C 84 % 1016,7 hPa 0,0 mm 5,4 km/h (1 Bft) W 269 ° 0 min 0,000 mm 2,0 UV-I 267 W/m² 5,9 °C 7,8 °C 9,7 km/h (2 Bft)
26.04.2018 15:11 8,5 °C 84 % 1016,7 hPa 0,0 mm 2,9 km/h (1 Bft) W 271 ° 0 min 0,000 mm 1,9 UV-I 251 W/m² 6,0 °C 8,5 °C 6,4 km/h (2 Bft)
26.04.2018 15:12 8,6 °C 83 % 1016,8 hPa 0,0 mm 3,7 km/h (1 Bft) W 276 ° 0 min 0,000 mm 1,9 UV-I 236 W/m² 5,9 °C 8,6 °C 6,4 km/h (2 Bft)
26.04.2018 15:13 8,6 °C 83 % 1016,7 hPa 0,0 mm 3,4 km/h (1 Bft) W 278 ° 0 min 0,000 mm 1,8 UV-I 234 W/m² 5,9 °C 8,6 °C 6,4 km/h (2 Bft)
26.04.2018 15:14 8,6 °C 84 % 1016,6 hPa 0,0 mm 1,7 km/h (1 Bft) W 278 ° 0 min 0,000 mm 1,8 UV-I 234 W/m² 6,1 °C 8,6 °C 3,2 km/h (1 Bft)
26.04.2018 15:15 8,7 °C 83 % 1016,7 hPa 0,0 mm 0,6 km/h (0 Bft) W 278 ° 0 min 0,000 mm 1,8 UV-I 230 W/m² 6,0 °C 8,7 °C 1,6 km/h (1 Bft)
26.04.2018 15:16 8,7 °C 83 % 1016,7 hPa 0,0 mm 0,0 km/h (0 Bft) W 278 ° 0 min 0,000 mm 1,7 UV-I 223 W/m² 6,0 °C 8,7 °C 0,0 km/h (0 Bft)
26.04.2018 15:17 8,7 °C 83 % 1016,6 hPa 0,0 mm 0,0 km/h (0 Bft) W 278 ° 0 min 0,000 mm 1,7 UV-I 216 W/m² 6,0 °C 8,7 °C 0,0 km/h (0 Bft)
26.04.2018 15:18 8,8 °C 84 % 1016,6 hPa 0,0 mm 1,1 km/h (1 Bft) W 278 ° 0 min 0,000 mm 1,7 UV-I 220 W/m² 6,2 °C 8,8 °C 3,2 km/h (1 Bft)
26.04.2018 15:19 8,8 °C 84 % 1016,6 hPa 0,0 mm 0,7 km/h (0 Bft) W 278 ° 0 min 0,000 mm 1,7 UV-I 216 W/m² 6,2 °C 8,8 °C 3,2 km/h (1 Bft)
26.04.2018 15:20 8,8 °C 82 % 1016,7 hPa 0,0 mm 2,8 km/h (1 Bft) W 273 ° 0 min 0,000 mm 1,7 UV-I 213 W/m² 5,9 °C 8,8 °C 6,4 km/h (2 Bft)
26.04.2018 15:21 8,8 °C 83 % 1016,7 hPa 0,0 mm 6,0 km/h (2 Bft) W 270 ° 0 min 0,000 mm 1,7 UV-I 218 W/m² 6,1 °C 8,1 °C 9,7 km/h (2 Bft)
26.04.2018 15:22 8,8 °C 84 % 1016,7 hPa 0,0 mm 4,4 km/h (1 Bft) W 275 ° 0 min 0,000 mm 1,8 UV-I 230 W/m² 6,2 °C 8,8 °C 6,4 km/h (2 Bft)
26.04.2018 15:23 8,9 °C 83 % 1016,7 hPa 0,0 mm 1,3 km/h (1 Bft) W 276 ° 0 min 0,000 mm 1,9 UV-I 248 W/m² 6,2 °C 8,9 °C 3,2 km/h (1 Bft)
26.04.2018 15:24 8,9 °C 84 % 1016,6 hPa 0,0 mm 2,3 km/h (1 Bft) W 275 ° 0 min 0,000 mm 1,9 UV-I 250 W/m² 6,3 °C 8,9 °C 3,2 km/h (1 Bft)
26.04.2018 15:25 8,9 °C 83 % 1016,6 hPa 0,0 mm 3,2 km/h (1 Bft) W 276 ° 0 min 0,000 mm 2,0 UV-I 253 W/m² 6,2 °C 8,9 °C 4,8 km/h (1 Bft)
26.04.2018 15:26 8,9 °C 83 % 1016,7 hPa 0,0 mm 4,1 km/h (1 Bft) W 275 ° 0 min 0,000 mm 2,0 UV-I 255 W/m² 6,2 °C 8,9 °C 6,4 km/h (2 Bft)
26.04.2018 15:27 8,9 °C 82 % 1016,7 hPa 0,0 mm 8,4 km/h (2 Bft) W-SW 253 ° 0 min 0,000 mm 2,0 UV-I 258 W/m² 6,0 °C 7,6 °C 14,5 km/h (3 Bft)
26.04.2018 15:28 9,0 °C 81 % 1016,7 hPa 0,0 mm 3,8 km/h (1 Bft) SW 229 ° 0 min 0,000 mm 2,1 UV-I 260 W/m² 5,9 °C 9,0 °C 11,3 km/h (2 Bft)
26.04.2018 15:29 9,1 °C 81 % 1016,7 hPa 0,0 mm 2,7 km/h (1 Bft) W-SW 248 ° 0 min 0,000 mm 2,1 UV-I 258 W/m² 6,0 °C 9,1 °C 4,8 km/h (1 Bft)
26.04.2018 15:30 9,1 °C 82 % 1016,6 hPa 0,0 mm 1,0 km/h (0 Bft) W-SW 248 ° 0 min 0,000 mm 2,0 UV-I 255 W/m² 6,2 °C 9,1 °C 3,2 km/h (1 Bft)
26.04.2018 15:31 9,1 °C 82 % 1016,7 hPa 0,0 mm 7,5 km/h (2 Bft) W 266 ° 0 min 0,000 mm 1,9 UV-I 241 W/m² 6,2 °C 8,1 °C 11,3 km/h (2 Bft)
26.04.2018 15:32 9,2 °C 82 % 1016,7 hPa 0,0 mm 5,0 km/h (1 Bft) W 266 ° 0 min 0,000 mm 1,8 UV-I 229 W/m² 6,3 °C 8,8 °C 9,7 km/h (2 Bft)
26.04.2018 15:33 9,2 °C 80 % 1016,6 hPa 0,0 mm 3,6 km/h (1 Bft) W 275 ° 0 min 0,000 mm 1,7 UV-I 221 W/m² 5,9 °C 9,2 °C 6,4 km/h (2 Bft)
26.04.2018 15:34 9,1 °C 81 % 1016,6 hPa 0,0 mm 2,5 km/h (1 Bft) W 275 ° 0 min 0,000 mm 1,7 UV-I 214 W/m² 6,0 °C 9,1 °C 6,4 km/h (2 Bft)
26.04.2018 15:35 9,2 °C 82 % 1016,7 hPa 0,0 mm 2,7 km/h (1 Bft) W 280 ° 0 min 0,000 mm 1,6 UV-I 207 W/m² 6,3 °C 9,2 °C 4,8 km/h (1 Bft)
26.04.2018 15:36 9,2 °C 83 % 1016,7 hPa 0,0 mm 3,6 km/h (1 Bft) W-NW 284 ° 0 min 0,000 mm 1,5 UV-I 199 W/m² 6,5 °C 9,2 °C 4,8 km/h (1 Bft)
26.04.2018 15:37 9,3 °C 83 % 1016,7 hPa 0,0 mm 3,8 km/h (1 Bft) W 275 ° 0 min 0,000 mm 1,5 UV-I 197 W/m² 6,6 °C 9,3 °C 4,8 km/h (1 Bft)
26.04.2018 15:38 9,3 °C 82 % 1016,7 hPa 0,0 mm 2,6 km/h (1 Bft) W 276 ° 0 min 0,000 mm 1,5 UV-I 202 W/m² 6,4 °C 9,3 °C 4,8 km/h (1 Bft)
26.04.2018 15:39 9,3 °C 81 % 1016,7 hPa 0,0 mm 2,8 km/h (1 Bft) W-SW 239 ° 0 min 0,000 mm 1,6 UV-I 211 W/m² 6,2 °C 9,3 °C 4,8 km/h (1 Bft)
26.04.2018 15:40 9,3 °C 81 % 1016,7 hPa 0,0 mm 0,7 km/h (0 Bft) W-SW 239 ° 0 min 0,000 mm 1,7 UV-I 221 W/m² 6,2 °C 9,3 °C 3,2 km/h (1 Bft)
26.04.2018 15:41 9,3 °C 81 % 1016,6 hPa 0,0 mm 2,9 km/h (1 Bft) W 274 ° 0 min 0,000 mm 1,7 UV-I 229 W/m² 6,2 °C 9,3 °C 4,8 km/h (1 Bft)
26.04.2018 15:42 9,4 °C 82 % 1016,6 hPa 0,0 mm 6,1 km/h (2 Bft) W 273 ° 0 min 0,000 mm 1,8 UV-I 232 W/m² 6,5 °C 8,8 °C 11,3 km/h (2 Bft)
26.04.2018 15:43 9,4 °C 82 % 1016,6 hPa 0,0 mm 4,0 km/h (1 Bft) W 269 ° 0 min 0,000 mm 1,8 UV-I 234 W/m² 6,5 °C 9,4 °C 9,7 km/h (2 Bft)
26.04.2018 15:44 9,4 °C 80 % 1016,6 hPa 0,0 mm 10,9 km/h (2 Bft) W 261 ° 0 min 0,000 mm 1,8 UV-I 236 W/m² 6,1 °C 7,8 °C 14,5 km/h (3 Bft)
26.04.2018 15:45 9,4 °C 79 % 1016,5 hPa 0,0 mm 8,6 km/h (2 Bft) W-NW 295 ° 0 min 0,000 mm 1,8 UV-I 239 W/m² 5,9 °C 8,2 °C 12,9 km/h (3 Bft)
26.04.2018 15:46 9,4 °C 79 % 1016,6 hPa 0,0 mm 11,3 km/h (2 Bft) W 271 ° 0 min 0,000 mm 1,8 UV-I 241 W/m² 5,9 °C 7,7 °C 12,9 km/h (3 Bft)
26.04.2018 15:47 9,5 °C 79 % 1016,6 hPa 0,0 mm 8,2 km/h (2 Bft) W 272 ° 0 min 0,000 mm 1,8 UV-I 237 W/m² 6,0 °C 8,4 °C 12,9 km/h (3 Bft)
26.04.2018 15:48 9,5 °C 79 % 1016,6 hPa 0,0 mm 3,9 km/h (1 Bft) W 270 ° 0 min 0,000 mm 1,9 UV-I 246 W/m² 6,0 °C 9,5 °C 6,4 km/h (2 Bft)
26.04.2018 15:49 9,6 °C 81 % 1016,6 hPa 0,0 mm 2,3 km/h (1 Bft) W 270 ° 0 min 0,000 mm 1,9 UV-I 255 W/m² 6,5 °C 9,6 °C 9,7 km/h (2 Bft)
26.04.2018 15:50 9,7 °C 80 % 1016,6 hPa 0,0 mm 6,9 km/h (2 Bft) W 279 ° 0 min 0,000 mm 1,9 UV-I 258 W/m² 6,4 °C 8,9 °C 9,7 km/h (2 Bft)
26.04.2018 15:51 9,7 °C 79 % 1016,6 hPa 0,0 mm 4,2 km/h (1 Bft) W-SW 252 ° 0 min 0,000 mm 2,0 UV-I 260 W/m² 6,2 °C 9,7 °C 8,0 km/h (2 Bft)
26.04.2018 15:52 9,7 °C 78 % 1016,6 hPa 0,0 mm 3,5 km/h (1 Bft) W-NW 284 ° 0 min 0,000 mm 2,0 UV-I 262 W/m² 6,1 °C 9,7 °C 4,8 km/h (1 Bft)
26.04.2018 15:53 9,7 °C 80 % 1016,6 hPa 0,0 mm 5,2 km/h (1 Bft) W-SW 250 ° 0 min 0,000 mm 2,0 UV-I 258 W/m² 6,4 °C 9,4 °C 9,7 km/h (2 Bft)
26.04.2018 15:54 9,8 °C 80 % 1016,6 hPa 0,0 mm 5,0 km/h (1 Bft) W-SW 258 ° 0 min 0,000 mm 1,9 UV-I 248 W/m² 6,5 °C 9,5 °C 9,7 km/h (2 Bft)
26.04.2018 15:55 9,8 °C 80 % 1016,6 hPa 0,0 mm 2,4 km/h (1 Bft) W-SW 250 ° 0 min 0,000 mm 1,8 UV-I 241 W/m² 6,5 °C 9,8 °C 6,4 km/h (2 Bft)
26.04.2018 15:56 9,9 °C 78 % 1016,6 hPa 0,0 mm 6,6 km/h (2 Bft) W 261 ° 0 min 0,000 mm 1,8 UV-I 237 W/m² 6,2 °C 9,2 °C 11,3 km/h (2 Bft)
26.04.2018 15:57 9,8 °C 77 % 1016,6 hPa 0,0 mm 8,6 km/h (2 Bft) W 275 ° 0 min 0,000 mm 1,8 UV-I 234 W/m² 6,0 °C 8,7 °C 14,5 km/h (3 Bft)
26.04.2018 15:58 9,8 °C 78 % 1016,6 hPa 0,0 mm 7,3 km/h (2 Bft) W-SW 241 ° 0 min 0,000 mm 1,8 UV-I 230 W/m² 6,1 °C 8,9 °C 11,3 km/h (2 Bft)
26.04.2018 15:59 9,8 °C 77 % 1016,6 hPa 0,0 mm 2,9 km/h (1 Bft) SW 235 ° 0 min 0,000 mm 1,7 UV-I 227 W/m² 6,0 °C 9,8 °C 6,4 km/h (2 Bft)
26.04.2018 16:00 9,8 °C 77 % 1016,6 hPa 0,0 mm 3,8 km/h (1 Bft) W 264 ° 0 min 0,000 mm 1,7 UV-I 221 W/m² 6,0 °C 9,8 °C 6,4 km/h (2 Bft)
26.04.2018 16:01 9,8 °C 77 % 1016,7 hPa 0,0 mm 6,4 km/h (2 Bft) W 272 ° 0 min 0,127 mm 1,6 UV-I 216 W/m² 6,0 °C 9,1 °C 11,3 km/h (2 Bft)
26.04.2018 16:02 9,8 °C 77 % 1016,7 hPa 0,0 mm 6,1 km/h (2 Bft) W 276 ° 0 min 0,000 mm 1,6 UV-I 207 W/m² 6,0 °C 9,2 °C 11,3 km/h (2 Bft)
26.04.2018 16:03 9,7 °C 77 % 1016,7 hPa 0,0 mm 4,3 km/h (1 Bft) W-SW 255 ° 0 min 0,000 mm 1,5 UV-I 197 W/m² 5,9 °C 9,7 °C 6,4 km/h (2 Bft)
26.04.2018 16:04 9,7 °C 77 % 1016,7 hPa 0,0 mm 8,1 km/h (2 Bft) W-SW 246 ° 0 min 0,000 mm 1,4 UV-I 178 W/m² 5,9 °C 8,6 °C 12,9 km/h (3 Bft)
26.04.2018 16:05 9,7 °C 77 % 1016,7 hPa 0,0 mm 6,2 km/h (2 Bft) SW 217 ° 0 min 0,000 mm 1,3 UV-I 171 W/m² 5,9 °C 9,1 °C 9,7 km/h (2 Bft)
26.04.2018 16:06 9,7 °C 75 % 1016,7 hPa 0,0 mm 10,7 km/h (2 Bft) W-NW 286 ° 0 min 0,000 mm 1,3 UV-I 169 W/m² 5,5 °C 8,2 °C 17,7 km/h (3 Bft)
26.04.2018 16:07 9,7 °C 74 % 1016,6 hPa 0,0 mm 7,2 km/h (2 Bft) W 273 ° 0 min 0,000 mm 1,3 UV-I 167 W/m² 5,3 °C 8,8 °C 11,3 km/h (2 Bft)
26.04.2018 16:08 9,7 °C 77 % 1016,6 hPa 0,0 mm 5,8 km/h (2 Bft) W 270 ° 0 min 0,000 mm 1,2 UV-I 160 W/m² 5,9 °C 9,2 °C 9,7 km/h (2 Bft)
26.04.2018 16:09 9,7 °C 78 % 1016,6 hPa 0,0 mm 7,6 km/h (2 Bft) W 270 ° 0 min 0,000 mm 1,1 UV-I 151 W/m² 6,1 °C 8,7 °C 12,9 km/h (3 Bft)
26.04.2018 16:10 9,6 °C 76 % 1016,6 hPa 0,0 mm 7,6 km/h (2 Bft) W-NW 286 ° 0 min 0,000 mm 1,1 UV-I 142 W/m² 5,6 °C 8,6 °C 11,3 km/h (2 Bft)
26.04.2018 16:11 9,6 °C 77 % 1016,6 hPa 0,0 mm 4,6 km/h (1 Bft) W-SW 238 ° 0 min 0,000 mm 1,1 UV-I 144 W/m² 5,8 °C 9,4 °C 11,3 km/h (2 Bft)
26.04.2018 16:12 9,6 °C 77 % 1016,6 hPa 0,0 mm 2,4 km/h (1 Bft) SW 236 ° 0 min 0,000 mm 1,1 UV-I 146 W/m² 5,8 °C 9,6 °C 4,8 km/h (1 Bft)
26.04.2018 16:13 9,6 °C 76 % 1016,6 hPa 0,0 mm 2,7 km/h (1 Bft) W 280 ° 0 min 0,000 mm 1,1 UV-I 142 W/m² 5,6 °C 9,6 °C 4,8 km/h (1 Bft)
26.04.2018 16:14 9,6 °C 77 % 1016,6 hPa 0,0 mm 6,3 km/h (2 Bft) W-SW 242 ° 0 min 0,000 mm 1,1 UV-I 141 W/m² 5,8 °C 8,9 °C 12,9 km/h (3 Bft)
26.04.2018 16:15 9,6 °C 78 % 1016,6 hPa 0,0 mm 3,0 km/h (1 Bft) W 268 ° 0 min 0,000 mm 1,1 UV-I 142 W/m² 6,0 °C 9,6 °C 9,7 km/h (2 Bft)
26.04.2018 16:16 9,6 °C 79 % 1016,6 hPa 0,0 mm 4,6 km/h (1 Bft) W-NW 299 ° 0 min 0,000 mm 1,1 UV-I 142 W/m² 6,1 °C 9,4 °C 6,4 km/h (2 Bft)
26.04.2018 16:17 9,6 °C 78 % 1016,6 hPa 0,0 mm 2,7 km/h (1 Bft) SW 234 ° 0 min 0,000 mm 1,0 UV-I 137 W/m² 6,0 °C 9,6 °C 6,4 km/h (2 Bft)
26.04.2018 16:18 9,6 °C 76 % 1016,6 hPa 0,0 mm 8,9 km/h (2 Bft) W-NW 303 ° 0 min 0,000 mm 1,0 UV-I 130 W/m² 5,6 °C 8,4 °C 14,5 km/h (3 Bft)
26.04.2018 16:19 9,6 °C 75 % 1016,6 hPa 0,0 mm 3,0 km/h (1 Bft) W 279 ° 0 min 0,000 mm 0,9 UV-I 125 W/m² 5,4 °C 9,6 °C 6,4 km/h (2 Bft)
26.04.2018 16:20 9,6 °C 75 % 1016,6 hPa 0,0 mm 10,4 km/h (2 Bft) W-NW 289 ° 0 min 0,000 mm 0,9 UV-I 123 W/m² 5,4 °C 8,1 °C 12,9 km/h (3 Bft)
26.04.2018 16:21 9,5 °C 75 % 1016,6 hPa 0,0 mm 9,0 km/h (2 Bft) SW 234 ° 0 min 0,000 mm 0,9 UV-I 123 W/m² 5,3 °C 8,2 °C 11,3 km/h (2 Bft)
26.04.2018 16:22 9,5 °C 77 % 1016,6 hPa 0,0 mm 5,1 km/h (1 Bft) W 277 ° 0 min 0,000 mm 0,9 UV-I 123 W/m² 5,7 °C 9,2 °C 9,7 km/h (2 Bft)
26.04.2018 16:23 9,5 °C 76 % 1016,6 hPa 0,0 mm 3,9 km/h (1 Bft) W-SW 254 ° 0 min 0,000 mm 0,9 UV-I 128 W/m² 5,5 °C 9,5 °C 6,4 km/h (2 Bft)
26.04.2018 16:24 9,5 °C 78 % 1016,6 hPa 0,0 mm 4,0 km/h (1 Bft) NW 309 ° 0 min 0,000 mm 0,9 UV-I 132 W/m² 5,9 °C 9,5 °C 8,0 km/h (2 Bft)
26.04.2018 16:25 9,5 °C 76 % 1016,6 hPa 0,0 mm 2,8 km/h (1 Bft) W 260 ° 0 min 0,000 mm 0,9 UV-I 132 W/m² 5,5 °C 9,5 °C 8,0 km/h (2 Bft)
26.04.2018 16:26 9,5 °C 76 % 1016,6 hPa 0,0 mm 3,7 km/h (1 Bft) W 264 ° 0 min 0,000 mm 1,0 UV-I 137 W/m² 5,5 °C 9,5 °C 4,8 km/h (1 Bft)
26.04.2018 16:27 9,5 °C 77 % 1016,6 hPa 0,0 mm 8,0 km/h (2 Bft) W 277 ° 0 min 0,000 mm 1,0 UV-I 141 W/m² 5,7 °C 8,4 °C 12,9 km/h (3 Bft)
26.04.2018 16:28 9,5 °C 75 % 1016,7 hPa 0,0 mm 6,6 km/h (2 Bft) W-NW 296 ° 0 min 0,000 mm 1,0 UV-I 127 W/m² 5,3 °C 8,7 °C 11,3 km/h (2 Bft)
26.04.2018 16:29 9,5 °C 75 % 1016,7 hPa 0,0 mm 6,3 km/h (2 Bft) W-NW 286 ° 0 min 0,000 mm 0,9 UV-I 127 W/m² 5,3 °C 8,8 °C 11,3 km/h (2 Bft)
26.04.2018 16:30 9,5 °C 76 % 1016,7 hPa 0,0 mm 5,5 km/h (1 Bft) W-SW 255 ° 0 min 0,000 mm 0,9 UV-I 128 W/m² 5,5 °C 9,0 °C 6,4 km/h (2 Bft)
26.04.2018 16:31 9,5 °C 76 % 1016,7 hPa 0,0 mm 2,9 km/h (1 Bft) W-NW 288 ° 0 min 0,000 mm 1,1 UV-I 144 W/m² 5,5 °C 9,5 °C 6,4 km/h (2 Bft)
26.04.2018 16:32 9,6 °C 77 % 1016,7 hPa 0,0 mm 4,5 km/h (1 Bft) W 259 ° 0 min 0,000 mm 1,2 UV-I 158 W/m² 5,8 °C 9,6 °C 9,7 km/h (2 Bft)
26.04.2018 16:33 9,6 °C 77 % 1016,6 hPa 0,0 mm 5,1 km/h (1 Bft) W-SW 242 ° 0 min 0,000 mm 1,2 UV-I 169 W/m² 5,8 °C 9,3 °C 8,0 km/h (2 Bft)
26.04.2018 16:34 9,6 °C 75 % 1016,6 hPa 0,0 mm 3,4 km/h (1 Bft) SW 215 ° 0 min 0,000 mm 1,2 UV-I 162 W/m² 5,4 °C 9,6 °C 6,4 km/h (2 Bft)
26.04.2018 16:35 9,6 °C 76 % 1016,6 hPa 0,0 mm 2,9 km/h (1 Bft) W-SW 251 ° 0 min 0,000 mm 1,2 UV-I 153 W/m² 5,6 °C 9,6 °C 4,8 km/h (1 Bft)
26.04.2018 16:36 9,6 °C 76 % 1016,7 hPa 0,0 mm 5,4 km/h (1 Bft) W-SW 250 ° 0 min 0,000 mm 1,1 UV-I 153 W/m² 5,6 °C 9,2 °C 9,7 km/h (2 Bft)
26.04.2018 16:37 9,6 °C 75 % 1016,7 hPa 0,0 mm 5,3 km/h (1 Bft) W-SW 257 ° 0 min 0,000 mm 1,0 UV-I 139 W/m² 5,4 °C 9,2 °C 9,7 km/h (2 Bft)
26.04.2018 16:38 9,7 °C 74 % 1016,6 hPa 0,0 mm 3,6 km/h (1 Bft) SW 236 ° 0 min 0,000 mm 1,0 UV-I 134 W/m² 5,3 °C 9,7 °C 6,4 km/h (2 Bft)
26.04.2018 16:39 9,6 °C 75 % 1016,6 hPa 0,0 mm 10,6 km/h (2 Bft) W-SW 241 ° 0 min 0,000 mm 1,0 UV-I 134 W/m² 5,4 °C 8,1 °C 12,9 km/h (3 Bft)
26.04.2018 16:40 9,6 °C 74 % 1016,7 hPa 0,0 mm 5,9 km/h (2 Bft) W-SW 254 ° 0 min 0,000 mm 1,0 UV-I 139 W/m² 5,2 °C 9,0 °C 9,7 km/h (2 Bft)
26.04.2018 16:41 9,7 °C 75 % 1016,6 hPa 0,0 mm 5,0 km/h (1 Bft) W-NW 282 ° 0 min 0,000 mm 1,0 UV-I 139 W/m² 5,5 °C 9,4 °C 9,7 km/h (2 Bft)
26.04.2018 16:42 9,6 °C 74 % 1016,6 hPa 0,0 mm 5,8 km/h (2 Bft) W 265 ° 0 min 0,000 mm 1,0 UV-I 142 W/m² 5,2 °C 9,1 °C 11,3 km/h (2 Bft)
26.04.2018 16:43 9,7 °C 73 % 1016,5 hPa 0,0 mm 7,7 km/h (2 Bft) SW 228 ° 0 min 0,000 mm 1,1 UV-I 148 W/m² 5,1 °C 8,7 °C 11,3 km/h (2 Bft)
26.04.2018 16:44 9,6 °C 72 % 1016,5 hPa 0,0 mm 6,6 km/h (2 Bft) SW 227 ° 0 min 0,000 mm 1,1 UV-I 158 W/m² 4,8 °C 8,9 °C 12,9 km/h (3 Bft)
26.04.2018 16:45 9,6 °C 74 % 1016,6 hPa 0,0 mm 8,6 km/h (2 Bft) SW 232 ° 0 min 0,000 mm 1,1 UV-I 141 W/m² 5,2 °C 8,4 °C 12,9 km/h (3 Bft)
26.04.2018 16:46 9,6 °C 72 % 1016,6 hPa 0,0 mm 7,4 km/h (2 Bft) S-SW 207 ° 0 min 0,000 mm 1,0 UV-I 134 W/m² 4,8 °C 8,7 °C 12,9 km/h (3 Bft)
26.04.2018 16:47 9,6 °C 72 % 1016,5 hPa 0,0 mm 3,6 km/h (1 Bft) W-NW 284 ° 0 min 0,000 mm 1,1 UV-I 144 W/m² 4,8 °C 9,6 °C 6,4 km/h (2 Bft)
26.04.2018 16:48 9,7 °C 72 % 1016,5 hPa 0,0 mm 7,4 km/h (2 Bft) W 262 ° 0 min 0,000 mm 1,1 UV-I 148 W/m² 4,9 °C 8,8 °C 14,5 km/h (3 Bft)
26.04.2018 16:49 9,7 °C 74 % 1016,6 hPa 0,0 mm 4,1 km/h (1 Bft) W-SW 254 ° 0 min 0,000 mm 1,1 UV-I 142 W/m² 5,3 °C 9,7 °C 6,4 km/h (2 Bft)
26.04.2018 16:50 9,7 °C 73 % 1016,6 hPa 0,0 mm 5,6 km/h (1 Bft) W-SW 249 ° 0 min 0,000 mm 1,1 UV-I 139 W/m² 5,1 °C 9,2 °C 6,4 km/h (2 Bft)
26.04.2018 16:51 9,7 °C 75 % 1016,5 hPa 0,0 mm 3,7 km/h (1 Bft) W-SW 255 ° 0 min 0,000 mm 1,1 UV-I 146 W/m² 5,5 °C 9,7 °C 4,8 km/h (1 Bft)
26.04.2018 16:52 9,8 °C 75 % 1016,6 hPa 0,0 mm 2,5 km/h (1 Bft) W-SW 248 ° 0 min 0,000 mm 1,1 UV-I 148 W/m² 5,6 °C 9,8 °C 4,8 km/h (1 Bft)
26.04.2018 16:53 9,8 °C 75 % 1016,5 hPa 0,0 mm 0,9 km/h (0 Bft) W-SW 248 ° 0 min 0,000 mm 1,1 UV-I 151 W/m² 5,6 °C 9,8 °C 3,2 km/h (1 Bft)
26.04.2018 16:54 9,8 °C 74 % 1016,5 hPa 0,0 mm 3,3 km/h (1 Bft) W 266 ° 0 min 0,000 mm 1,0 UV-I 144 W/m² 5,4 °C 9,8 °C 9,7 km/h (2 Bft)
26.04.2018 16:55 9,8 °C 75 % 1016,6 hPa 0,0 mm 6,7 km/h (2 Bft) W 267 ° 0 min 0,000 mm 1,0 UV-I 139 W/m² 5,6 °C 9,1 °C 11,3 km/h (2 Bft)
26.04.2018 16:56 9,8 °C 75 % 1016,6 hPa 0,0 mm 9,0 km/h (2 Bft) SW 218 ° 0 min 0,000 mm 1,0 UV-I 142 W/m² 5,6 °C 8,6 °C 12,9 km/h (3 Bft)
26.04.2018 16:57 9,8 °C 73 % 1016,6 hPa 0,0 mm 4,1 km/h (1 Bft) W 276 ° 0 min 0,000 mm 1,0 UV-I 139 W/m² 5,2 °C 9,8 °C 6,4 km/h (2 Bft)
26.04.2018 16:58 9,8 °C 74 % 1016,6 hPa 0,0 mm 6,0 km/h (2 Bft) W-NW 296 ° 0 min 0,000 mm 1,0 UV-I 137 W/m² 5,4 °C 9,2 °C 11,3 km/h (2 Bft)
26.04.2018 16:59 9,8 °C 74 % 1016,6 hPa 0,0 mm 3,4 km/h (1 Bft) W 259 ° 0 min 0,000 mm 1,0 UV-I 139 W/m² 5,4 °C 9,8 °C 4,8 km/h (1 Bft)
26.04.2018 17:00 9,9 °C 74 % 1016,6 hPa 0,0 mm 2,3 km/h (1 Bft) W 268 ° 0 min 0,076 mm 1,0 UV-I 146 W/m² 5,5 °C 9,9 °C 4,8 km/h (1 Bft)
26.04.2018 17:01 9,9 °C 73 % 1016,6 hPa 0,0 mm 1,6 km/h (1 Bft) W-SW 257 ° 0 min 0,000 mm 1,1 UV-I 153 W/m² 5,3 °C 9,9 °C 4,8 km/h (1 Bft)
26.04.2018 17:02 9,9 °C 74 % 1016,5 hPa 0,0 mm 3,5 km/h (1 Bft) W 277 ° 0 min 0,000 mm 1,1 UV-I 151 W/m² 5,5 °C 9,9 °C 6,4 km/h (2 Bft)
26.04.2018 17:03 9,9 °C 74 % 1016,6 hPa 0,0 mm 5,4 km/h (1 Bft) W-SW 251 ° 0 min 0,000 mm 1,0 UV-I 134 W/m² 5,5 °C 9,5 °C 6,4 km/h (2 Bft)
26.04.2018 17:04 9,9 °C 75 % 1016,6 hPa 0,0 mm 5,1 km/h (1 Bft) W 277 ° 0 min 0,000 mm 0,8 UV-I 120 W/m² 5,7 °C 9,6 °C 6,4 km/h (2 Bft)
26.04.2018 17:05 9,9 °C 73 % 1016,6 hPa 0,0 mm 9,1 km/h (2 Bft) W 275 ° 0 min 0,000 mm 0,8 UV-I 111 W/m² 5,3 °C 8,7 °C 12,9 km/h (3 Bft)
26.04.2018 17:06 9,8 °C 71 % 1016,6 hPa 0,0 mm 6,2 km/h (2 Bft) W-NW 282 ° 0 min 0,000 mm 0,7 UV-I 105 W/m² 4,8 °C 9,2 °C 12,9 km/h (3 Bft)
26.04.2018 17:07 9,8 °C 73 % 1016,6 hPa 0,0 mm 3,4 km/h (1 Bft) W 273 ° 0 min 0,000 mm 0,7 UV-I 104 W/m² 5,2 °C 9,8 °C 4,8 km/h (1 Bft)
26.04.2018 17:08 9,8 °C 73 % 1016,6 hPa 0,0 mm 3,8 km/h (1 Bft) W 271 ° 0 min 0,000 mm 0,7 UV-I 102 W/m² 5,2 °C 9,8 °C 9,7 km/h (2 Bft)
26.04.2018 17:09 9,7 °C 72 % 1016,6 hPa 0,0 mm 9,9 km/h (2 Bft) W 277 ° 0 min 0,000 mm 0,7 UV-I 95 W/m² 4,9 °C 8,3 °C 16,1 km/h (3 Bft)
26.04.2018 17:10 9,7 °C 72 % 1016,6 hPa 0,0 mm 7,6 km/h (2 Bft) W-SW 252 ° 0 min 0,000 mm 0,6 UV-I 91 W/m² 4,9 °C 8,7 °C 14,5 km/h (3 Bft)
26.04.2018 17:11 9,7 °C 73 % 1016,7 hPa 0,0 mm 7,4 km/h (2 Bft) W-SW 254 ° 0 min 0,000 mm 0,6 UV-I 88 W/m² 5,1 °C 8,8 °C 9,7 km/h (2 Bft)
26.04.2018 17:12 9,7 °C 72 % 1016,7 hPa 0,0 mm 6,3 km/h (2 Bft) W-SW 244 ° 0 min 0,000 mm 0,6 UV-I 90 W/m² 4,9 °C 9,0 °C 14,5 km/h (3 Bft)
26.04.2018 17:13 9,6 °C 72 % 1016,7 hPa 0,0 mm 6,0 km/h (2 Bft) SW 221 ° 0 min 0,000 mm 0,7 UV-I 100 W/m² 4,8 °C 9,0 °C 11,3 km/h (2 Bft)
26.04.2018 17:14 9,6 °C 72 % 1016,6 hPa 0,0 mm 6,2 km/h (2 Bft) W 262 ° 0 min 0,000 mm 0,8 UV-I 116 W/m² 4,8 °C 9,0 °C 12,9 km/h (3 Bft)
26.04.2018 17:15 9,6 °C 73 % 1016,6 hPa 0,0 mm 9,6 km/h (2 Bft) W-SW 237 ° 0 min 0,000 mm 0,9 UV-I 141 W/m² 5,0 °C 8,2 °C 12,9 km/h (3 Bft)
26.04.2018 17:16 9,6 °C 73 % 1016,6 hPa 0,0 mm 8,6 km/h (2 Bft) W 281 ° 0 min 0,000 mm 1,0 UV-I 148 W/m² 5,0 °C 8,4 °C 12,9 km/h (3 Bft)
26.04.2018 17:17 9,6 °C 74 % 1016,6 hPa 0,0 mm 6,6 km/h (2 Bft) W-SW 255 ° 0 min 0,000 mm 1,0 UV-I 148 W/m² 5,2 °C 8,9 °C 11,3 km/h (2 Bft)
26.04.2018 17:18 9,7 °C 73 % 1016,7 hPa 0,0 mm 2,9 km/h (1 Bft) W-NW 299 ° 0 min 0,000 mm 0,9 UV-I 142 W/m² 5,1 °C 9,7 °C 4,8 km/h (1 Bft)
26.04.2018 17:19 9,7 °C 73 % 1016,6 hPa 0,0 mm 3,6 km/h (1 Bft) W-NW 290 ° 0 min 0,000 mm 0,9 UV-I 137 W/m² 5,1 °C 9,7 °C 4,8 km/h (1 Bft)
26.04.2018 17:20 9,8 °C 72 % 1016,7 hPa 0,0 mm 5,7 km/h (1 Bft) W 271 ° 0 min 0,000 mm 0,9 UV-I 132 W/m² 5,0 °C 9,3 °C 6,4 km/h (2 Bft)
26.04.2018 17:21 9,8 °C 72 % 1016,7 hPa 0,0 mm 4,2 km/h (1 Bft) W-SW 253 ° 0 min 0,000 mm 0,8 UV-I 123 W/m² 5,0 °C 9,8 °C 6,4 km/h (2 Bft)
26.04.2018 17:22 9,8 °C 73 % 1016,7 hPa 0,0 mm 3,1 km/h (1 Bft) W-NW 290 ° 0 min 0,000 mm 0,7 UV-I 116 W/m² 5,2 °C 9,8 °C 6,4 km/h (2 Bft)
26.04.2018 17:23 9,8 °C 73 % 1016,7 hPa 0,0 mm 4,1 km/h (1 Bft) W 279 ° 0 min 0,000 mm 0,7 UV-I 111 W/m² 5,2 °C 9,8 °C 8,0 km/h (2 Bft)
26.04.2018 17:24 9,8 °C 74 % 1016,6 hPa 0,0 mm 3,4 km/h (1 Bft) W-SW 254 ° 0 min 0,000 mm 0,7 UV-I 105 W/m² 5,4 °C 9,8 °C 6,4 km/h (2 Bft)
26.04.2018 17:25 9,8 °C 73 % 1016,6 hPa 0,0 mm 3,8 km/h (1 Bft) W 263 ° 0 min 0,000 mm 0,6 UV-I 100 W/m² 5,2 °C 9,8 °C 4,8 km/h (1 Bft)
26.04.2018 17:26 9,8 °C 72 % 1016,6 hPa 0,0 mm 3,8 km/h (1 Bft) W 273 ° 0 min 0,000 mm 0,7 UV-I 100 W/m² 5,0 °C 9,8 °C 6,4 km/h (2 Bft)
26.04.2018 17:27 9,8 °C 73 % 1016,7 hPa 0,0 mm 5,0 km/h (1 Bft) W-SW 250 ° 0 min 0,000 mm 0,6 UV-I 95 W/m² 5,2 °C 9,5 °C 11,3 km/h (2 Bft)
26.04.2018 17:28 9,8 °C 72 % 1016,6 hPa 0,0 mm 6,7 km/h (2 Bft) W-NW 291 ° 0 min 0,000 mm 0,5 UV-I 84 W/m² 5,0 °C 9,1 °C 9,7 km/h (2 Bft)
26.04.2018 17:29 9,8 °C 72 % 1016,7 hPa 0,0 mm 5,7 km/h (1 Bft) W 270 ° 0 min 0,000 mm 0,5 UV-I 77 W/m² 5,0 °C 9,3 °C 9,7 km/h (2 Bft)
26.04.2018 17:30 9,8 °C 72 % 1016,7 hPa 0,0 mm 6,7 km/h (2 Bft) NW 306 ° 0 min 0,000 mm 0,5 UV-I 81 W/m² 5,0 °C 9,1 °C 9,7 km/h (2 Bft)
26.04.2018 17:31 9,8 °C 72 % 1016,7 hPa 0,0 mm 6,7 km/h (2 Bft) W 269 ° 0 min 0,000 mm 0,6 UV-I 91 W/m² 5,0 °C 9,1 °C 11,3 km/h (2 Bft)
26.04.2018 17:32 9,8 °C 71 % 1016,7 hPa 0,0 mm 7,2 km/h (2 Bft) W 259 ° 0 min 0,000 mm 0,6 UV-I 100 W/m² 4,8 °C 8,9 °C 12,9 km/h (3 Bft)
26.04.2018 17:33 9,8 °C 71 % 1016,7 hPa 0,0 mm 9,6 km/h (2 Bft) W-NW 286 ° 0 min 0,000 mm 0,7 UV-I 104 W/m² 4,8 °C 8,5 °C 16,1 km/h (3 Bft)
26.04.2018 17:34 9,7 °C 72 % 1016,7 hPa 0,0 mm 6,5 km/h (2 Bft) W 280 ° 0 min 0,000 mm 0,7 UV-I 114 W/m² 4,9 °C 9,0 °C 9,7 km/h (2 Bft)
26.04.2018 17:35 9,7 °C 72 % 1016,7 hPa 0,0 mm 3,7 km/h (1 Bft) W 280 ° 0 min 0,000 mm 0,8 UV-I 125 W/m² 4,9 °C 9,7 °C 4,8 km/h (1 Bft)
26.04.2018 17:36 9,8 °C 74 % 1016,7 hPa 0,0 mm 10,9 km/h (2 Bft) W 273 ° 0 min 0,000 mm 0,8 UV-I 123 W/m² 5,4 °C 8,2 °C 14,5 km/h (3 Bft)
26.04.2018 17:37 9,8 °C 72 % 1016,7 hPa 0,0 mm 6,9 km/h (2 Bft) NW 314 ° 0 min 0,000 mm 0,8 UV-I 120 W/m² 5,0 °C 9,0 °C 9,7 km/h (2 Bft)
26.04.2018 17:38 9,8 °C 74 % 1016,7 hPa 0,0 mm 4,9 km/h (1 Bft) W-NW 293 ° 0 min 0,000 mm 0,7 UV-I 114 W/m² 5,4 °C 9,6 °C 6,4 km/h (2 Bft)
26.04.2018 17:39 9,7 °C 75 % 1016,7 hPa 0,0 mm 4,0 km/h (1 Bft) NW 306 ° 0 min 0,000 mm 0,7 UV-I 113 W/m² 5,5 °C 9,7 °C 6,4 km/h (2 Bft)
26.04.2018 17:40 9,7 °C 75 % 1016,7 hPa 0,0 mm 2,0 km/h (1 Bft) NW 306 ° 0 min 0,000 mm 0,7 UV-I 107 W/m² 5,5 °C 9,7 °C 3,2 km/h (1 Bft)
26.04.2018 17:41 9,7 °C 75 % 1016,7 hPa 0,0 mm 1,4 km/h (1 Bft) NW 306 ° 0 min 0,000 mm 0,6 UV-I 105 W/m² 5,5 °C 9,7 °C 3,2 km/h (1 Bft)
26.04.2018 17:42 9,6 °C 77 % 1016,7 hPa 0,0 mm 3,4 km/h (1 Bft) NW 306 ° 0 min 0,000 mm 0,6 UV-I 107 W/m² 5,8 °C 9,6 °C 6,4 km/h (2 Bft)
26.04.2018 17:43 9,7 °C 76 % 1016,7 hPa 0,0 mm 3,3 km/h (1 Bft) W 277 ° 0 min 0,000 mm 0,7 UV-I 114 W/m² 5,7 °C 9,7 °C 4,8 km/h (1 Bft)
26.04.2018 17:44 9,6 °C 75 % 1016,7 hPa 0,0 mm 3,9 km/h (1 Bft) W-NW 290 ° 0 min 0,000 mm 0,7 UV-I 132 W/m² 5,4 °C 9,6 °C 6,4 km/h (2 Bft)
26.04.2018 17:45 9,6 °C 76 % 1016,7 hPa 0,0 mm 3,3 km/h (1 Bft) W-NW 293 ° 0 min 0,000 mm 0,8 UV-I 135 W/m² 5,6 °C 9,6 °C 6,4 km/h (2 Bft)
26.04.2018 17:46 9,7 °C 76 % 1016,7 hPa 0,0 mm 3,9 km/h (1 Bft) W-NW 293 ° 0 min 0,000 mm 0,8 UV-I 137 W/m² 5,7 °C 9,7 °C 6,4 km/h (2 Bft)
26.04.2018 17:47 9,6 °C 75 % 1016,7 hPa 0,0 mm 3,4 km/h (1 Bft) W 275 ° 0 min 0,000 mm 0,7 UV-I 137 W/m² 5,4 °C 9,6 °C 4,8 km/h (1 Bft)
26.04.2018 17:48 9,6 °C 77 % 1016,7 hPa 0,0 mm 0,8 km/h (0 Bft) W 275 ° 0 min 0,000 mm 0,7 UV-I 137 W/m² 5,8 °C 9,6 °C 3,2 km/h (1 Bft)
26.04.2018 17:49 9,7 °C 77 % 1016,7 hPa 0,0 mm 1,5 km/h (1 Bft) W 275 ° 0 min 0,000 mm 0,7 UV-I 128 W/m² 5,9 °C 9,7 °C 3,2 km/h (1 Bft)
26.04.2018 17:50 9,7 °C 76 % 1016,7 hPa 0,0 mm 2,5 km/h (1 Bft) NW 304 ° 0 min 0,000 mm 0,6 UV-I 118 W/m² 5,7 °C 9,7 °C 4,8 km/h (1 Bft)
26.04.2018 17:51 9,7 °C 76 % 1016,7 hPa 0,0 mm 0,7 km/h (0 Bft) NW 304 ° 0 min 0,000 mm 0,6 UV-I 120 W/m² 5,7 °C 9,7 °C 3,2 km/h (1 Bft)
26.04.2018 17:52 9,7 °C 75 % 1016,6 hPa 0,0 mm 0,0 km/h (0 Bft) NW 304 ° 0 min 0,000 mm 0,6 UV-I 114 W/m² 5,5 °C 9,7 °C 0,0 km/h (0 Bft)
26.04.2018 17:53 9,7 °C 76 % 1016,6 hPa 0,0 mm 1,7 km/h (1 Bft) NW 304 ° 0 min 0,000 mm 0,6 UV-I 105 W/m² 5,7 °C 9,7 °C 3,2 km/h (1 Bft)
26.04.2018 17:54 9,7 °C 77 % 1016,6 hPa 0,0 mm 0,0 km/h (0 Bft) NW 304 ° 0 min 0,000 mm 0,6 UV-I 102 W/m² 5,9 °C 9,7 °C 0,0 km/h (0 Bft)
26.04.2018 17:55 9,7 °C 77 % 1016,6 hPa 0,0 mm 0,6 km/h (0 Bft) NW 304 ° 0 min 0,000 mm 0,6 UV-I 100 W/m² 5,9 °C 9,7 °C 1,6 km/h (1 Bft)
26.04.2018 17:56 9,7 °C 76 % 1016,6 hPa 0,0 mm 1,4 km/h (1 Bft) NW 304 ° 0 min 0,000 mm 0,6 UV-I 100 W/m² 5,7 °C 9,7 °C 3,2 km/h (1 Bft)
26.04.2018 17:57 9,7 °C 77 % 1016,6 hPa 0,0 mm 0,2 km/h (0 Bft) NW 304 ° 0 min 0,000 mm 0,6 UV-I 104 W/m² 5,9 °C 9,7 °C 1,6 km/h (1 Bft)
26.04.2018 17:58 9,7 °C 74 % 1016,7 hPa 0,0 mm 2,1 km/h (1 Bft) NW 304 ° 0 min 0,000 mm 0,6 UV-I 105 W/m² 5,3 °C 9,7 °C 4,8 km/h (1 Bft)
26.04.2018 17:59 9,8 °C 75 % 1016,6 hPa 0,0 mm 2,0 km/h (1 Bft) NW 304 ° 0 min 0,000 mm 0,6 UV-I 105 W/m² 5,6 °C 9,8 °C 3,2 km/h (1 Bft)
26.04.2018 18:00 9,8 °C 76 % 1016,6 hPa 0,0 mm 1,9 km/h (1 Bft) NW 304 ° 0 min 0,000 mm 0,6 UV-I 105 W/m² 5,8 °C 9,8 °C 3,2 km/h (1 Bft)
26.04.2018 18:01 9,8 °C 75 % 1016,7 hPa 0,0 mm 2,1 km/h (1 Bft) W-NW 303 ° 0 min 0,077 mm 0,6 UV-I 111 W/m² 5,6 °C 9,8 °C 6,4 km/h (2 Bft)
26.04.2018 18:02 9,7 °C 75 % 1016,7 hPa 0,0 mm 2,4 km/h (1 Bft) W-NW 289 ° 0 min 0,000 mm 0,6 UV-I 113 W/m² 5,5 °C 9,7 °C 8,0 km/h (2 Bft)
26.04.2018 18:03 9,8 °C 75 % 1016,6 hPa 0,0 mm 3,3 km/h (1 Bft) NW 311 ° 0 min 0,000 mm 0,7 UV-I 116 W/m² 5,6 °C 9,8 °C 6,4 km/h (2 Bft)
26.04.2018 18:04 9,8 °C 75 % 1016,7 hPa 0,0 mm 1,8 km/h (1 Bft) NW 311 ° 0 min 0,000 mm 0,7 UV-I 121 W/m² 5,6 °C 9,8 °C 4,8 km/h (1 Bft)
26.04.2018 18:05 9,8 °C 77 % 1016,7 hPa 0,0 mm 1,7 km/h (1 Bft) NW 311 ° 0 min 0,000 mm 0,7 UV-I 118 W/m² 6,0 °C 9,8 °C 3,2 km/h (1 Bft)
26.04.2018 18:06 9,8 °C 76 % 1016,7 hPa 0,0 mm 3,1 km/h (1 Bft) W 272 ° 0 min 0,000 mm 0,6 UV-I 111 W/m² 5,8 °C 9,8 °C 6,4 km/h (2 Bft)
26.04.2018 18:07 9,8 °C 73 % 1016,7 hPa 0,0 mm 6,7 km/h (2 Bft) NW 322 ° 0 min 0,000 mm 0,6 UV-I 107 W/m² 5,2 °C 9,1 °C 14,5 km/h (3 Bft)
26.04.2018 18:08 9,8 °C 74 % 1016,7 hPa 0,0 mm 5,7 km/h (1 Bft) W 280 ° 0 min 0,000 mm 0,6 UV-I 111 W/m² 5,4 °C 9,3 °C 11,3 km/h (2 Bft)
26.04.2018 18:09 9,8 °C 74 % 1016,7 hPa 0,0 mm 1,8 km/h (1 Bft) W 280 ° 0 min 0,000 mm 0,6 UV-I 113 W/m² 5,4 °C 9,8 °C 4,8 km/h (1 Bft)
26.04.2018 18:10 9,9 °C 75 % 1016,8 hPa 0,0 mm 3,6 km/h (1 Bft) W 280 ° 0 min 0,000 mm 0,7 UV-I 118 W/m² 5,7 °C 9,9 °C 6,4 km/h (2 Bft)
26.04.2018 18:11 9,9 °C 73 % 1016,7 hPa 0,0 mm 9,2 km/h (2 Bft) SW 228 ° 0 min 0,000 mm 0,7 UV-I 118 W/m² 5,3 °C 8,7 °C 17,7 km/h (3 Bft)
26.04.2018 18:12 9,9 °C 72 % 1016,7 hPa 0,0 mm 6,0 km/h (2 Bft) W 277 ° 0 min 0,000 mm 0,7 UV-I 123 W/m² 5,1 °C 9,4 °C 9,7 km/h (2 Bft)
26.04.2018 18:13 9,9 °C 73 % 1016,7 hPa 0,0 mm 6,4 km/h (2 Bft) W 259 ° 0 min 0,000 mm 0,7 UV-I 123 W/m² 5,3 °C 9,3 °C 11,3 km/h (2 Bft)
26.04.2018 18:14 9,9 °C 73 % 1016,6 hPa 0,0 mm 5,3 km/h (1 Bft) S-SW 192 ° 0 min 0,000 mm 0,7 UV-I 121 W/m² 5,3 °C 9,6 °C 8,0 km/h (2 Bft)
26.04.2018 18:15 9,9 °C 71 % 1016,7 hPa 0,0 mm 4,5 km/h (1 Bft) W 267 ° 0 min 0,000 mm 0,7 UV-I 123 W/m² 4,9 °C 9,9 °C 11,3 km/h (2 Bft)
26.04.2018 18:16 9,9 °C 74 % 1016,7 hPa 0,0 mm 8,2 km/h (2 Bft) W 275 ° 0 min 0,000 mm 0,7 UV-I 127 W/m² 5,5 °C 8,8 °C 11,3 km/h (2 Bft)
26.04.2018 18:17 9,9 °C 73 % 1016,7 hPa 0,0 mm 7,8 km/h (2 Bft) W 265 ° 0 min 0,000 mm 0,7 UV-I 128 W/m² 5,3 °C 8,9 °C 11,3 km/h (2 Bft)
26.04.2018 18:18 9,8 °C 73 % 1016,6 hPa 0,0 mm 3,3 km/h (1 Bft) W-SW 252 ° 0 min 0,000 mm 0,8 UV-I 128 W/m² 5,2 °C 9,8 °C 6,4 km/h (2 Bft)
26.04.2018 18:19 9,8 °C 73 % 1016,7 hPa 0,0 mm 8,0 km/h (2 Bft) W 268 ° 0 min 0,000 mm 0,8 UV-I 123 W/m² 5,2 °C 8,8 °C 12,9 km/h (3 Bft)
26.04.2018 18:20 9,8 °C 72 % 1016,6 hPa 0,0 mm 6,3 km/h (2 Bft) W 265 ° 0 min 0,000 mm 0,8 UV-I 121 W/m² 5,0 °C 9,2 °C 11,3 km/h (2 Bft)
26.04.2018 18:21 9,8 °C 73 % 1016,6 hPa 0,0 mm 7,4 km/h (2 Bft) W-NW 284 ° 0 min 0,000 mm 0,8 UV-I 120 W/m² 5,2 °C 8,9 °C 11,3 km/h (2 Bft)
26.04.2018 18:22 9,8 °C 73 % 1016,6 hPa 0,0 mm 5,7 km/h (1 Bft) W-SW 254 ° 0 min 0,000 mm 0,8 UV-I 123 W/m² 5,2 °C 9,3 °C 8,0 km/h (2 Bft)
26.04.2018 18:23 9,9 °C 75 % 1016,6 hPa 0,0 mm 3,2 km/h (1 Bft) W-SW 254 ° 0 min 0,000 mm 0,8 UV-I 127 W/m² 5,7 °C 9,9 °C 6,4 km/h (2 Bft)
26.04.2018 18:24 9,8 °C 72 % 1016,6 hPa 0,0 mm 2,5 km/h (1 Bft) W-SW 247 ° 0 min 0,000 mm 0,7 UV-I 125 W/m² 5,0 °C 9,8 °C 4,8 km/h (1 Bft)
26.04.2018 18:25 9,8 °C 73 % 1016,6 hPa 0,0 mm 4,4 km/h (1 Bft) W 269 ° 0 min 0,000 mm 0,7 UV-I 127 W/m² 5,2 °C 9,8 °C 9,7 km/h (2 Bft)
26.04.2018 18:26 9,8 °C 74 % 1016,6 hPa 0,0 mm 7,6 km/h (2 Bft) NW 311 ° 0 min 0,000 mm 0,7 UV-I 128 W/m² 5,4 °C 8,9 °C 11,3 km/h (2 Bft)
26.04.2018 18:27 9,8 °C 71 % 1016,6 hPa 0,0 mm 5,0 km/h (1 Bft) W-NW 289 ° 0 min 0,000 mm 0,7 UV-I 130 W/m² 4,8 °C 9,5 °C 8,0 km/h (2 Bft)
26.04.2018 18:28 9,8 °C 72 % 1016,6 hPa 0,0 mm 9,6 km/h (2 Bft) NW 304 ° 0 min 0,000 mm 0,7 UV-I 135 W/m² 5,0 °C 8,5 °C 14,5 km/h (3 Bft)
26.04.2018 18:29 9,9 °C 72 % 1016,6 hPa 0,0 mm 10,1 km/h (2 Bft) W 264 ° 0 min 0,000 mm 0,7 UV-I 134 W/m² 5,1 °C 8,5 °C 11,3 km/h (2 Bft)
26.04.2018 18:30 9,9 °C 72 % 1016,6 hPa 0,0 mm 5,7 km/h (1 Bft) W 271 ° 0 min 0,000 mm 0,7 UV-I 139 W/m² 5,1 °C 9,4 °C 9,7 km/h (2 Bft)
26.04.2018 18:31 9,9 °C 75 % 1016,6 hPa 0,0 mm 4,5 km/h (1 Bft) W-SW 247 ° 0 min 0,000 mm 0,7 UV-I 125 W/m² 5,7 °C 9,9 °C 6,4 km/h (2 Bft)
26.04.2018 18:32 10,0 °C 74 % 1016,5 hPa 0,0 mm 3,3 km/h (1 Bft) W 275 ° 0 min 0,000 mm 0,7 UV-I 125 W/m² 5,6 °C 10,0 °C 4,8 km/h (1 Bft)
26.04.2018 18:33 10,0 °C 74 % 1016,6 hPa 0,0 mm 8,3 km/h (2 Bft) W-SW 244 ° 0 min 0,000 mm 0,7 UV-I 127 W/m² 5,6 °C 8,9 °C 11,3 km/h (2 Bft)
26.04.2018 18:34 10,1 °C 74 % 1016,6 hPa 0,0 mm 4,8 km/h (1 Bft) W 271 ° 0 min 0,000 mm 0,7 UV-I 125 W/m² 5,7 °C 10,1 °C 6,4 km/h (2 Bft)
26.04.2018 18:35 10,1 °C 72 % 1016,6 hPa 0,0 mm 5,6 km/h (1 Bft) W 275 ° 0 min 0,000 mm 0,7 UV-I 128 W/m² 5,3 °C 10,1 °C 8,0 km/h (2 Bft)
26.04.2018 18:36 10,1 °C 73 % 1016,6 hPa 0,0 mm 5,2 km/h (1 Bft) W 269 ° 0 min 0,000 mm 0,7 UV-I 123 W/m² 5,5 °C 10,1 °C 9,7 km/h (2 Bft)
26.04.2018 18:37 10,1 °C 73 % 1016,6 hPa 0,0 mm 7,5 km/h (2 Bft) W-NW 296 ° 0 min 0,000 mm 0,7 UV-I 111 W/m² 5,5 °C 10,1 °C 11,3 km/h (2 Bft)
26.04.2018 18:38 10,1 °C 72 % 1016,6 hPa 0,0 mm 5,2 km/h (1 Bft) W-SW 257 ° 0 min 0,000 mm 0,7 UV-I 107 W/m² 5,3 °C 10,1 °C 6,4 km/h (2 Bft)
26.04.2018 18:39 10,1 °C 71 % 1016,6 hPa 0,0 mm 4,3 km/h (1 Bft) W 272 ° 0 min 0,000 mm 0,7 UV-I 105 W/m² 5,1 °C 10,1 °C 4,8 km/h (1 Bft)
26.04.2018 18:40 10,1 °C 73 % 1016,6 hPa 0,0 mm 6,9 km/h (2 Bft) W-SW 245 ° 0 min 0,000 mm 0,6 UV-I 102 W/m² 5,5 °C 10,1 °C 11,3 km/h (2 Bft)
26.04.2018 18:41 10,0 °C 73 % 1016,6 hPa 0,0 mm 2,9 km/h (1 Bft) W-SW 245 ° 0 min 0,000 mm 0,6 UV-I 98 W/m² 5,4 °C 10,0 °C 8,0 km/h (2 Bft)
26.04.2018 18:42 10,0 °C 72 % 1016,6 hPa 0,0 mm 3,0 km/h (1 Bft) W-SW 250 ° 0 min 0,000 mm 0,6 UV-I 97 W/m² 5,2 °C 10,0 °C 4,8 km/h (1 Bft)
26.04.2018 18:43 9,9 °C 73 % 1016,6 hPa 0,0 mm 4,6 km/h (1 Bft) W-SW 247 ° 0 min 0,000 mm 0,6 UV-I 100 W/m² 5,3 °C 9,8 °C 6,4 km/h (2 Bft)
26.04.2018 18:44 9,9 °C 72 % 1016,6 hPa 0,0 mm 2,7 km/h (1 Bft) SW 229 ° 0 min 0,000 mm 0,6 UV-I 98 W/m² 5,1 °C 9,9 °C 4,8 km/h (1 Bft)
26.04.2018 18:45 9,8 °C 72 % 1016,5 hPa 0,0 mm 7,2 km/h (2 Bft) S-SW 209 ° 0 min 0,000 mm 0,6 UV-I 100 W/m² 5,0 °C 8,9 °C 11,3 km/h (2 Bft)
26.04.2018 18:46 9,8 °C 72 % 1016,5 hPa 0,0 mm 7,5 km/h (2 Bft) W 267 ° 0 min 0,000 mm 0,6 UV-I 98 W/m² 5,0 °C 8,9 °C 14,5 km/h (3 Bft)
26.04.2018 18:47 9,8 °C 72 % 1016,4 hPa 0,0 mm 8,6 km/h (2 Bft) W-SW 249 ° 0 min 0,000 mm 0,6 UV-I 95 W/m² 5,0 °C 8,7 °C 12,9 km/h (3 Bft)
26.04.2018 18:48 9,8 °C 73 % 1016,5 hPa 0,0 mm 3,1 km/h (1 Bft) W-SW 246 ° 0 min 0,000 mm 0,5 UV-I 91 W/m² 5,2 °C 9,8 °C 6,4 km/h (2 Bft)
26.04.2018 18:49 9,8 °C 71 % 1016,4 hPa 0,0 mm 2,3 km/h (1 Bft) W-SW 238 ° 0 min 0,000 mm 0,5 UV-I 93 W/m² 4,8 °C 9,8 °C 4,8 km/h (1 Bft)
26.04.2018 18:50 9,7 °C 72 % 1016,4 hPa 0,0 mm 5,8 km/h (2 Bft) SW 229 ° 0 min 0,000 mm 0,5 UV-I 107 W/m² 4,9 °C 9,2 °C 11,3 km/h (2 Bft)
26.04.2018 18:51 9,8 °C 72 % 1016,4 hPa 0,0 mm 5,0 km/h (1 Bft) W 276 ° 0 min 0,000 mm 0,5 UV-I 105 W/m² 5,0 °C 9,5 °C 9,7 km/h (2 Bft)
26.04.2018 18:52 9,8 °C 73 % 1016,3 hPa 0,0 mm 4,4 km/h (1 Bft) W-SW 239 ° 0 min 0,000 mm 0,5 UV-I 98 W/m² 5,2 °C 9,8 °C 9,7 km/h (2 Bft)
26.04.2018 18:53 9,8 °C 74 % 1016,3 hPa 0,0 mm 3,9 km/h (1 Bft) SW 224 ° 0 min 0,000 mm 0,5 UV-I 90 W/m² 5,4 °C 9,8 °C 6,4 km/h (2 Bft)
26.04.2018 18:54 9,8 °C 72 % 1016,3 hPa 0,0 mm 4,3 km/h (1 Bft) W-SW 247 ° 0 min 0,000 mm 0,5 UV-I 81 W/m² 5,0 °C 9,8 °C 6,4 km/h (2 Bft)
26.04.2018 18:55 9,8 °C 71 % 1016,3 hPa 0,0 mm 2,0 km/h (1 Bft) W-SW 238 ° 0 min 0,000 mm 0,5 UV-I 77 W/m² 4,8 °C 9,8 °C 3,2 km/h (1 Bft)
26.04.2018 18:56 9,8 °C 70 % 1016,3 hPa 0,0 mm 3,4 km/h (1 Bft) W 267 ° 0 min 0,000 mm 0,5 UV-I 72 W/m² 4,6 °C 9,8 °C 4,8 km/h (1 Bft)
26.04.2018 18:57 9,7 °C 72 % 1016,3 hPa 0,0 mm 1,7 km/h (1 Bft) W-SW 242 ° 0 min 0,000 mm 0,5 UV-I 69 W/m² 4,9 °C 9,7 °C 4,8 km/h (1 Bft)
26.04.2018 18:58 9,7 °C 71 % 1016,4 hPa 0,0 mm 0,0 km/h (0 Bft) W-SW 242 ° 0 min 0,000 mm 0,5 UV-I 65 W/m² 4,7 °C 9,7 °C 0,0 km/h (0 Bft)
26.04.2018 18:59 9,7 °C 73 % 1016,5 hPa 0,0 mm 1,4 km/h (1 Bft) W 271 ° 0 min 0,000 mm 0,0 UV-I 62 W/m² 5,1 °C 9,7 °C 4,8 km/h (1 Bft)
26.04.2018 19:00 9,6 °C 73 % 1016,5 hPa 0,0 mm 9,0 km/h (2 Bft) W 268 ° 0 min 0,000 mm 0,0 UV-I 65 W/m² 5,0 °C 8,3 °C 12,9 km/h (3 Bft)
26.04.2018 19:01 9,6 °C 72 % 1016,5 hPa 0,0 mm 5,0 km/h (1 Bft) W 263 ° 0 min 0,076 mm 0,0 UV-I 63 W/m² 4,8 °C 9,3 °C 6,4 km/h (2 Bft)
26.04.2018 19:02 9,6 °C 73 % 1016,5 hPa 0,0 mm 4,1 km/h (1 Bft) W 263 ° 0 min 0,000 mm 0,0 UV-I 60 W/m² 5,0 °C 9,6 °C 6,4 km/h (2 Bft)
26.04.2018 19:03 9,5 °C 75 % 1016,5 hPa 0,0 mm 2,6 km/h (1 Bft) W 266 ° 0 min 0,000 mm 0,0 UV-I 60 W/m² 5,3 °C 9,5 °C 3,2 km/h (1 Bft)
26.04.2018 19:04 9,4 °C 75 % 1016,5 hPa 0,0 mm 1,3 km/h (1 Bft) W 266 ° 0 min 0,000 mm 0,0 UV-I 60 W/m² 5,2 °C 9,4 °C 3,2 km/h (1 Bft)
26.04.2018 19:05 9,3 °C 76 % 1016,6 hPa 0,0 mm 0,3 km/h (0 Bft) W 266 ° 0 min 0,000 mm 0,0 UV-I 58 W/m² 5,3 °C 9,3 °C 1,6 km/h (1 Bft)
26.04.2018 19:06 9,3 °C 75 % 1016,6 hPa 0,0 mm 0,0 km/h (0 Bft) W 266 ° 0 min 0,000 mm 0,0 UV-I 54 W/m² 5,1 °C 9,3 °C 0,0 km/h (0 Bft)
26.04.2018 19:07 9,2 °C 75 % 1016,6 hPa 0,0 mm 0,0 km/h (0 Bft) W 266 ° 0 min 0,000 mm 0,0 UV-I 53 W/m² 5,0 °C 9,2 °C 0,0 km/h (0 Bft)
26.04.2018 19:08 9,3 °C 75 % 1016,6 hPa 0,0 mm 0,0 km/h (0 Bft) W 266 ° 0 min 0,000 mm 0,0 UV-I 53 W/m² 5,1 °C 9,3 °C 0,0 km/h (0 Bft)
26.04.2018 19:09 9,2 °C 75 % 1016,6 hPa 0,0 mm 2,5 km/h (1 Bft) W 270 ° 0 min 0,000 mm 0,0 UV-I 51 W/m² 5,0 °C 9,2 °C 4,8 km/h (1 Bft)
26.04.2018 19:10 9,2 °C 75 % 1016,6 hPa 0,0 mm 1,8 km/h (1 Bft) W 270 ° 0 min 0,000 mm 0,0 UV-I 53 W/m² 5,0 °C 9,2 °C 3,2 km/h (1 Bft)
26.04.2018 19:11 9,2 °C 76 % 1016,6 hPa 0,0 mm 2,6 km/h (1 Bft) W-SW 238 ° 0 min 0,000 mm 0,0 UV-I 51 W/m² 5,2 °C 9,2 °C 4,8 km/h (1 Bft)
26.04.2018 19:12 9,2 °C 75 % 1016,6 hPa 0,0 mm 0,8 km/h (0 Bft) SW 236 ° 0 min 0,000 mm 0,0 UV-I 47 W/m² 5,0 °C 9,2 °C 4,8 km/h (1 Bft)
26.04.2018 19:13 9,1 °C 76 % 1016,6 hPa 0,0 mm 3,1 km/h (1 Bft) W-SW 245 ° 0 min 0,000 mm 0,0 UV-I 46 W/m² 5,1 °C 9,1 °C 6,4 km/h (2 Bft)
26.04.2018 19:14 9,1 °C 75 % 1016,6 hPa 0,0 mm 2,2 km/h (1 Bft) W-SW 255 ° 0 min 0,000 mm 0,0 UV-I 46 W/m² 4,9 °C 9,1 °C 4,8 km/h (1 Bft)
26.04.2018 19:15 9,1 °C 75 % 1016,6 hPa 0,0 mm 5,4 km/h (1 Bft) W-SW 258 ° 0 min 0,000 mm 0,0 UV-I 47 W/m² 4,9 °C 8,6 °C 9,7 km/h (2 Bft)
26.04.2018 19:16 9,1 °C 75 % 1016,6 hPa 0,0 mm 2,8 km/h (1 Bft) W 267 ° 0 min 0,000 mm 0,0 UV-I 46 W/m² 4,9 °C 9,1 °C 4,8 km/h (1 Bft)
26.04.2018 19:17 9,1 °C 75 % 1016,6 hPa 0,0 mm 0,5 km/h (0 Bft) W 267 ° 0 min 0,000 mm 0,0 UV-I 42 W/m² 4,9 °C 9,1 °C 1,6 km/h (1 Bft)
26.04.2018 19:18 9,1 °C 75 % 1016,7 hPa 0,0 mm 2,9 km/h (1 Bft) W 267 ° 0 min 0,000 mm 0,0 UV-I 44 W/m² 4,9 °C 9,1 °C 6,4 km/h (2 Bft)
26.04.2018 19:19 9,1 °C 76 % 1016,6 hPa 0,0 mm 2,5 km/h (1 Bft) W 262 ° 0 min 0,000 mm 0,0 UV-I 44 W/m² 5,1 °C 9,1 °C 6,4 km/h (2 Bft)
26.04.2018 19:20 9,0 °C 75 % 1016,6 hPa 0,0 mm 0,1 km/h (0 Bft) W 262 ° 0 min 0,000 mm 0,0 UV-I 44 W/m² 4,8 °C 9,0 °C 1,6 km/h (1 Bft)
26.04.2018 19:21 9,0 °C 76 % 1016,7 hPa 0,0 mm 0,8 km/h (0 Bft) W-SW 258 ° 0 min 0,000 mm 0,0 UV-I 42 W/m² 5,0 °C 9,0 °C 3,2 km/h (1 Bft)
26.04.2018 19:22 8,9 °C 76 % 1016,7 hPa 0,0 mm 3,5 km/h (1 Bft) W 273 ° 0 min 0,000 mm 0,0 UV-I 40 W/m² 4,9 °C 8,9 °C 6,4 km/h (2 Bft)
26.04.2018 19:23 8,9 °C 76 % 1016,8 hPa 0,0 mm 5,0 km/h (1 Bft) W-SW 257 ° 0 min 0,000 mm 0,0 UV-I 39 W/m² 4,9 °C 8,5 °C 6,4 km/h (2 Bft)
26.04.2018 19:24 8,9 °C 75 % 1016,7 hPa 0,0 mm 1,0 km/h (0 Bft) W-SW 257 ° 0 min 0,000 mm 0,0 UV-I 37 W/m² 4,7 °C 8,9 °C 3,2 km/h (1 Bft)
26.04.2018 19:25 8,9 °C 76 % 1016,7 hPa 0,0 mm 1,7 km/h (1 Bft) W-SW 257 ° 0 min 0,000 mm 0,0 UV-I 35 W/m² 4,9 °C 8,9 °C 3,2 km/h (1 Bft)
26.04.2018 19:26 8,9 °C 76 % 1016,7 hPa 0,0 mm 0,7 km/h (0 Bft) W-SW 257 ° 0 min 0,000 mm 0,0 UV-I 35 W/m² 4,9 °C 8,9 °C 3,2 km/h (1 Bft)
26.04.2018 19:27 8,9 °C 75 % 1016,7 hPa 0,0 mm 1,3 km/h (1 Bft) W-SW 257 ° 0 min 0,000 mm 0,0 UV-I 39 W/m² 4,7 °C 8,9 °C 3,2 km/h (1 Bft)
26.04.2018 19:28 8,9 °C 75 % 1016,7 hPa 0,0 mm 1,9 km/h (1 Bft) W-SW 257 ° 0 min 0,000 mm 0,0 UV-I 39 W/m² 4,7 °C 8,9 °C 3,2 km/h (1 Bft)
26.04.2018 19:29 8,9 °C 75 % 1016,7 hPa 0,0 mm 1,3 km/h (1 Bft) W-SW 257 ° 0 min 0,000 mm 0,0 UV-I 39 W/m² 4,7 °C 8,9 °C 1,6 km/h (1 Bft)
26.04.2018 19:30 8,9 °C 76 % 1016,7 hPa 0,0 mm 2,1 km/h (1 Bft) W-SW 251 ° 0 min 0,000 mm 0,0 UV-I 33 W/m² 4,9 °C 8,9 °C 3,2 km/h (1 Bft)
26.04.2018 19:31 8,9 °C 75 % 1016,7 hPa 0,0 mm 1,8 km/h (1 Bft) W-SW 251 ° 0 min 0,000 mm 0,0 UV-I 32 W/m² 4,7 °C 8,9 °C 3,2 km/h (1 Bft)
26.04.2018 19:32 8,9 °C 75 % 1016,6 hPa 0,0 mm 0,9 km/h (0 Bft) W-SW 251 ° 0 min 0,000 mm 0,0 UV-I 32 W/m² 4,7 °C 8,9 °C 3,2 km/h (1 Bft)
26.04.2018 19:33 8,8 °C 77 % 1016,7 hPa 0,0 mm 1,2 km/h (1 Bft) W-SW 251 ° 0 min 0,000 mm 0,0 UV-I 28 W/m² 5,0 °C 8,8 °C 3,2 km/h (1 Bft)
26.04.2018 19:34 8,8 °C 79 % 1016,7 hPa 0,0 mm 0,0 km/h (0 Bft) W-SW 251 ° 0 min 0,000 mm 0,0 UV-I 28 W/m² 5,4 °C 8,8 °C 0,0 km/h (0 Bft)
26.04.2018 19:35 8,7 °C 78 % 1016,7 hPa 0,0 mm 1,1 km/h (1 Bft) W-SW 248 ° 0 min 0,000 mm 0,0 UV-I 25 W/m² 5,1 °C 8,7 °C 4,8 km/h (1 Bft)
26.04.2018 19:36 8,7 °C 78 % 1016,7 hPa 0,0 mm 2,2 km/h (1 Bft) W-SW 247 ° 0 min 0,000 mm 0,0 UV-I 25 W/m² 5,1 °C 8,7 °C 4,8 km/h (1 Bft)
26.04.2018 19:37 8,7 °C 80 % 1016,7 hPa 0,0 mm 1,2 km/h (1 Bft) W-SW 246 ° 0 min 0,000 mm 0,0 UV-I 26 W/m² 5,4 °C 8,7 °C 3,2 km/h (1 Bft)
26.04.2018 19:38 8,6 °C 80 % 1016,7 hPa 0,0 mm 0,6 km/h (0 Bft) W-SW 246 ° 0 min 0,000 mm 0,0 UV-I 28 W/m² 5,3 °C 8,6 °C 1,6 km/h (1 Bft)
26.04.2018 19:39 8,6 °C 77 % 1016,7 hPa 0,0 mm 1,3 km/h (1 Bft) W-SW 246 ° 0 min 0,000 mm 0,0 UV-I 26 W/m² 4,8 °C 8,6 °C 3,2 km/h (1 Bft)
26.04.2018 19:40 8,6 °C 78 % 1016,7 hPa 0,0 mm 0,0 km/h (0 Bft) W-SW 246 ° 0 min 0,000 mm 0,0 UV-I 23 W/m² 5,0 °C 8,6 °C 0,0 km/h (0 Bft)
26.04.2018 19:41 8,6 °C 77 % 1016,7 hPa 0,0 mm 0,0 km/h (0 Bft) W-SW 246 ° 0 min 0,000 mm 0,0 UV-I 21 W/m² 4,8 °C 8,6 °C 0,0 km/h (0 Bft)
26.04.2018 19:42 8,6 °C 78 % 1016,8 hPa 0,0 mm 0,2 km/h (0 Bft) W-SW 246 ° 0 min 0,000 mm 0,0 UV-I 19 W/m² 5,0 °C 8,6 °C 1,6 km/h (1 Bft)
26.04.2018 19:43 8,6 °C 77 % 1016,7 hPa 0,0 mm 0,4 km/h (0 Bft) W-SW 246 ° 0 min 0,000 mm 0,0 UV-I 19 W/m² 4,8 °C 8,6 °C 3,2 km/h (1 Bft)
26.04.2018 19:44 8,6 °C 79 % 1016,7 hPa 0,0 mm 0,0 km/h (0 Bft) W-SW 246 ° 0 min 0,000 mm 0,0 UV-I 21 W/m² 5,2 °C 8,6 °C 0,0 km/h (0 Bft)
26.04.2018 19:45 8,5 °C 81 % 1016,8 hPa 0,0 mm 0,0 km/h (0 Bft) W-SW 246 ° 0 min 0,000 mm 0,0 UV-I 21 W/m² 5,4 °C 8,5 °C 0,0 km/h (0 Bft)
26.04.2018 19:46 8,4 °C 81 % 1016,8 hPa 0,0 mm 0,0 km/h (0 Bft) W-SW 246 ° 0 min 0,000 mm 0,0 UV-I 18 W/m² 5,3 °C 8,4 °C 0,0 km/h (0 Bft)
26.04.2018 19:47 8,4 °C 80 % 1016,8 hPa 0,0 mm 0,0 km/h (0 Bft) W-SW 246 ° 0 min 0,000 mm 0,0 UV-I 16 W/m² 5,2 °C 8,4 °C 0,0 km/h (0 Bft)
26.04.2018 19:48 8,4 °C 79 % 1016,8 hPa 0,0 mm 0,0 km/h (0 Bft) W-SW 246 ° 0 min 0,000 mm 0,0 UV-I 18 W/m² 5,0 °C 8,4 °C 0,0 km/h (0 Bft)
26.04.2018 19:49 8,4 °C 80 % 1016,8 hPa 0,0 mm 0,0 km/h (0 Bft) W-SW 246 ° 0 min 0,000 mm 0,0 UV-I 18 W/m² 5,2 °C 8,4 °C 0,0 km/h (0 Bft)
26.04.2018 19:50 8,3 °C 82 % 1016,8 hPa 0,0 mm 0,1 km/h (0 Bft) W-SW 246 ° 0 min 0,000 mm 0,0 UV-I 18 W/m² 5,4 °C 8,3 °C 1,6 km/h (1 Bft)
26.04.2018 19:51 8,3 °C 81 % 1016,8 hPa 0,0 mm 0,1 km/h (0 Bft) W-SW 246 ° 0 min 0,000 mm 0,0 UV-I 18 W/m² 5,2 °C 8,3 °C 1,6 km/h (1 Bft)
26.04.2018 19:52 8,3 °C 82 % 1016,9 hPa 0,0 mm 0,0 km/h (0 Bft) W-SW 246 ° 0 min 0,000 mm 0,0 UV-I 18 W/m² 5,4 °C 8,3 °C 0,0 km/h (0 Bft)
26.04.2018 19:53 8,3 °C 82 % 1016,9 hPa 0,0 mm 0,0 km/h (0 Bft) W-SW 246 ° 0 min 0,000 mm 0,0 UV-I 16 W/m² 5,4 °C 8,3 °C 0,0 km/h (0 Bft)
26.04.2018 19:54 8,2 °C 81 % 1016,9 hPa 0,0 mm 0,0 km/h (0 Bft) W-SW 246 ° 0 min 0,000 mm 0,0 UV-I 14 W/m² 5,1 °C 8,2 °C 0,0 km/h (0 Bft)
26.04.2018 19:55 8,2 °C 81 % 1016,9 hPa 0,0 mm 0,0 km/h (0 Bft) W-SW 246 ° 0 min 0,000 mm 0,0 UV-I 16 W/m² 5,1 °C 8,2 °C 0,0 km/h (0 Bft)
26.04.2018 19:56 8,2 °C 81 % 1016,8 hPa 0,0 mm 0,3 km/h (0 Bft) W-SW 246 ° 0 min 0,000 mm 0,0 UV-I 14 W/m² 5,1 °C 8,2 °C 1,6 km/h (1 Bft)
26.04.2018 19:57 8,2 °C 81 % 1016,9 hPa 0,0 mm 0,2 km/h (0 Bft) W-SW 246 ° 0 min 0,000 mm 0,0 UV-I 14 W/m² 5,1 °C 8,2 °C 1,6 km/h (1 Bft)
26.04.2018 19:58 8,2 °C 82 % 1016,9 hPa 0,0 mm 0,0 km/h (0 Bft) W-SW 246 ° 0 min 0,000 mm 0,0 UV-I 12 W/m² 5,3 °C 8,2 °C 0,0 km/h (0 Bft)
26.04.2018 19:59 8,2 °C 81 % 1016,9 hPa 0,0 mm 0,7 km/h (0 Bft) W-SW 246 ° 0 min 0,000 mm 0,0 UV-I 11 W/m² 5,1 °C 8,2 °C 1,6 km/h (1 Bft)
26.04.2018 20:00 8,2 °C 81 % 1016,9 hPa 0,0 mm 0,8 km/h (0 Bft) W-SW 246 ° 0 min 0,000 mm 0,0 UV-I 11 W/m² 5,1 °C 8,2 °C 1,6 km/h (1 Bft)
26.04.2018 20:01 8,2 °C 81 % 1016,9 hPa 0,0 mm 0,8 km/h (0 Bft) W-SW 246 ° 0 min 0,025 mm 0,0 UV-I 11 W/m² 5,1 °C 8,2 °C 1,6 km/h (1 Bft)
26.04.2018 20:02 8,2 °C 82 % 1017,0 hPa 0,0 mm 0,6 km/h (0 Bft) W-SW 246 ° 0 min 0,000 mm 0,0 UV-I 11 W/m² 5,3 °C 8,2 °C 1,6 km/h (1 Bft)
26.04.2018 20:03 8,2 °C 82 % 1016,9 hPa 0,0 mm 0,1 km/h (0 Bft) W-SW 246 ° 0 min 0,000 mm 0,0 UV-I 9 W/m² 5,3 °C 8,2 °C 1,6 km/h (1 Bft)
26.04.2018 20:04 8,2 °C 82 % 1017,0 hPa 0,0 mm 0,0 km/h (0 Bft) W-SW 246 ° 0 min 0,000 mm 0,0 UV-I 9 W/m² 5,3 °C 8,2 °C 0,0 km/h (0 Bft)
26.04.2018 20:05 8,1 °C 81 % 1017,0 hPa 0,0 mm 0,0 km/h (0 Bft) W-SW 246 ° 0 min 0,000 mm 0,0 UV-I 7 W/m² 5,0 °C 8,1 °C 0,0 km/h (0 Bft)
26.04.2018 20:06 8,1 °C 82 % 1016,9 hPa 0,0 mm 0,4 km/h (0 Bft) W-SW 246 ° 0 min 0,000 mm 0,0 UV-I 7 W/m² 5,2 °C 8,1 °C 1,6 km/h (1 Bft)
26.04.2018 20:07 8,1 °C 81 % 1017,0 hPa 0,0 mm 0,0 km/h (0 Bft) W-SW 246 ° 0 min 0,000 mm 0,0 UV-I 7 W/m² 5,0 °C 8,1 °C 0,0 km/h (0 Bft)
26.04.2018 20:08 8,1 °C 82 % 1017,0 hPa 0,0 mm 0,0 km/h (0 Bft) W-SW 246 ° 0 min 0,000 mm 0,0 UV-I 7 W/m² 5,2 °C 8,1 °C 0,0 km/h (0 Bft)
26.04.2018 20:09 8,1 °C 82 % 1017,0 hPa 0,0 mm 0,0 km/h (0 Bft) W-SW 246 ° 0 min 0,000 mm 0,0 UV-I 5 W/m² 5,2 °C 8,1 °C 0,0 km/h (0 Bft)
26.04.2018 20:10 8,1 °C 83 % 1017,0 hPa 0,0 mm 0,0 km/h (0 Bft) W-SW 246 ° 0 min 0,000 mm 0,0 UV-I 5 W/m² 5,4 °C 8,1 °C 0,0 km/h (0 Bft)
26.04.2018 20:11 8,1 °C 82 % 1017,0 hPa 0,0 mm 0,1 km/h (0 Bft) W-SW 246 ° 0 min 0,000 mm 0,0 UV-I 5 W/m² 5,2 °C 8,1 °C 1,6 km/h (1 Bft)
26.04.2018 20:12 8,0 °C 81 % 1017,0 hPa 0,0 mm 0,0 km/h (0 Bft) W-SW 246 ° 0 min 0,000 mm 0,0 UV-I 5 W/m² 4,9 °C 8,0 °C 0,0 km/h (0 Bft)
26.04.2018 20:13 8,0 °C 82 % 1017,0 hPa 0,0 mm 0,0 km/h (0 Bft) W-SW 246 ° 0 min 0,000 mm 0,0 UV-I 0 W/m² 5,1 °C 8,0 °C 0,0 km/h (0 Bft)
26.04.2018 20:14 8,1 °C 83 % 1017,0 hPa 0,0 mm 1,1 km/h (1 Bft) W-SW 246 ° 0 min 0,000 mm 0,0 UV-I 0 W/m² 5,4 °C 8,1 °C 1,6 km/h (1 Bft)
26.04.2018 20:15 8,0 °C 82 % 1017,0 hPa 0,0 mm 0,0 km/h (0 Bft) W-SW 246 ° 0 min 0,000 mm 0,0 UV-I 0 W/m² 5,1 °C 8,0 °C 0,0 km/h (0 Bft)
26.04.2018 20:16 8,0 °C 82 % 1017,0 hPa 0,0 mm 0,2 km/h (0 Bft) W-SW 246 ° 0 min 0,000 mm 0,0 UV-I 0 W/m² 5,1 °C 8,0 °C 1,6 km/h (1 Bft)
26.04.2018 20:17 8,0 °C 82 % 1017,0 hPa 0,0 mm 0,1 km/h (0 Bft) W-SW 246 ° 0 min 0,000 mm 0,0 UV-I 0 W/m² 5,1 °C 8,0 °C 1,6 km/h (1 Bft)
26.04.2018 20:18 8,0 °C 82 % 1017,0 hPa 0,0 mm 0,0 km/h (0 Bft) W-SW 246 ° 0 min 0,000 mm 0,0 UV-I 0 W/m² 5,1 °C 8,0 °C 0,0 km/h (0 Bft)
26.04.2018 20:19 8,0 °C 82 % 1017,0 hPa 0,0 mm 0,0 km/h (0 Bft) W-SW 246 ° 0 min 0,000 mm 0,0 UV-I 0 W/m² 5,1 °C 8,0 °C 0,0 km/h (0 Bft)
26.04.2018 20:20 7,9 °C 83 % 1017,0 hPa 0,0 mm 1,0 km/h (0 Bft) W-SW 246 ° 0 min 0,000 mm 0,0 UV-I 0 W/m² 5,2 °C 7,9 °C 1,6 km/h (1 Bft)
26.04.2018 20:21 7,9 °C 84 % 1017,1 hPa 0,0 mm 1,1 km/h (1 Bft) W-SW 246 ° 0 min 0,000 mm 0,0 UV-I 0 W/m² 5,4 °C 7,9 °C 1,6 km/h (1 Bft)
26.04.2018 20:22 7,8 °C 84 % 1017,1 hPa 0,0 mm 1,1 km/h (1 Bft) W-SW 246 ° 0 min 0,000 mm 0,0 UV-I 0 W/m² 5,3 °C 7,8 °C 1,6 km/h (1 Bft)
26.04.2018 20:23 7,8 °C 84 % 1017,1 hPa 0,0 mm 1,2 km/h (1 Bft) W-SW 246 ° 0 min 0,000 mm 0,0 UV-I 0 W/m² 5,3 °C 7,8 °C 1,6 km/h (1 Bft)
26.04.2018 20:24 7,8 °C 84 % 1017,1 hPa 0,0 mm 1,9 km/h (1 Bft) W-SW 246 ° 0 min 0,000 mm 0,0 UV-I 0 W/m² 5,3 °C 7,8 °C 3,2 km/h (1 Bft)
26.04.2018 20:25 7,8 °C 83 % 1017,1 hPa 0,0 mm 2,5 km/h (1 Bft) W-SW 243 ° 0 min 0,000 mm 0,0 UV-I 0 W/m² 5,1 °C 7,8 °C 4,8 km/h (1 Bft)
26.04.2018 20:26 7,8 °C 83 % 1017,1 hPa 0,0 mm 1,0 km/h (0 Bft) W-SW 243 ° 0 min 0,000 mm 0,0 UV-I 0 W/m² 5,1 °C 7,8 °C 3,2 km/h (1 Bft)
26.04.2018 20:27 7,8 °C 82 % 1017,1 hPa 0,0 mm 2,3 km/h (1 Bft) SW 236 ° 0 min 0,000 mm 0,0 UV-I 0 W/m² 4,9 °C 7,8 °C 4,8 km/h (1 Bft)
26.04.2018 20:28 7,9 °C 82 % 1017,1 hPa 0,0 mm 3,0 km/h (1 Bft) SW 231 ° 0 min 0,000 mm 0,0 UV-I 0 W/m² 5,0 °C 7,9 °C 4,8 km/h (1 Bft)
26.04.2018 20:29 7,9 °C 82 % 1017,1 hPa 0,0 mm 2,5 km/h (1 Bft) SW 231 ° 0 min 0,000 mm 0,0 UV-I 0 W/m² 5,0 °C 7,9 °C 4,8 km/h (1 Bft)
26.04.2018 20:30 7,9 °C 82 % 1017,1 hPa 0,0 mm 1,8 km/h (1 Bft) SW 231 ° 0 min 0,000 mm 0,0 UV-I 0 W/m² 5,0 °C 7,9 °C 3,2 km/h (1 Bft)
26.04.2018 20:31 7,8 °C 83 % 1017,2 hPa 0,0 mm 2,1 km/h (1 Bft) SW 231 ° 0 min 0,000 mm 0,0 UV-I 0 W/m² 5,1 °C 7,8 °C 4,8 km/h (1 Bft)
26.04.2018 20:32 7,8 °C 82 % 1017,2 hPa 0,0 mm 3,7 km/h (1 Bft) SW 218 ° 0 min 0,000 mm 0,0 UV-I 0 W/m² 4,9 °C 7,8 °C 6,4 km/h (2 Bft)
26.04.2018 20:33 7,8 °C 83 % 1017,2 hPa 0,0 mm 4,6 km/h (1 Bft) S-SW 213 ° 0 min 0,000 mm 0,0 UV-I 0 W/m² 5,1 °C 7,4 °C 6,4 km/h (2 Bft)
26.04.2018 20:34 7,8 °C 83 % 1017,2 hPa 0,0 mm 2,2 km/h (1 Bft) S-SW 213 ° 0 min 0,000 mm 0,0 UV-I 0 W/m² 5,1 °C 7,8 °C 4,8 km/h (1 Bft)
26.04.2018 20:35 7,8 °C 83 % 1017,2 hPa 0,0 mm 1,7 km/h (1 Bft) S-SW 213 ° 0 min 0,000 mm 0,0 UV-I 0 W/m² 5,1 °C 7,8 °C 4,8 km/h (1 Bft)
26.04.2018 20:36 7,7 °C 83 % 1017,2 hPa 0,0 mm 2,1 km/h (1 Bft) S-SW 213 ° 0 min 0,000 mm 0,0 UV-I 0 W/m² 5,0 °C 7,7 °C 4,8 km/h (1 Bft)
26.04.2018 20:37 7,7 °C 82 % 1017,3 hPa 0,0 mm 3,0 km/h (1 Bft) S-SW 213 ° 0 min 0,000 mm 0,0 UV-I 0 W/m² 4,8 °C 7,7 °C 4,8 km/h (1 Bft)
26.04.2018 20:38 7,7 °C 82 % 1017,2 hPa 0,0 mm 2,5 km/h (1 Bft) S-SW 213 ° 0 min 0,000 mm 0,0 UV-I 0 W/m² 4,8 °C 7,7 °C 4,8 km/h (1 Bft)
26.04.2018 20:39 7,7 °C 82 % 1017,3 hPa 0,0 mm 1,2 km/h (1 Bft) S-SW 213 ° 0 min 0,000 mm 0,0 UV-I 0 W/m² 4,8 °C 7,7 °C 3,2 km/h (1 Bft)
26.04.2018 20:40 7,7 °C 82 % 1017,3 hPa 0,0 mm 2,6 km/h (1 Bft) S-SW 213 ° 0 min 0,000 mm 0,0 UV-I 0 W/m² 4,8 °C 7,7 °C 4,8 km/h (1 Bft)
26.04.2018 20:41 7,7 °C 82 % 1017,3 hPa 0,0 mm 1,3 km/h (1 Bft) S-SW 213 ° 0 min 0,000 mm 0,0 UV-I 0 W/m² 4,8 °C 7,7 °C 3,2 km/h (1 Bft)
26.04.2018 20:42 7,7 °C 82 % 1017,3 hPa 0,0 mm 1,4 km/h (1 Bft) S-SW 213 ° 0 min 0,000 mm 0,0 UV-I 0 W/m² 4,8 °C 7,7 °C 3,2 km/h (1 Bft)
26.04.2018 20:43 7,7 °C 82 % 1017,3 hPa 0,0 mm 1,7 km/h (1 Bft) S-SW 213 ° 0 min 0,000 mm 0,0 UV-I 0 W/m² 4,8 °C 7,7 °C 3,2 km/h (1 Bft)
26.04.2018 20:44 7,7 °C 82 % 1017,4 hPa 0,0 mm 0,5 km/h (0 Bft) S-SW 213 ° 0 min 0,000 mm 0,0 UV-I 0 W/m² 4,8 °C 7,7 °C 1,6 km/h (1 Bft)
26.04.2018 20:45 7,7 °C 82 % 1017,4 hPa 0,0 mm 1,7 km/h (1 Bft) S-SW 213 ° 0 min 0,000 mm 0,0 UV-I 0 W/m² 4,8 °C 7,7 °C 3,2 km/h (1 Bft)
26.04.2018 20:46 7,7 °C 82 % 1017,4 hPa 0,0 mm 1,0 km/h (0 Bft) S-SW 213 ° 0 min 0,000 mm 0,0 UV-I 0 W/m² 4,8 °C 7,7 °C 1,6 km/h (1 Bft)
26.04.2018 20:47 7,6 °C 82 % 1017,4 hPa 0,0 mm 1,0 km/h (0 Bft) S-SW 213 ° 0 min 0,000 mm 0,0 UV-I 0 W/m² 4,7 °C 7,6 °C 3,2 km/h (1 Bft)
26.04.2018 20:48 7,6 °C 82 % 1017,4 hPa 0,0 mm 1,4 km/h (1 Bft) S-SW 213 ° 0 min 0,000 mm 0,0 UV-I 0 W/m² 4,7 °C 7,6 °C 3,2 km/h (1 Bft)
26.04.2018 20:49 7,7 °C 82 % 1017,4 hPa 0,0 mm 1,2 km/h (1 Bft) S-SW 213 ° 0 min 0,000 mm 0,0 UV-I 0 W/m² 4,8 °C 7,7 °C 1,6 km/h (1 Bft)
26.04.2018 20:50 7,7 °C 82 % 1017,5 hPa 0,0 mm 1,7 km/h (1 Bft) S-SW 213 ° 0 min 0,000 mm 0,0 UV-I 0 W/m² 4,8 °C 7,7 °C 3,2 km/h (1 Bft)
26.04.2018 20:51 7,6 °C 82 % 1017,5 hPa 0,0 mm 1,4 km/h (1 Bft) S-SW 213 ° 0 min 0,000 mm 0,0 UV-I 0 W/m² 4,7 °C 7,6 °C 3,2 km/h (1 Bft)
26.04.2018 20:52 7,6 °C 83 % 1017,6 hPa 0,0 mm 0,7 km/h (0 Bft) S-SW 213 ° 0 min 0,000 mm 0,0 UV-I 0 W/m² 4,9 °C 7,6 °C 1,6 km/h (1 Bft)
26.04.2018 20:53 7,6 °C 84 % 1017,5 hPa 0,0 mm 0,5 km/h (0 Bft) S-SW 213 ° 0 min 0,000 mm 0,0 UV-I 0 W/m² 5,1 °C 7,6 °C 1,6 km/h (1 Bft)
26.04.2018 20:54 7,6 °C 83 % 1017,6 hPa 0,0 mm 0,0 km/h (0 Bft) S-SW 213 ° 0 min 0,000 mm 0,0 UV-I 0 W/m² 4,9 °C 7,6 °C 0,0 km/h (0 Bft)
26.04.2018 20:55 7,6 °C 84 % 1017,6 hPa 0,0 mm 0,3 km/h (0 Bft) S-SW 213 ° 0 min 0,000 mm 0,0 UV-I 0 W/m² 5,1 °C 7,6 °C 1,6 km/h (1 Bft)
26.04.2018 20:56 7,6 °C 84 % 1017,6 hPa 0,0 mm 0,1 km/h (0 Bft) S-SW 213 ° 0 min 0,000 mm 0,0 UV-I 0 W/m² 5,1 °C 7,6 °C 1,6 km/h (1 Bft)
26.04.2018 20:57 7,4 °C 84 % 1017,6 hPa 0,0 mm 0,9 km/h (0 Bft) S-SW 213 ° 0 min 0,000 mm 0,0 UV-I 0 W/m² 4,9 °C 7,4 °C 3,2 km/h (1 Bft)
26.04.2018 20:58 7,4 °C 84 % 1017,7 hPa 0,0 mm 1,5 km/h (1 Bft) S-SW 213 ° 0 min 0,000 mm 0,0 UV-I 0 W/m² 4,9 °C 7,4 °C 3,2 km/h (1 Bft)
26.04.2018 20:59 7,4 °C 85 % 1017,6 hPa 0,0 mm 1,5 km/h (1 Bft) S-SW 213 ° 0 min 0,000 mm 0,0 UV-I 0 W/m² 5,0 °C 7,4 °C 3,2 km/h (1 Bft)
26.04.2018 21:00 7,4 °C 85 % 1017,6 hPa 0,0 mm 0,9 km/h (0 Bft) S-SW 213 ° 0 min 0,000 mm 0,0 UV-I 0 W/m² 5,0 °C 7,4 °C 1,6 km/h (1 Bft)
26.04.2018 21:01 7,4 °C 85 % 1017,6 hPa 0,0 mm 1,5 km/h (1 Bft) S-SW 213 ° 0 min 0,000 mm 0,0 UV-I 0 W/m² 5,0 °C 7,4 °C 3,2 km/h (1 Bft)
26.04.2018 21:02 7,4 °C 85 % 1017,6 hPa 0,0 mm 1,1 km/h (1 Bft) S-SW 213 ° 0 min 0,000 mm 0,0 UV-I 0 W/m² 5,0 °C 7,4 °C 3,2 km/h (1 Bft)
26.04.2018 21:03 7,3 °C 85 % 1017,6 hPa 0,0 mm 0,7 km/h (0 Bft) S-SW 213 ° 0 min 0,000 mm 0,0 UV-I 0 W/m² 4,9 °C 7,3 °C 1,6 km/h (1 Bft)
26.04.2018 21:04 7,4 °C 84 % 1017,7 hPa 0,0 mm 1,2 km/h (1 Bft) S-SW 213 ° 0 min 0,000 mm 0,0 UV-I 0 W/m² 4,9 °C 7,4 °C 1,6 km/h (1 Bft)
26.04.2018 21:05 7,3 °C 85 % 1017,7 hPa 0,0 mm 0,7 km/h (0 Bft) S-SW 213 ° 0 min 0,000 mm 0,0 UV-I 0 W/m² 4,9 °C 7,3 °C 1,6 km/h (1 Bft)
26.04.2018 21:06 7,3 °C 85 % 1017,6 hPa 0,0 mm 2,1 km/h (1 Bft) S-SW 213 ° 0 min 0,000 mm 0,0 UV-I 0 W/m² 4,9 °C 7,3 °C 3,2 km/h (1 Bft)
26.04.2018 21:07 7,3 °C 85 % 1017,6 hPa 0,0 mm 0,5 km/h (0 Bft) S-SW 213 ° 0 min 0,000 mm 0,0 UV-I 0 W/m² 4,9 °C 7,3 °C 1,6 km/h (1 Bft)
26.04.2018 21:08 7,3 °C 85 % 1017,7 hPa 0,0 mm 1,5 km/h (1 Bft) S-SW 213 ° 0 min 0,000 mm 0,0 UV-I 0 W/m² 4,9 °C 7,3 °C 3,2 km/h (1 Bft)
26.04.2018 21:09 7,3 °C 85 % 1017,7 hPa 0,0 mm 0,8 km/h (0 Bft) S-SW 213 ° 0 min 0,000 mm 0,0 UV-I 0 W/m² 4,9 °C 7,3 °C 3,2 km/h (1 Bft)
26.04.2018 21:10 7,3 °C 85 % 1017,8 hPa 0,0 mm 1,5 km/h (1 Bft) S-SW 213 ° 0 min 0,000 mm 0,0 UV-I 0 W/m² 4,9 °C 7,3 °C 1,6 km/h (1 Bft)
26.04.2018 21:11 7,2 °C 85 % 1017,8 hPa 0,0 mm 1,9 km/h (1 Bft) S-SW 213 ° 0 min 0,000 mm 0,0 UV-I 0 W/m² 4,9 °C 7,2 °C 3,2 km/h (1 Bft)
26.04.2018 21:12 7,2 °C 85 % 1017,8 hPa 0,0 mm 2,0 km/h (1 Bft) S-SW 213 ° 0 min 0,000 mm 0,0 UV-I 0 W/m² 4,9 °C 7,2 °C 4,8 km/h (1 Bft)
26.04.2018 21:13 7,2 °C 86 % 1017,8 hPa 0,0 mm 0,9 km/h (0 Bft) S-SW 213 ° 0 min 0,000 mm 0,0 UV-I 0 W/m² 5,0 °C 7,2 °C 3,2 km/h (1 Bft)
26.04.2018 21:14 7,2 °C 85 % 1017,8 hPa 0,0 mm 1,0 km/h (0 Bft) S-SW 213 ° 0 min 0,000 mm 0,0 UV-I 0 W/m² 4,9 °C 7,2 °C 1,6 km/h (1 Bft)
26.04.2018 21:15 7,1 °C 85 % 1017,8 hPa 0,0 mm 2,1 km/h (1 Bft) S-SW 213 ° 0 min 0,000 mm 0,0 UV-I 0 W/m² 4,8 °C 7,1 °C 3,2 km/h (1 Bft)
26.04.2018 21:16 7,1 °C 85 % 1017,8 hPa 0,0 mm 0,4 km/h (0 Bft) S-SW 213 ° 0 min 0,000 mm 0,0 UV-I 0 W/m² 4,8 °C 7,1 °C 1,6 km/h (1 Bft)
26.04.2018 21:17 7,1 °C 85 % 1017,9 hPa 0,0 mm 1,9 km/h (1 Bft) S-SW 213 ° 0 min 0,000 mm 0,0 UV-I 0 W/m² 4,8 °C 7,1 °C 3,2 km/h (1 Bft)
26.04.2018 21:18 7,2 °C 86 % 1017,9 hPa 0,0 mm 0,1 km/h (0 Bft) S-SW 213 ° 0 min 0,000 mm 0,0 UV-I 0 W/m² 5,0 °C 7,2 °C 1,6 km/h (1 Bft)
26.04.2018 21:19 7,2 °C 86 % 1017,9 hPa 0,0 mm 0,1 km/h (0 Bft) S-SW 213 ° 0 min 0,000 mm 0,0 UV-I 0 W/m² 5,0 °C 7,2 °C 1,6 km/h (1 Bft)
26.04.2018 21:20 7,2 °C 86 % 1017,9 hPa 0,0 mm 1,1 km/h (1 Bft) S-SW 213 ° 0 min 0,000 mm 0,0 UV-I 0 W/m² 5,0 °C 7,2 °C 3,2 km/h (1 Bft)
26.04.2018 21:21 7,2 °C 85 % 1017,9 hPa 0,0 mm 1,1 km/h (1 Bft) S-SW 213 ° 0 min 0,000 mm 0,0 UV-I 0 W/m² 4,9 °C 7,2 °C 3,2 km/h (1 Bft)
26.04.2018 21:22 7,2 °C 85 % 1017,9 hPa 0,0 mm 0,7 km/h (0 Bft) S-SW 213 ° 0 min 0,000 mm 0,0 UV-I 0 W/m² 4,9 °C 7,2 °C 1,6 km/h (1 Bft)
26.04.2018 21:23 7,2 °C 85 % 1017,9 hPa 0,0 mm 1,0 km/h (0 Bft) S-SW 213 ° 0 min 0,000 mm 0,0 UV-I 0 W/m² 4,9 °C 7,2 °C 3,2 km/h (1 Bft)
26.04.2018 21:24 7,2 °C 85 % 1017,9 hPa 0,0 mm 1,1 km/h (1 Bft) S-SW 213 ° 0 min 0,000 mm 0,0 UV-I 0 W/m² 4,9 °C 7,2 °C 1,6 km/h (1 Bft)
26.04.2018 21:25 7,2 °C 84 % 1017,8 hPa 0,0 mm 0,9 km/h (0 Bft) S-SW 213 ° 0 min 0,000 mm 0,0 UV-I 0 W/m² 4,7 °C 7,2 °C 1,6 km/h (1 Bft)
26.04.2018 21:26 7,2 °C 85 % 1017,8 hPa 0,0 mm 1,7 km/h (1 Bft) S-SW 213 ° 0 min 0,000 mm 0,0 UV-I 0 W/m² 4,9 °C 7,2 °C 3,2 km/h (1 Bft)
26.04.2018 21:27 7,2 °C 84 % 1017,8 hPa 0,0 mm 1,9 km/h (1 Bft) S-SW 213 ° 0 min 0,000 mm 0,0 UV-I 0 W/m² 4,7 °C 7,2 °C 3,2 km/h (1 Bft)
26.04.2018 21:28 7,2 °C 84 % 1017,8 hPa 0,0 mm 1,7 km/h (1 Bft) S-SW 213 ° 0 min 0,000 mm 0,0 UV-I 0 W/m² 4,7 °C 7,2 °C 3,2 km/h (1 Bft)
26.04.2018 21:29 7,2 °C 84 % 1017,8 hPa 0,0 mm 0,5 km/h (0 Bft) S-SW 213 ° 0 min 0,000 mm 0,0 UV-I 0 W/m² 4,7 °C 7,2 °C 1,6 km/h (1 Bft)
26.04.2018 21:30 7,2 °C 84 % 1017,8 hPa 0,0 mm 0,8 km/h (0 Bft) S-SW 213 ° 0 min 0,000 mm 0,0 UV-I 0 W/m² 4,7 °C 7,2 °C 1,6 km/h (1 Bft)
26.04.2018 21:31 7,2 °C 84 % 1017,8 hPa 0,0 mm 0,7 km/h (0 Bft) S-SW 213 ° 0 min 0,000 mm 0,0 UV-I 0 W/m² 4,7 °C 7,2 °C 1,6 km/h (1 Bft)
26.04.2018 21:32 7,2 °C 84 % 1017,8 hPa 0,0 mm 0,3 km/h (0 Bft) S-SW 213 ° 0 min 0,000 mm 0,0 UV-I 0 W/m² 4,7 °C 7,2 °C 1,6 km/h (1 Bft)
26.04.2018 21:33 7,2 °C 84 % 1017,8 hPa 0,0 mm 0,0 km/h (0 Bft) S-SW 213 ° 0 min 0,000 mm 0,0 UV-I 0 W/m² 4,7 °C 7,2 °C 0,0 km/h (0 Bft)
26.04.2018 21:34 7,2 °C 84 % 1017,8 hPa 0,0 mm 0,0 km/h (0 Bft) S-SW 213 ° 0 min 0,000 mm 0,0 UV-I 0 W/m² 4,7 °C 7,2 °C 0,0 km/h (0 Bft)
26.04.2018 21:35 7,2 °C 84 % 1017,9 hPa 0,0 mm 0,0 km/h (0 Bft) S-SW 213 ° 0 min 0,000 mm 0,0 UV-I 0 W/m² 4,7 °C 7,2 °C 0,0 km/h (0 Bft)
26.04.2018 21:36 7,1 °C 85 % 1017,8 hPa 0,0 mm 0,0 km/h (0 Bft) S-SW 213 ° 0 min 0,000 mm 0,0 UV-I 0 W/m² 4,8 °C 7,1 °C 0,0 km/h (0 Bft)
26.04.2018 21:37 7,1 °C 85 % 1017,9 hPa 0,0 mm 0,0 km/h (0 Bft) S-SW 213 ° 0 min 0,000 mm 0,0 UV-I 0 W/m² 4,8 °C 7,1 °C 0,0 km/h (0 Bft)
26.04.2018 21:38 6,9 °C 85 % 1017,9 hPa 0,0 mm 0,0 km/h (0 Bft) S-SW 213 ° 0 min 0,000 mm 0,0 UV-I 0 W/m² 4,6 °C 6,9 °C 0,0 km/h (0 Bft)
26.04.2018 21:39 6,9 °C 85 % 1017,9 hPa 0,0 mm 0,0 km/h (0 Bft) S-SW 213 ° 0 min 0,000 mm 0,0 UV-I 0 W/m² 4,6 °C 6,9 °C 0,0 km/h (0 Bft)
26.04.2018 21:40 6,9 °C 85 % 1017,9 hPa 0,0 mm 0,0 km/h (0 Bft) S-SW 213 ° 0 min 0,000 mm 0,0 UV-I 0 W/m² 4,6 °C 6,9 °C 0,0 km/h (0 Bft)
26.04.2018 21:41 6,9 °C 86 % 1017,9 hPa 0,0 mm 0,6 km/h (0 Bft) S-SW 213 ° 0 min 0,000 mm 0,0 UV-I 0 W/m² 4,7 °C 6,9 °C 3,2 km/h (1 Bft)
26.04.2018 21:42 6,9 °C 86 % 1017,9 hPa 0,0 mm 1,7 km/h (1 Bft) S-SW 213 ° 0 min 0,000 mm 0,0 UV-I 0 W/m² 4,7 °C 6,9 °C 3,2 km/h (1 Bft)
26.04.2018 21:43 6,9 °C 86 % 1017,9 hPa 0,0 mm 2,5 km/h (1 Bft) S-SW 213 ° 0 min 0,000 mm 0,0 UV-I 0 W/m² 4,7 °C 6,9 °C 3,2 km/h (1 Bft)
26.04.2018 21:44 6,9 °C 86 % 1017,9 hPa 0,0 mm 1,3 km/h (1 Bft) S-SW 213 ° 0 min 0,000 mm 0,0 UV-I 0 W/m² 4,7 °C 6,9 °C 3,2 km/h (1 Bft)
26.04.2018 21:45 6,9 °C 85 % 1017,9 hPa 0,0 mm 1,3 km/h (1 Bft) S-SW 213 ° 0 min 0,000 mm 0,0 UV-I 0 W/m² 4,6 °C 6,9 °C 3,2 km/h (1 Bft)
26.04.2018 21:46 6,9 °C 85 % 1017,9 hPa 0,0 mm 0,3 km/h (0 Bft) S-SW 213 ° 0 min 0,000 mm 0,0 UV-I 0 W/m² 4,6 °C 6,9 °C 1,6 km/h (1 Bft)
26.04.2018 21:47 6,9 °C 86 % 1017,8 hPa 0,0 mm 1,4 km/h (1 Bft) S-SW 213 ° 0 min 0,000 mm 0,0 UV-I 0 W/m² 4,7 °C 6,9 °C 3,2 km/h (1 Bft)
26.04.2018 21:48 6,9 °C 86 % 1017,9 hPa 0,0 mm 1,7 km/h (1 Bft) S-SW 213 ° 0 min 0,000 mm 0,0 UV-I 0 W/m² 4,7 °C 6,9 °C 3,2 km/h (1 Bft)
26.04.2018 21:49 6,9 °C 86 % 1017,9 hPa 0,0 mm 1,3 km/h (1 Bft) S-SW 213 ° 0 min 0,000 mm 0,0 UV-I 0 W/m² 4,7 °C 6,9 °C 1,6 km/h (1 Bft)
26.04.2018 21:50 6,8 °C 86 % 1017,9 hPa 0,0 mm 2,2 km/h (1 Bft) S-SW 213 ° 0 min 0,000 mm 0,0 UV-I 0 W/m² 4,6 °C 6,8 °C 3,2 km/h (1 Bft)
26.04.2018 21:51 6,8 °C 86 % 1017,9 hPa 0,0 mm 1,8 km/h (1 Bft) S-SW 213 ° 0 min 0,000 mm 0,0 UV-I 0 W/m² 4,6 °C 6,8 °C 3,2 km/h (1 Bft)
26.04.2018 21:52 6,8 °C 86 % 1017,9 hPa 0,0 mm 1,7 km/h (1 Bft) S-SW 213 ° 0 min 0,000 mm 0,0 UV-I 0 W/m² 4,6 °C 6,8 °C 3,2 km/h (1 Bft)
26.04.2018 21:53 6,9 °C 86 % 1017,9 hPa 0,0 mm 2,1 km/h (1 Bft) S-SW 213 ° 0 min 0,000 mm 0,0 UV-I 0 W/m² 4,7 °C 6,9 °C 3,2 km/h (1 Bft)
26.04.2018 21:54 6,9 °C 86 % 1017,9 hPa 0,0 mm 2,7 km/h (1 Bft) S-SW 213 ° 0 min 0,000 mm 0,0 UV-I 0 W/m² 4,7 °C 6,9 °C 4,8 km/h (1 Bft)
26.04.2018 21:55 6,9 °C 86 % 1017,9 hPa 0,0 mm 2,9 km/h (1 Bft) S-SW 213 ° 0 min 0,000 mm 0,0 UV-I 0 W/m² 4,7 °C 6,9 °C 3,2 km/h (1 Bft)
26.04.2018 21:56 6,8 °C 86 % 1017,9 hPa 0,0 mm 3,2 km/h (1 Bft) S-SW 213 ° 0 min 0,000 mm 0,0 UV-I 0 W/m² 4,6 °C 6,8 °C 4,8 km/h (1 Bft)
26.04.2018 21:57 6,8 °C 86 % 1017,9 hPa 0,0 mm 0,9 km/h (0 Bft) S-SW 213 ° 0 min 0,000 mm 0,0 UV-I 0 W/m² 4,6 °C 6,8 °C 3,2 km/h (1 Bft)
26.04.2018 21:58 6,8 °C 87 % 1017,9 hPa 0,0 mm 1,7 km/h (1 Bft) S-SW 213 ° 0 min 0,000 mm 0,0 UV-I 0 W/m² 4,8 °C 6,8 °C 3,2 km/h (1 Bft)
26.04.2018 21:59 6,8 °C 86 % 1017,9 hPa 0,0 mm 1,5 km/h (1 Bft) S-SW 213 ° 0 min 0,000 mm 0,0 UV-I 0 W/m² 4,6 °C 6,8 °C 3,2 km/h (1 Bft)
26.04.2018 22:00 6,8 °C 86 % 1017,9 hPa 0,0 mm 2,1 km/h (1 Bft) S-SW 213 ° 0 min 0,000 mm 0,0 UV-I 0 W/m² 4,6 °C 6,8 °C 3,2 km/h (1 Bft)
26.04.2018 22:01 6,8 °C 86 % 1017,8 hPa 0,0 mm 1,7 km/h (1 Bft) S-SW 213 ° 0 min 0,000 mm 0,0 UV-I 0 W/m² 4,6 °C 6,8 °C 3,2 km/h (1 Bft)
26.04.2018 22:02 6,9 °C 86 % 1017,9 hPa 0,0 mm 1,6 km/h (1 Bft) S-SW 212 ° 0 min 0,000 mm 0,0 UV-I 0 W/m² 4,7 °C 6,9 °C 3,2 km/h (1 Bft)
26.04.2018 22:03 6,9 °C 86 % 1017,8 hPa 0,0 mm 1,7 km/h (1 Bft) S-SW 213 ° 0 min 0,000 mm 0,0 UV-I 0 W/m² 4,7 °C 6,9 °C 3,2 km/h (1 Bft)
26.04.2018 22:04 6,9 °C 86 % 1017,9 hPa 0,0 mm 1,7 km/h (1 Bft) S-SW 213 ° 0 min 0,000 mm 0,0 UV-I 0 W/m² 4,7 °C 6,9 °C 3,2 km/h (1 Bft)
26.04.2018 22:05 6,9 °C 86 % 1017,9 hPa 0,0 mm 1,8 km/h (1 Bft) S-SW 213 ° 0 min 0,000 mm 0,0 UV-I 0 W/m² 4,7 °C 6,9 °C 3,2 km/h (1 Bft)
26.04.2018 22:06 6,8 °C 86 % 1017,9 hPa 0,0 mm 1,7 km/h (1 Bft) S-SW 213 ° 0 min 0,000 mm 0,0 UV-I 0 W/m² 4,6 °C 6,8 °C 3,2 km/h (1 Bft)
26.04.2018 22:07 6,9 °C 86 % 1017,9 hPa 0,0 mm 1,3 km/h (1 Bft) S-SW 213 ° 0 min 0,000 mm 0,0 UV-I 0 W/m² 4,7 °C 6,9 °C 3,2 km/h (1 Bft)
26.04.2018 22:08 6,9 °C 86 % 1017,9 hPa 0,0 mm 2,2 km/h (1 Bft) S-SW 213 ° 0 min 0,000 mm 0,0 UV-I 0 W/m² 4,7 °C 6,9 °C 3,2 km/h (1 Bft)
26.04.2018 22:09 6,9 °C 86 % 1017,9 hPa 0,0 mm 1,3 km/h (1 Bft) S-SW 213 ° 0 min 0,000 mm 0,0 UV-I 0 W/m² 4,7 °C 6,9 °C 1,6 km/h (1 Bft)
26.04.2018 22:10 6,8 °C 86 % 1017,9 hPa 0,0 mm 2,7 km/h (1 Bft) S-SW 213 ° 0 min 0,000 mm 0,0 UV-I 0 W/m² 4,6 °C 6,8 °C 3,2 km/h (1 Bft)
26.04.2018 22:11 6,8 °C 87 % 1017,9 hPa 0,0 mm 1,9 km/h (1 Bft) S-SW 213 ° 0 min 0,000 mm 0,0 UV-I 0 W/m² 4,8 °C 6,8 °C 4,8 km/h (1 Bft)
26.04.2018 22:12 6,8 °C 86 % 1017,9 hPa 0,0 mm 1,3 km/h (1 Bft) S-SW 213 ° 0 min 0,000 mm 0,0 UV-I 0 W/m² 4,6 °C 6,8 °C 3,2 km/h (1 Bft)
26.04.2018 22:13 6,8 °C 86 % 1017,8 hPa 0,0 mm 1,3 km/h (1 Bft) S-SW 213 ° 0 min 0,000 mm 0,0 UV-I 0 W/m² 4,6 °C 6,8 °C 1,6 km/h (1 Bft)
26.04.2018 22:14 6,8 °C 86 % 1017,9 hPa 0,0 mm 1,8 km/h (1 Bft) S-SW 213 ° 0 min 0,000 mm 0,0 UV-I 0 W/m² 4,6 °C 6,8 °C 3,2 km/h (1 Bft)
26.04.2018 22:15 6,8 °C 86 % 1017,9 hPa 0,0 mm 2,5 km/h (1 Bft) S-SW 213 ° 0 min 0,000 mm 0,0 UV-I 0 W/m² 4,6 °C 6,8 °C 3,2 km/h (1 Bft)
26.04.2018 22:16 6,7 °C 87 % 1017,9 hPa 0,0 mm 3,8 km/h (1 Bft) S-SW 213 ° 0 min 0,000 mm 0,0 UV-I 0 W/m² 4,7 °C 6,7 °C 4,8 km/h (1 Bft)
26.04.2018 22:17 6,7 °C 87 % 1017,9 hPa 0,0 mm 4,0 km/h (1 Bft) S-SW 213 ° 0 min 0,000 mm 0,0 UV-I 0 W/m² 4,7 °C 6,7 °C 4,8 km/h (1 Bft)
26.04.2018 22:18 6,6 °C 87 % 1017,9 hPa 0,0 mm 2,1 km/h (1 Bft) S-SW 213 ° 0 min 0,000 mm 0,0 UV-I 0 W/m² 4,6 °C 6,6 °C 3,2 km/h (1 Bft)
26.04.2018 22:19 6,6 °C 87 % 1017,9 hPa 0,0 mm 2,4 km/h (1 Bft) S-SW 213 ° 0 min 0,000 mm 0,0 UV-I 0 W/m² 4,6 °C 6,6 °C 3,2 km/h (1 Bft)
26.04.2018 22:20 6,6 °C 87 % 1017,9 hPa 0,0 mm 1,6 km/h (1 Bft) S-SW 213 ° 0 min 0,000 mm 0,0 UV-I 0 W/m² 4,6 °C 6,6 °C 3,2 km/h (1 Bft)
26.04.2018 22:21 6,7 °C 87 % 1017,9 hPa 0,0 mm 2,6 km/h (1 Bft) S-SW 213 ° 0 min 0,000 mm 0,0 UV-I 0 W/m² 4,7 °C 6,7 °C 3,2 km/h (1 Bft)
26.04.2018 22:22 6,7 °C 87 % 1017,9 hPa 0,0 mm 3,0 km/h (1 Bft) S-SW 213 ° 0 min 0,000 mm 0,0 UV-I 0 W/m² 4,7 °C 6,7 °C 4,8 km/h (1 Bft)
26.04.2018 22:23 6,7 °C 87 % 1017,9 hPa 0,0 mm 3,4 km/h (1 Bft) S-SW 213 ° 0 min 0,000 mm 0,0 UV-I 0 W/m² 4,7 °C 6,7 °C 4,8 km/h (1 Bft)
26.04.2018 22:24 6,6 °C 87 % 1017,9 hPa 0,0 mm 3,5 km/h (1 Bft) S-SW 213 ° 0 min 0,000 mm 0,0 UV-I 0 W/m² 4,6 °C 6,6 °C 4,8 km/h (1 Bft)
26.04.2018 22:25 6,7 °C 87 % 1017,9 hPa 0,0 mm 3,0 km/h (1 Bft) S-SW 213 ° 0 min 0,000 mm 0,0 UV-I 0 W/m² 4,7 °C 6,7 °C 4,8 km/h (1 Bft)
26.04.2018 22:26 6,6 °C 87 % 1017,9 hPa 0,0 mm 1,6 km/h (1 Bft) S-SW 213 ° 0 min 0,000 mm 0,0 UV-I 0 W/m² 4,6 °C 6,6 °C 3,2 km/h (1 Bft)
26.04.2018 22:27 6,7 °C 87 % 1017,9 hPa 0,0 mm 1,7 km/h (1 Bft) S-SW 213 ° 0 min 0,000 mm 0,0 UV-I 0 W/m² 4,7 °C 6,7 °C 3,2 km/h (1 Bft)
26.04.2018 22:28 6,6 °C 87 % 1017,9 hPa 0,0 mm 1,8 km/h (1 Bft) S-SW 213 ° 0 min 0,000 mm 0,0 UV-I 0 W/m² 4,6 °C 6,6 °C 3,2 km/h (1 Bft)
26.04.2018 22:29 6,6 °C 87 % 1017,9 hPa 0,0 mm 2,5 km/h (1 Bft) S-SW 213 ° 0 min 0,000 mm 0,0 UV-I 0 W/m² 4,6 °C 6,6 °C 3,2 km/h (1 Bft)
26.04.2018 22:30 6,6 °C 87 % 1017,9 hPa 0,0 mm 2,7 km/h (1 Bft) S-SW 213 ° 0 min 0,000 mm 0,0 UV-I 0 W/m² 4,6 °C 6,6 °C 3,2 km/h (1 Bft)
26.04.2018 22:31 6,6 °C 87 % 1017,9 hPa 0,0 mm 1,9 km/h (1 Bft) S-SW 213 ° 0 min 0,000 mm 0,0 UV-I 0 W/m² 4,6 °C 6,6 °C 3,2 km/h (1 Bft)
26.04.2018 22:32 6,6 °C 87 % 1017,9 hPa 0,0 mm 1,9 km/h (1 Bft) S-SW 213 ° 0 min 0,000 mm 0,0 UV-I 0 W/m² 4,6 °C 6,6 °C 3,2 km/h (1 Bft)
26.04.2018 22:33 6,6 °C 87 % 1017,9 hPa 0,0 mm 1,8 km/h (1 Bft) S-SW 212 ° 0 min 0,000 mm 0,0 UV-I 0 W/m² 4,6 °C 6,6 °C 3,2 km/h (1 Bft)
26.04.2018 22:34 6,6 °C 87 % 1017,9 hPa 0,0 mm 2,9 km/h (1 Bft) S-SW 213 ° 0 min 0,000 mm 0,0 UV-I 0 W/m² 4,6 °C 6,6 °C 4,8 km/h (1 Bft)
26.04.2018 22:35 6,6 °C 87 % 1017,9 hPa 0,0 mm 3,6 km/h (1 Bft) S-SW 213 ° 0 min 0,000 mm 0,0 UV-I 0 W/m² 4,6 °C 6,6 °C 4,8 km/h (1 Bft)
26.04.2018 22:36 6,5 °C 87 % 1017,9 hPa 0,0 mm 4,1 km/h (1 Bft) S-SW 213 ° 0 min 0,000 mm 0,0 UV-I 0 W/m² 4,5 °C 6,5 °C 6,4 km/h (2 Bft)
26.04.2018 22:37 6,5 °C 87 % 1017,9 hPa 0,0 mm 2,7 km/h (1 Bft) S-SW 213 ° 0 min 0,000 mm 0,0 UV-I 0 W/m² 4,5 °C 6,5 °C 3,2 km/h (1 Bft)
26.04.2018 22:38 6,5 °C 87 % 1017,9 hPa 0,0 mm 3,1 km/h (1 Bft) S-SW 213 ° 0 min 0,000 mm 0,0 UV-I 0 W/m² 4,5 °C 6,5 °C 4,8 km/h (1 Bft)
26.04.2018 22:39 6,5 °C 87 % 1017,9 hPa 0,0 mm 3,2 km/h (1 Bft) S-SW 213 ° 0 min 0,000 mm 0,0 UV-I 0 W/m² 4,5 °C 6,5 °C 4,8 km/h (1 Bft)
26.04.2018 22:40 6,6 °C 88 % 1017,9 hPa 0,0 mm 2,8 km/h (1 Bft) S-SW 212 ° 0 min 0,000 mm 0,0 UV-I 0 W/m² 4,8 °C 6,6 °C 3,2 km/h (1 Bft)
26.04.2018 22:41 6,6 °C 87 % 1017,9 hPa 0,0 mm 2,5 km/h (1 Bft) S-SW 212 ° 0 min 0,000 mm 0,0 UV-I 0 W/m² 4,6 °C 6,6 °C 3,2 km/h (1 Bft)
26.04.2018 22:42 6,6 °C 88 % 1017,9 hPa 0,0 mm 2,3 km/h (1 Bft) S-SW 212 ° 0 min 0,000 mm 0,0 UV-I 0 W/m² 4,8 °C 6,6 °C 3,2 km/h (1 Bft)
26.04.2018 22:43 6,6 °C 87 % 1017,9 hPa 0,0 mm 2,0 km/h (1 Bft) S-SW 212 ° 0 min 0,000 mm 0,0 UV-I 0 W/m² 4,6 °C 6,6 °C 3,2 km/h (1 Bft)
26.04.2018 22:44 6,6 °C 87 % 1017,9 hPa 0,0 mm 1,5 km/h (1 Bft) S-SW 213 ° 0 min 0,000 mm 0,0 UV-I 0 W/m² 4,6 °C 6,6 °C 1,6 km/h (1 Bft)
26.04.2018 22:45 6,6 °C 88 % 1017,9 hPa 0,0 mm 1,6 km/h (1 Bft) S-SW 212 ° 0 min 0,000 mm 0,0 UV-I 0 W/m² 4,8 °C 6,6 °C 3,2 km/h (1 Bft)
26.04.2018 22:46 6,6 °C 88 % 1017,9 hPa 0,0 mm 1,8 km/h (1 Bft) S-SW 212 ° 0 min 0,000 mm 0,0 UV-I 0 W/m² 4,8 °C 6,6 °C 3,2 km/h (1 Bft)
26.04.2018 22:47 6,6 °C 88 % 1017,9 hPa 0,0 mm 2,3 km/h (1 Bft) S-SW 212 ° 0 min 0,000 mm 0,0 UV-I 0 W/m² 4,8 °C 6,6 °C 3,2 km/h (1 Bft)
26.04.2018 22:48 6,6 °C 87 % 1017,9 hPa 0,0 mm 3,4 km/h (1 Bft) S-SW 212 ° 0 min 0,000 mm 0,0 UV-I 0 W/m² 4,6 °C 6,6 °C 4,8 km/h (1 Bft)
26.04.2018 22:49 6,5 °C 87 % 1017,8 hPa 0,0 mm 3,3 km/h (1 Bft) S-SW 212 ° 0 min 0,000 mm 0,0 UV-I 0 W/m² 4,5 °C 6,5 °C 4,8 km/h (1 Bft)
26.04.2018 22:50 6,5 °C 88 % 1017,9 hPa 0,0 mm 3,0 km/h (1 Bft) S-SW 212 ° 0 min 0,000 mm 0,0 UV-I 0 W/m² 4,7 °C 6,5 °C 3,2 km/h (1 Bft)
26.04.2018 22:51 6,6 °C 88 % 1017,9 hPa 0,0 mm 2,4 km/h (1 Bft) S-SW 212 ° 0 min 0,000 mm 0,0 UV-I 0 W/m² 4,8 °C 6,6 °C 3,2 km/h (1 Bft)
26.04.2018 22:52 6,6 °C 88 % 1017,9 hPa 0,0 mm 3,0 km/h (1 Bft) S-SW 212 ° 0 min 0,000 mm 0,0 UV-I 0 W/m² 4,8 °C 6,6 °C 4,8 km/h (1 Bft)
26.04.2018 22:53 6,6 °C 88 % 1017,9 hPa 0,0 mm 2,4 km/h (1 Bft) S-SW 212 ° 0 min 0,000 mm 0,0 UV-I 0 W/m² 4,8 °C 6,6 °C 3,2 km/h (1 Bft)
26.04.2018 22:54 6,6 °C 88 % 1017,8 hPa 0,0 mm 3,2 km/h (1 Bft) S-SW 212 ° 0 min 0,000 mm 0,0 UV-I 0 W/m² 4,8 °C 6,6 °C 4,8 km/h (1 Bft)
26.04.2018 22:55 6,6 °C 88 % 1017,9 hPa 0,0 mm 2,7 km/h (1 Bft) S-SW 212 ° 0 min 0,000 mm 0,0 UV-I 0 W/m² 4,8 °C 6,6 °C 4,8 km/h (1 Bft)
26.04.2018 22:56 6,6 °C 87 % 1017,8 hPa 0,0 mm 2,2 km/h (1 Bft) S-SW 212 ° 0 min 0,000 mm 0,0 UV-I 0 W/m² 4,6 °C 6,6 °C 3,2 km/h (1 Bft)
26.04.2018 22:57 6,6 °C 87 % 1017,8 hPa 0,0 mm 2,5 km/h (1 Bft) S-SW 212 ° 0 min 0,000 mm 0,0 UV-I 0 W/m² 4,6 °C 6,6 °C 3,2 km/h (1 Bft)
26.04.2018 22:58 6,6 °C 87 % 1017,8 hPa 0,0 mm 3,4 km/h (1 Bft) S-SW 212 ° 0 min 0,000 mm 0,0 UV-I 0 W/m² 4,6 °C 6,6 °C 4,8 km/h (1 Bft)
26.04.2018 22:59 6,6 °C 87 % 1017,8 hPa 0,0 mm 4,0 km/h (1 Bft) S-SW 212 ° 0 min 0,000 mm 0,0 UV-I 0 W/m² 4,6 °C 6,6 °C 4,8 km/h (1 Bft)
26.04.2018 23:00 6,5 °C 87 % 1017,8 hPa 0,0 mm 3,8 km/h (1 Bft) S-SW 212 ° 0 min 0,000 mm 0,0 UV-I 0 W/m² 4,5 °C 6,5 °C 4,8 km/h (1 Bft)
26.04.2018 23:01 6,5 °C 87 % 1017,8 hPa 0,0 mm 3,0 km/h (1 Bft) S-SW 213 ° 0 min 0,000 mm 0,0 UV-I 0 W/m² 4,5 °C 6,5 °C 4,8 km/h (1 Bft)
26.04.2018 23:02 6,4 °C 87 % 1017,8 hPa 0,0 mm 2,3 km/h (1 Bft) S-SW 212 ° 0 min 0,000 mm 0,0 UV-I 0 W/m² 4,4 °C 6,4 °C 3,2 km/h (1 Bft)
26.04.2018 23:03 6,4 °C 88 % 1017,8 hPa 0,0 mm 2,4 km/h (1 Bft) S-SW 212 ° 0 min 0,000 mm 0,0 UV-I 0 W/m² 4,6 °C 6,4 °C 3,2 km/h (1 Bft)
26.04.2018 23:04 6,4 °C 88 % 1017,8 hPa 0,0 mm 2,9 km/h (1 Bft) S-SW 212 ° 0 min 0,000 mm 0,0 UV-I 0 W/m² 4,6 °C 6,4 °C 4,8 km/h (1 Bft)
26.04.2018 23:05 6,4 °C 88 % 1017,8 hPa 0,0 mm 2,3 km/h (1 Bft) S-SW 212 ° 0 min 0,000 mm 0,0 UV-I 0 W/m² 4,6 °C 6,4 °C 3,2 km/h (1 Bft)
26.04.2018 23:06 6,4 °C 88 % 1017,8 hPa 0,0 mm 2,7 km/h (1 Bft) S-SW 212 ° 0 min 0,000 mm 0,0 UV-I 0 W/m² 4,6 °C 6,4 °C 3,2 km/h (1 Bft)
26.04.2018 23:07 6,4 °C 88 % 1017,8 hPa 0,0 mm 1,3 km/h (1 Bft) S-SW 212 ° 0 min 0,000 mm 0,0 UV-I 0 W/m² 4,6 °C 6,4 °C 3,2 km/h (1 Bft)
26.04.2018 23:08 6,4 °C 88 % 1017,7 hPa 0,0 mm 1,7 km/h (1 Bft) S-SW 212 ° 0 min 0,000 mm 0,0 UV-I 0 W/m² 4,6 °C 6,4 °C 3,2 km/h (1 Bft)
26.04.2018 23:09 6,4 °C 88 % 1017,8 hPa 0,0 mm 2,5 km/h (1 Bft) S-SW 212 ° 0 min 0,000 mm 0,0 UV-I 0 W/m² 4,6 °C 6,4 °C 4,8 km/h (1 Bft)
26.04.2018 23:10 6,4 °C 88 % 1017,8 hPa 0,0 mm 2,9 km/h (1 Bft) S-SW 212 ° 0 min 0,000 mm 0,0 UV-I 0 W/m² 4,6 °C 6,4 °C 3,2 km/h (1 Bft)
26.04.2018 23:11 6,3 °C 88 % 1017,8 hPa 0,0 mm 1,7 km/h (1 Bft) S-SW 212 ° 0 min 0,000 mm 0,0 UV-I 0 W/m² 4,5 °C 6,3 °C 3,2 km/h (1 Bft)
26.04.2018 23:12 6,4 °C 88 % 1017,8 hPa 0,0 mm 1,5 km/h (1 Bft) S-SW 212 ° 0 min 0,000 mm 0,0 UV-I 0 W/m² 4,6 °C 6,4 °C 3,2 km/h (1 Bft)
26.04.2018 23:13 6,4 °C 88 % 1017,8 hPa 0,0 mm 1,9 km/h (1 Bft) S-SW 212 ° 0 min 0,000 mm 0,0 UV-I 0 W/m² 4,6 °C 6,4 °C 3,2 km/h (1 Bft)
26.04.2018 23:14 6,4 °C 88 % 1017,8 hPa 0,0 mm 1,8 km/h (1 Bft) S-SW 212 ° 0 min 0,000 mm 0,0 UV-I 0 W/m² 4,6 °C 6,4 °C 3,2 km/h (1 Bft)
26.04.2018 23:15 6,4 °C 88 % 1017,8 hPa 0,0 mm 2,3 km/h (1 Bft) S-SW 212 ° 0 min 0,000 mm 0,0 UV-I 0 W/m² 4,6 °C 6,4 °C 3,2 km/h (1 Bft)
26.04.2018 23:16 6,4 °C 88 % 1017,7 hPa 0,0 mm 3,6 km/h (1 Bft) S-SW 212 ° 0 min 0,000 mm 0,0 UV-I 0 W/m² 4,6 °C 6,4 °C 4,8 km/h (1 Bft)
26.04.2018 23:17 6,4 °C 88 % 1017,7 hPa 0,0 mm 3,2 km/h (1 Bft) S-SW 212 ° 0 min 0,000 mm 0,0 UV-I 0 W/m² 4,6 °C 6,4 °C 3,2 km/h (1 Bft)
26.04.2018 23:18 6,4 °C 88 % 1017,7 hPa 0,0 mm 2,3 km/h (1 Bft) S-SW 212 ° 0 min 0,000 mm 0,0 UV-I 0 W/m² 4,6 °C 6,4 °C 4,8 km/h (1 Bft)
26.04.2018 23:19 6,3 °C 88 % 1017,8 hPa 0,0 mm 1,1 km/h (1 Bft) S-SW 212 ° 0 min 0,000 mm 0,0 UV-I 0 W/m² 4,5 °C 6,3 °C 3,2 km/h (1 Bft)
26.04.2018 23:20 6,3 °C 88 % 1017,8 hPa 0,0 mm 2,1 km/h (1 Bft) S-SW 212 ° 0 min 0,000 mm 0,0 UV-I 0 W/m² 4,5 °C 6,3 °C 3,2 km/h (1 Bft)
26.04.2018 23:21 6,3 °C 88 % 1017,8 hPa 0,0 mm 2,2 km/h (1 Bft) S-SW 212 ° 0 min 0,000 mm 0,0 UV-I 0 W/m² 4,5 °C 6,3 °C 3,2 km/h (1 Bft)
26.04.2018 23:22 6,2 °C 88 % 1017,8 hPa 0,0 mm 1,5 km/h (1 Bft) S-SW 212 ° 0 min 0,000 mm 0,0 UV-I 0 W/m² 4,4 °C 6,2 °C 3,2 km/h (1 Bft)
26.04.2018 23:23 6,2 °C 88 % 1017,8 hPa 0,0 mm 2,1 km/h (1 Bft) S-SW 212 ° 0 min 0,000 mm 0,0 UV-I 0 W/m² 4,4 °C 6,2 °C 3,2 km/h (1 Bft)
26.04.2018 23:24 6,2 °C 88 % 1017,8 hPa 0,0 mm 2,4 km/h (1 Bft) S-SW 212 ° 0 min 0,000 mm 0,0 UV-I 0 W/m² 4,4 °C 6,2 °C 3,2 km/h (1 Bft)
26.04.2018 23:25 6,2 °C 88 % 1017,7 hPa 0,0 mm 0,7 km/h (0 Bft) S-SW 212 ° 0 min 0,000 mm 0,0 UV-I 0 W/m² 4,4 °C 6,2 °C 1,6 km/h (1 Bft)
26.04.2018 23:26 6,2 °C 88 % 1017,7 hPa 0,0 mm 0,0 km/h (0 Bft) S-SW 212 ° 0 min 0,000 mm 0,0 UV-I 0 W/m² 4,4 °C 6,2 °C 0,0 km/h (0 Bft)
26.04.2018 23:27 6,2 °C 88 % 1017,8 hPa 0,0 mm 0,0 km/h (0 Bft) S-SW 212 ° 0 min 0,000 mm 0,0 UV-I 0 W/m² 4,4 °C 6,2 °C 0,0 km/h (0 Bft)
26.04.2018 23:28 6,2 °C 88 % 1017,8 hPa 0,0 mm 0,0 km/h (0 Bft) S-SW 212 ° 0 min 0,000 mm 0,0 UV-I 0 W/m² 4,4 °C 6,2 °C 0,0 km/h (0 Bft)
26.04.2018 23:29 6,2 °C 88 % 1017,8 hPa 0,0 mm 0,0 km/h (0 Bft) S-SW 212 ° 0 min 0,000 mm 0,0 UV-I 0 W/m² 4,4 °C 6,2 °C 0,0 km/h (0 Bft)
26.04.2018 23:30 6,2 °C 88 % 1017,8 hPa 0,0 mm 0,0 km/h (0 Bft) S-SW 212 ° 0 min 0,000 mm 0,0 UV-I 0 W/m² 4,4 °C 6,2 °C 0,0 km/h (0 Bft)
26.04.2018 23:31 6,2 °C 88 % 1017,7 hPa 0,0 mm 0,0 km/h (0 Bft) S-SW 212 ° 0 min 0,000 mm 0,0 UV-I 0 W/m² 4,4 °C 6,2 °C 0,0 km/h (0 Bft)
26.04.2018 23:32 6,2 °C 88 % 1017,7 hPa 0,0 mm 0,0 km/h (0 Bft) S-SW 212 ° 0 min 0,000 mm 0,0 UV-I 0 W/m² 4,4 °C 6,2 °C 0,0 km/h (0 Bft)
26.04.2018 23:33 6,2 °C 88 % 1017,8 hPa 0,0 mm 0,0 km/h (0 Bft) S-SW 212 ° 0 min 0,000 mm 0,0 UV-I 0 W/m² 4,4 °C 6,2 °C 0,0 km/h (0 Bft)
26.04.2018 23:34 6,2 °C 88 % 1017,8 hPa 0,0 mm 0,0 km/h (0 Bft) S-SW 212 ° 0 min 0,000 mm 0,0 UV-I 0 W/m² 4,4 °C 6,2 °C 0,0 km/h (0 Bft)
26.04.2018 23:35 6,1 °C 88 % 1017,9 hPa 0,0 mm 0,0 km/h (0 Bft) S-SW 212 ° 0 min 0,000 mm 0,0 UV-I 0 W/m² 4,3 °C 6,1 °C 0,0 km/h (0 Bft)
26.04.2018 23:36 6,1 °C 88 % 1017,8 hPa 0,0 mm 0,0 km/h (0 Bft) S-SW 212 ° 0 min 0,000 mm 0,0 UV-I 0 W/m² 4,3 °C 6,1 °C 0,0 km/h (0 Bft)
26.04.2018 23:37 6,1 °C 88 % 1017,8 hPa 0,0 mm 0,0 km/h (0 Bft) S-SW 212 ° 0 min 0,000 mm 0,0 UV-I 0 W/m² 4,3 °C 6,1 °C 0,0 km/h (0 Bft)
26.04.2018 23:38 6,1 °C 88 % 1017,8 hPa 0,0 mm 0,0 km/h (0 Bft) S-SW 212 ° 0 min 0,000 mm 0,0 UV-I 0 W/m² 4,3 °C 6,1 °C 0,0 km/h (0 Bft)
26.04.2018 23:39 6,1 °C 88 % 1017,8 hPa 0,0 mm 0,0 km/h (0 Bft) S-SW 212 ° 0 min 0,000 mm 0,0 UV-I 0 W/m² 4,3 °C 6,1 °C 0,0 km/h (0 Bft)
26.04.2018 23:40 6,1 °C 88 % 1017,8 hPa 0,0 mm 0,0 km/h (0 Bft) S-SW 212 ° 0 min 0,000 mm 0,0 UV-I 0 W/m² 4,3 °C 6,1 °C 0,0 km/h (0 Bft)
26.04.2018 23:41 6,1 °C 88 % 1017,8 hPa 0,0 mm 0,0 km/h (0 Bft) S-SW 212 ° 0 min 0,000 mm 0,0 UV-I 0 W/m² 4,3 °C 6,1 °C 0,0 km/h (0 Bft)
26.04.2018 23:42 6,1 °C 88 % 1017,8 hPa 0,0 mm 0,0 km/h (0 Bft) S-SW 212 ° 0 min 0,000 mm 0,0 UV-I 0 W/m² 4,3 °C 6,1 °C 0,0 km/h (0 Bft)
26.04.2018 23:43 6,1 °C 88 % 1017,8 hPa 0,0 mm 0,0 km/h (0 Bft) S-SW 212 ° 0 min 0,000 mm 0,0 UV-I 0 W/m² 4,3 °C 6,1 °C 0,0 km/h (0 Bft)
26.04.2018 23:44 6,1 °C 88 % 1017,8 hPa 0,0 mm 0,0 km/h (0 Bft) S-SW 212 ° 0 min 0,000 mm 0,0 UV-I 0 W/m² 4,3 °C 6,1 °C 0,0 km/h (0 Bft)
26.04.2018 23:45 6,1 °C 88 % 1017,7 hPa 0,0 mm 0,0 km/h (0 Bft) S-SW 212 ° 0 min 0,000 mm 0,0 UV-I 0 W/m² 4,3 °C 6,1 °C 0,0 km/h (0 Bft)
26.04.2018 23:46 6,1 °C 88 % 1017,7 hPa 0,0 mm 0,0 km/h (0 Bft) S-SW 212 ° 0 min 0,000 mm 0,0 UV-I 0 W/m² 4,3 °C 6,1 °C 0,0 km/h (0 Bft)
26.04.2018 23:47 6,1 °C 88 % 1017,7 hPa 0,0 mm 0,0 km/h (0 Bft) S-SW 212 ° 0 min 0,000 mm 0,0 UV-I 0 W/m² 4,3 °C 6,1 °C 0,0 km/h (0 Bft)
26.04.2018 23:48 6,0 °C 88 % 1017,7 hPa 0,0 mm 0,0 km/h (0 Bft) S-SW 212 ° 0 min 0,000 mm 0,0 UV-I 0 W/m² 4,2 °C 6,0 °C 0,0 km/h (0 Bft)
26.04.2018 23:49 6,0 °C 88 % 1017,7 hPa 0,0 mm 0,0 km/h (0 Bft) S-SW 212 ° 0 min 0,000 mm 0,0 UV-I 0 W/m² 4,2 °C 6,0 °C 0,0 km/h (0 Bft)
26.04.2018 23:50 5,9 °C 88 % 1017,7 hPa 0,0 mm 0,0 km/h (0 Bft) S-SW 212 ° 0 min 0,000 mm 0,0 UV-I 0 W/m² 4,1 °C 5,9 °C 0,0 km/h (0 Bft)
26.04.2018 23:51 5,9 °C 88 % 1017,7 hPa 0,0 mm 0,0 km/h (0 Bft) S-SW 212 ° 0 min 0,000 mm 0,0 UV-I 0 W/m² 4,1 °C 5,9 °C 0,0 km/h (0 Bft)
26.04.2018 23:52 5,9 °C 88 % 1017,7 hPa 0,0 mm 0,0 km/h (0 Bft) S-SW 212 ° 0 min 0,000 mm 0,0 UV-I 0 W/m² 4,1 °C 5,9 °C 0,0 km/h (0 Bft)
26.04.2018 23:53 5,9 °C 88 % 1017,6 hPa 0,0 mm 0,0 km/h (0 Bft) S-SW 212 ° 0 min 0,000 mm 0,0 UV-I 0 W/m² 4,1 °C 5,9 °C 0,0 km/h (0 Bft)
26.04.2018 23:54 5,9 °C 88 % 1017,6 hPa 0,0 mm 0,0 km/h (0 Bft) S-SW 212 ° 0 min 0,000 mm 0,0 UV-I 0 W/m² 4,1 °C 5,9 °C 0,0 km/h (0 Bft)
26.04.2018 23:55 5,9 °C 88 % 1017,7 hPa 0,0 mm 0,0 km/h (0 Bft) S-SW 212 ° 0 min 0,000 mm 0,0 UV-I 0 W/m² 4,1 °C 5,9 °C 0,0 km/h (0 Bft)
26.04.2018 23:56 5,9 °C 88 % 1017,6 hPa 0,0 mm 0,0 km/h (0 Bft) S-SW 212 ° 0 min 0,000 mm 0,0 UV-I 0 W/m² 4,1 °C 5,9 °C 0,0 km/h (0 Bft)
26.04.2018 23:57 5,8 °C 88 % 1017,6 hPa 0,0 mm 0,0 km/h (0 Bft) S-SW 212 ° 0 min 0,000 mm 0,0 UV-I 0 W/m² 4,0 °C 5,8 °C 0,0 km/h (0 Bft)
26.04.2018 23:58 5,8 °C 88 % 1017,6 hPa 0,0 mm 0,0 km/h (0 Bft) S-SW 212 ° 0 min 0,000 mm 0,0 UV-I 0 W/m² 4,0 °C 5,8 °C 0,0 km/h (0 Bft)
26.04.2018 23:59 5,8 °C 88 % 1017,6 hPa 0,0 mm 0,0 km/h (0 Bft) S-SW 212 ° 0 min 0,000 mm 0,0 UV-I 0 W/m² 4,0 °C 5,8 °C 0,0 km/h (0 Bft)
_ Min-Zeit 23:59 18:56 00:05 - 23:59 - - - - - - 23:59 07:46 23:59
Minimum _ 5,8 °C 70 % 1011,9 hPa - 0,0 km/h (0 Bft) - - - - - - 4,0 °C 4,8 °C 0,0 km/h (0 Bft)
_ Max-Zeit 00:00 09:30 23:35 12:08 07:31 - - 23:59 16:01 13:12 15:09 00:39 00:03 06:11
Maximum _ 13,5 °C 93 % 1017,9 hPa 0,2 mm 16,3 km/h
W (3 Bft)
- - 0 min 0,127 mm 2,3 UV-I 274 W/m² 10,7 °C 13,4 °C 25,7 km/h
W (4 Bft)
Durchschnitt _ 8,7 °C 84 % 1015,5 hPa #6,8 mm 4,0 km/h (1 Bft) W - #0 min. #0,965 mm 1,1 UV-I 60 W/m² 6,2 °C 8,4 °C 7,0 km/h (2 Bft)